<?xml version="1.0" encoding="UTF-8" standalone="no" ?>
<gpx xmlns="http://www.topografix.com/GPX/1/1" xmlns:xsi="http://www.w3.org/2001/XMLSchema-instance" xsi:schemaLocation="http://www.topografix.com/GPX/1/1 http://www.topografix.com/GPX/1/1/gpx.xsd" version="1.1" creator="VisuGPX - https://www.visugpx.com">
  <metadata>
    <name>Pont de la Chaux,Le Frasnois</name>
  </metadata>
  <trk>
    <name><![CDATA[Pont de la Chaux,Le Frasnois_1]]></name>
    <extensions>
      <line xmlns="http://www.topografix.com/GPX/gpx_style/0/2">
        <color>0000FF</color>
        <width>4</width>
      </line>
    </extensions>
    <trkseg>
      <trkpt lat="46.65439" lon="5.94057">
        <ele>716.1</ele>
        <time>2021-05-08T11:24:30Z</time>
      </trkpt>
      <trkpt lat="46.65435" lon="5.94055">
        <ele>720.5</ele>
        <time>2021-05-08T11:24:39Z</time>
      </trkpt>
      <trkpt lat="46.65434" lon="5.94048">
        <ele>720.5</ele>
        <time>2021-05-08T11:25:51Z</time>
      </trkpt>
      <trkpt lat="46.65431" lon="5.94042">
        <ele>720.2</ele>
        <time>2021-05-08T11:25:59Z</time>
      </trkpt>
      <trkpt lat="46.6543" lon="5.94036">
        <ele>720.6</ele>
        <time>2021-05-08T11:26:04Z</time>
      </trkpt>
      <trkpt lat="46.65427" lon="5.9403">
        <ele>720.7</ele>
        <time>2021-05-08T11:26:08Z</time>
      </trkpt>
      <trkpt lat="46.65424" lon="5.94025">
        <ele>720.8</ele>
        <time>2021-05-08T11:26:14Z</time>
      </trkpt>
      <trkpt lat="46.6542" lon="5.94021">
        <ele>720.4</ele>
        <time>2021-05-08T11:26:22Z</time>
      </trkpt>
      <trkpt lat="46.65418" lon="5.94015">
        <ele>720.6</ele>
        <time>2021-05-08T11:26:27Z</time>
      </trkpt>
      <trkpt lat="46.65414" lon="5.94011">
        <ele>718.3</ele>
        <time>2021-05-08T11:26:42Z</time>
      </trkpt>
      <trkpt lat="46.65412" lon="5.94005">
        <ele>718</ele>
        <time>2021-05-08T11:26:47Z</time>
      </trkpt>
      <trkpt lat="46.65409" lon="5.93999">
        <ele>717.8</ele>
        <time>2021-05-08T11:26:52Z</time>
      </trkpt>
      <trkpt lat="46.65405" lon="5.93995">
        <ele>717.8</ele>
        <time>2021-05-08T11:26:57Z</time>
      </trkpt>
      <trkpt lat="46.65402" lon="5.9399">
        <ele>718.4</ele>
        <time>2021-05-08T11:27:02Z</time>
      </trkpt>
      <trkpt lat="46.65399" lon="5.93985">
        <ele>719.9</ele>
        <time>2021-05-08T11:27:07Z</time>
      </trkpt>
      <trkpt lat="46.65395" lon="5.9398">
        <ele>722.2</ele>
        <time>2021-05-08T11:27:14Z</time>
      </trkpt>
      <trkpt lat="46.65391" lon="5.93976">
        <ele>723.1</ele>
        <time>2021-05-08T11:27:19Z</time>
      </trkpt>
      <trkpt lat="46.65386" lon="5.9397">
        <ele>722.7</ele>
        <time>2021-05-08T11:27:23Z</time>
      </trkpt>
      <trkpt lat="46.65383" lon="5.93966">
        <ele>722.7</ele>
        <time>2021-05-08T11:27:27Z</time>
      </trkpt>
      <trkpt lat="46.65379" lon="5.9396">
        <ele>723.4</ele>
        <time>2021-05-08T11:27:32Z</time>
      </trkpt>
      <trkpt lat="46.65376" lon="5.93954">
        <ele>724.6</ele>
        <time>2021-05-08T11:27:37Z</time>
      </trkpt>
      <trkpt lat="46.65372" lon="5.9395">
        <ele>725.7</ele>
        <time>2021-05-08T11:27:42Z</time>
      </trkpt>
      <trkpt lat="46.65368" lon="5.93946">
        <ele>727</ele>
        <time>2021-05-08T11:27:49Z</time>
      </trkpt>
      <trkpt lat="46.65364" lon="5.93942">
        <ele>727.4</ele>
        <time>2021-05-08T11:27:53Z</time>
      </trkpt>
      <trkpt lat="46.6536" lon="5.93938">
        <ele>727.7</ele>
        <time>2021-05-08T11:27:57Z</time>
      </trkpt>
      <trkpt lat="46.65356" lon="5.93934">
        <ele>727.9</ele>
        <time>2021-05-08T11:28:01Z</time>
      </trkpt>
      <trkpt lat="46.65352" lon="5.9393">
        <ele>728.1</ele>
        <time>2021-05-08T11:28:06Z</time>
      </trkpt>
      <trkpt lat="46.65348" lon="5.93925">
        <ele>728.9</ele>
        <time>2021-05-08T11:28:12Z</time>
      </trkpt>
      <trkpt lat="46.65344" lon="5.93921">
        <ele>729.3</ele>
        <time>2021-05-08T11:28:16Z</time>
      </trkpt>
      <trkpt lat="46.6534" lon="5.93918">
        <ele>730</ele>
        <time>2021-05-08T11:28:22Z</time>
      </trkpt>
      <trkpt lat="46.65335" lon="5.93916">
        <ele>730.5</ele>
        <time>2021-05-08T11:28:29Z</time>
      </trkpt>
      <trkpt lat="46.65331" lon="5.93911">
        <ele>729.9</ele>
        <time>2021-05-08T11:28:36Z</time>
      </trkpt>
      <trkpt lat="46.65328" lon="5.93906">
        <ele>729.3</ele>
        <time>2021-05-08T11:28:41Z</time>
      </trkpt>
      <trkpt lat="46.65324" lon="5.93901">
        <ele>728.6</ele>
        <time>2021-05-08T11:28:47Z</time>
      </trkpt>
      <trkpt lat="46.65319" lon="5.93897">
        <ele>728</ele>
        <time>2021-05-08T11:28:52Z</time>
      </trkpt>
      <trkpt lat="46.65313" lon="5.93893">
        <ele>727.6</ele>
        <time>2021-05-08T11:28:56Z</time>
      </trkpt>
      <trkpt lat="46.65307" lon="5.93892">
        <ele>726.4</ele>
        <time>2021-05-08T11:29:00Z</time>
      </trkpt>
      <trkpt lat="46.65302" lon="5.93889">
        <ele>725.4</ele>
        <time>2021-05-08T11:29:05Z</time>
      </trkpt>
      <trkpt lat="46.65299" lon="5.93883">
        <ele>725.3</ele>
        <time>2021-05-08T11:29:10Z</time>
      </trkpt>
      <trkpt lat="46.65299" lon="5.93876">
        <ele>725.8</ele>
        <time>2021-05-08T11:29:18Z</time>
      </trkpt>
      <trkpt lat="46.653" lon="5.93869">
        <ele>726</ele>
        <time>2021-05-08T11:29:25Z</time>
      </trkpt>
      <trkpt lat="46.65295" lon="5.93865">
        <ele>729.4</ele>
        <time>2021-05-08T11:29:48Z</time>
      </trkpt>
      <trkpt lat="46.6529" lon="5.93865">
        <ele>729.5</ele>
        <time>2021-05-08T11:29:52Z</time>
      </trkpt>
      <trkpt lat="46.65284" lon="5.93864">
        <ele>729.6</ele>
        <time>2021-05-08T11:29:56Z</time>
      </trkpt>
      <trkpt lat="46.6528" lon="5.93863">
        <ele>729.6</ele>
        <time>2021-05-08T11:30:00Z</time>
      </trkpt>
      <trkpt lat="46.65275" lon="5.93861">
        <ele>729.8</ele>
        <time>2021-05-08T11:30:05Z</time>
      </trkpt>
      <trkpt lat="46.6527" lon="5.93859">
        <ele>729.8</ele>
        <time>2021-05-08T11:30:09Z</time>
      </trkpt>
      <trkpt lat="46.65266" lon="5.93855">
        <ele>729.5</ele>
        <time>2021-05-08T11:30:13Z</time>
      </trkpt>
      <trkpt lat="46.65262" lon="5.93851">
        <ele>729</ele>
        <time>2021-05-08T11:30:18Z</time>
      </trkpt>
      <trkpt lat="46.65259" lon="5.93846">
        <ele>728.7</ele>
        <time>2021-05-08T11:30:24Z</time>
      </trkpt>
      <trkpt lat="46.65254" lon="5.93844">
        <ele>728.5</ele>
        <time>2021-05-08T11:30:30Z</time>
      </trkpt>
      <trkpt lat="46.6525" lon="5.9384">
        <ele>728.3</ele>
        <time>2021-05-08T11:30:34Z</time>
      </trkpt>
      <trkpt lat="46.65245" lon="5.93836">
        <ele>728.1</ele>
        <time>2021-05-08T11:30:38Z</time>
      </trkpt>
      <trkpt lat="46.65241" lon="5.93833">
        <ele>728</ele>
        <time>2021-05-08T11:30:42Z</time>
      </trkpt>
      <trkpt lat="46.65237" lon="5.93828">
        <ele>728.2</ele>
        <time>2021-05-08T11:30:47Z</time>
      </trkpt>
      <trkpt lat="46.65234" lon="5.93823">
        <ele>728.4</ele>
        <time>2021-05-08T11:30:54Z</time>
      </trkpt>
      <trkpt lat="46.6523" lon="5.9382">
        <ele>729.2</ele>
        <time>2021-05-08T11:30:58Z</time>
      </trkpt>
      <trkpt lat="46.65225" lon="5.93814">
        <ele>731.1</ele>
        <time>2021-05-08T11:31:02Z</time>
      </trkpt>
      <trkpt lat="46.6522" lon="5.93811">
        <ele>732.5</ele>
        <time>2021-05-08T11:31:06Z</time>
      </trkpt>
      <trkpt lat="46.65216" lon="5.93807">
        <ele>733.3</ele>
        <time>2021-05-08T11:31:10Z</time>
      </trkpt>
      <trkpt lat="46.65211" lon="5.93803">
        <ele>733.8</ele>
        <time>2021-05-08T11:31:15Z</time>
      </trkpt>
      <trkpt lat="46.65207" lon="5.93799">
        <ele>734.1</ele>
        <time>2021-05-08T11:31:20Z</time>
      </trkpt>
      <trkpt lat="46.65204" lon="5.93794">
        <ele>734.3</ele>
        <time>2021-05-08T11:31:26Z</time>
      </trkpt>
      <trkpt lat="46.652" lon="5.9379">
        <ele>734.7</ele>
        <time>2021-05-08T11:31:33Z</time>
      </trkpt>
      <trkpt lat="46.65196" lon="5.93787">
        <ele>734.9</ele>
        <time>2021-05-08T11:31:38Z</time>
      </trkpt>
      <trkpt lat="46.65191" lon="5.93785">
        <ele>735</ele>
        <time>2021-05-08T11:31:43Z</time>
      </trkpt>
      <trkpt lat="46.65187" lon="5.93781">
        <ele>735.4</ele>
        <time>2021-05-08T11:31:48Z</time>
      </trkpt>
      <trkpt lat="46.65182" lon="5.93779">
        <ele>735.5</ele>
        <time>2021-05-08T11:31:53Z</time>
      </trkpt>
      <trkpt lat="46.65178" lon="5.93779">
        <ele>735</ele>
        <time>2021-05-08T11:31:59Z</time>
      </trkpt>
      <trkpt lat="46.65174" lon="5.93775">
        <ele>734.7</ele>
        <time>2021-05-08T11:32:03Z</time>
      </trkpt>
      <trkpt lat="46.6517" lon="5.93769">
        <ele>734.4</ele>
        <time>2021-05-08T11:32:07Z</time>
      </trkpt>
      <trkpt lat="46.65166" lon="5.93762">
        <ele>734</ele>
        <time>2021-05-08T11:32:12Z</time>
      </trkpt>
      <trkpt lat="46.65164" lon="5.93756">
        <ele>733.7</ele>
        <time>2021-05-08T11:32:16Z</time>
      </trkpt>
      <trkpt lat="46.65161" lon="5.9375">
        <ele>732.7</ele>
        <time>2021-05-08T11:32:20Z</time>
      </trkpt>
      <trkpt lat="46.65159" lon="5.93744">
        <ele>732.4</ele>
        <time>2021-05-08T11:32:25Z</time>
      </trkpt>
      <trkpt lat="46.65157" lon="5.93739">
        <ele>732.5</ele>
        <time>2021-05-08T11:32:29Z</time>
      </trkpt>
      <trkpt lat="46.65153" lon="5.93732">
        <ele>732.8</ele>
        <time>2021-05-08T11:32:33Z</time>
      </trkpt>
      <trkpt lat="46.6515" lon="5.93726">
        <ele>733</ele>
        <time>2021-05-08T11:32:38Z</time>
      </trkpt>
      <trkpt lat="46.65148" lon="5.9372">
        <ele>733.1</ele>
        <time>2021-05-08T11:32:42Z</time>
      </trkpt>
      <trkpt lat="46.65145" lon="5.93713">
        <ele>733.2</ele>
        <time>2021-05-08T11:32:46Z</time>
      </trkpt>
      <trkpt lat="46.65142" lon="5.93708">
        <ele>733.1</ele>
        <time>2021-05-08T11:32:50Z</time>
      </trkpt>
      <trkpt lat="46.65139" lon="5.93702">
        <ele>733.1</ele>
        <time>2021-05-08T11:32:54Z</time>
      </trkpt>
      <trkpt lat="46.65134" lon="5.93698">
        <ele>732.8</ele>
        <time>2021-05-08T11:32:59Z</time>
      </trkpt>
      <trkpt lat="46.65132" lon="5.93691">
        <ele>733.2</ele>
        <time>2021-05-08T11:33:04Z</time>
      </trkpt>
      <trkpt lat="46.65129" lon="5.93685">
        <ele>733.3</ele>
        <time>2021-05-08T11:33:08Z</time>
      </trkpt>
      <trkpt lat="46.65126" lon="5.9368">
        <ele>733</ele>
        <time>2021-05-08T11:33:12Z</time>
      </trkpt>
      <trkpt lat="46.65124" lon="5.93674">
        <ele>732.6</ele>
        <time>2021-05-08T11:33:18Z</time>
      </trkpt>
      <trkpt lat="46.65122" lon="5.93667">
        <ele>732.7</ele>
        <time>2021-05-08T11:33:22Z</time>
      </trkpt>
      <trkpt lat="46.65119" lon="5.93661">
        <ele>732.9</ele>
        <time>2021-05-08T11:33:26Z</time>
      </trkpt>
      <trkpt lat="46.65117" lon="5.93655">
        <ele>733.1</ele>
        <time>2021-05-08T11:33:41Z</time>
      </trkpt>
      <trkpt lat="46.65114" lon="5.9365">
        <ele>733.7</ele>
        <time>2021-05-08T11:33:45Z</time>
      </trkpt>
      <trkpt lat="46.65109" lon="5.93648">
        <ele>733.2</ele>
        <time>2021-05-08T11:33:49Z</time>
      </trkpt>
      <trkpt lat="46.65104" lon="5.93648">
        <ele>732.6</ele>
        <time>2021-05-08T11:33:53Z</time>
      </trkpt>
      <trkpt lat="46.65099" lon="5.93647">
        <ele>731.8</ele>
        <time>2021-05-08T11:33:58Z</time>
      </trkpt>
      <trkpt lat="46.65094" lon="5.93647">
        <ele>731.1</ele>
        <time>2021-05-08T11:34:04Z</time>
      </trkpt>
      <trkpt lat="46.65089" lon="5.93648">
        <ele>730.5</ele>
        <time>2021-05-08T11:34:08Z</time>
      </trkpt>
      <trkpt lat="46.65084" lon="5.9365">
        <ele>729.9</ele>
        <time>2021-05-08T11:34:12Z</time>
      </trkpt>
      <trkpt lat="46.65079" lon="5.93652">
        <ele>729.6</ele>
        <time>2021-05-08T11:34:16Z</time>
      </trkpt>
      <trkpt lat="46.65074" lon="5.93653">
        <ele>730</ele>
        <time>2021-05-08T11:34:20Z</time>
      </trkpt>
      <trkpt lat="46.65069" lon="5.93654">
        <ele>729.9</ele>
        <time>2021-05-08T11:34:25Z</time>
      </trkpt>
      <trkpt lat="46.65065" lon="5.93656">
        <ele>730.4</ele>
        <time>2021-05-08T11:34:29Z</time>
      </trkpt>
      <trkpt lat="46.65058" lon="5.93657">
        <ele>732.2</ele>
        <time>2021-05-08T11:34:33Z</time>
      </trkpt>
      <trkpt lat="46.65052" lon="5.93655">
        <ele>734.1</ele>
        <time>2021-05-08T11:34:37Z</time>
      </trkpt>
      <trkpt lat="46.65046" lon="5.93651">
        <ele>735.2</ele>
        <time>2021-05-08T11:34:41Z</time>
      </trkpt>
      <trkpt lat="46.65041" lon="5.9365">
        <ele>736</ele>
        <time>2021-05-08T11:34:45Z</time>
      </trkpt>
      <trkpt lat="46.65037" lon="5.93647">
        <ele>736.6</ele>
        <time>2021-05-08T11:34:51Z</time>
      </trkpt>
      <trkpt lat="46.65033" lon="5.93645">
        <ele>736.9</ele>
        <time>2021-05-08T11:34:56Z</time>
      </trkpt>
      <trkpt lat="46.65028" lon="5.93642">
        <ele>737.4</ele>
        <time>2021-05-08T11:35:01Z</time>
      </trkpt>
      <trkpt lat="46.65025" lon="5.93638">
        <ele>738</ele>
        <time>2021-05-08T11:35:06Z</time>
      </trkpt>
      <trkpt lat="46.6502" lon="5.93635">
        <ele>738.7</ele>
        <time>2021-05-08T11:35:11Z</time>
      </trkpt>
      <trkpt lat="46.65015" lon="5.93634">
        <ele>739.2</ele>
        <time>2021-05-08T11:35:17Z</time>
      </trkpt>
      <trkpt lat="46.65011" lon="5.93634">
        <ele>739</ele>
        <time>2021-05-08T11:35:22Z</time>
      </trkpt>
      <trkpt lat="46.65006" lon="5.93634">
        <ele>738.1</ele>
        <time>2021-05-08T11:35:28Z</time>
      </trkpt>
      <trkpt lat="46.65002" lon="5.93639">
        <ele>737</ele>
        <time>2021-05-08T11:35:34Z</time>
      </trkpt>
      <trkpt lat="46.64998" lon="5.93642">
        <ele>736.5</ele>
        <time>2021-05-08T11:35:38Z</time>
      </trkpt>
      <trkpt lat="46.64992" lon="5.93642">
        <ele>735.8</ele>
        <time>2021-05-08T11:35:43Z</time>
      </trkpt>
      <trkpt lat="46.64986" lon="5.93643">
        <ele>735.8</ele>
        <time>2021-05-08T11:35:47Z</time>
      </trkpt>
      <trkpt lat="46.64981" lon="5.93644">
        <ele>735.8</ele>
        <time>2021-05-08T11:35:51Z</time>
      </trkpt>
      <trkpt lat="46.64976" lon="5.93642">
        <ele>735.9</ele>
        <time>2021-05-08T11:35:56Z</time>
      </trkpt>
      <trkpt lat="46.64971" lon="5.93642">
        <ele>736</ele>
        <time>2021-05-08T11:36:00Z</time>
      </trkpt>
      <trkpt lat="46.64966" lon="5.93641">
        <ele>736</ele>
        <time>2021-05-08T11:36:05Z</time>
      </trkpt>
      <trkpt lat="46.64961" lon="5.9364">
        <ele>736.1</ele>
        <time>2021-05-08T11:36:09Z</time>
      </trkpt>
      <trkpt lat="46.64956" lon="5.93639">
        <ele>736.4</ele>
        <time>2021-05-08T11:36:14Z</time>
      </trkpt>
      <trkpt lat="46.64951" lon="5.93637">
        <ele>736.7</ele>
        <time>2021-05-08T11:36:19Z</time>
      </trkpt>
      <trkpt lat="46.64946" lon="5.93637">
        <ele>736.6</ele>
        <time>2021-05-08T11:36:24Z</time>
      </trkpt>
      <trkpt lat="46.64941" lon="5.93638">
        <ele>736.6</ele>
        <time>2021-05-08T11:36:28Z</time>
      </trkpt>
      <trkpt lat="46.64936" lon="5.93637">
        <ele>736.9</ele>
        <time>2021-05-08T11:36:32Z</time>
      </trkpt>
      <trkpt lat="46.6493" lon="5.93637">
        <ele>737</ele>
        <time>2021-05-08T11:36:36Z</time>
      </trkpt>
      <trkpt lat="46.64925" lon="5.93639">
        <ele>736.8</ele>
        <time>2021-05-08T11:36:40Z</time>
      </trkpt>
      <trkpt lat="46.6492" lon="5.93639">
        <ele>736.7</ele>
        <time>2021-05-08T11:36:45Z</time>
      </trkpt>
      <trkpt lat="46.64915" lon="5.93637">
        <ele>736.9</ele>
        <time>2021-05-08T11:36:51Z</time>
      </trkpt>
      <trkpt lat="46.6491" lon="5.93634">
        <ele>736.8</ele>
        <time>2021-05-08T11:36:56Z</time>
      </trkpt>
      <trkpt lat="46.64905" lon="5.93634">
        <ele>736.8</ele>
        <time>2021-05-08T11:37:01Z</time>
      </trkpt>
      <trkpt lat="46.649" lon="5.93631">
        <ele>737.1</ele>
        <time>2021-05-08T11:37:06Z</time>
      </trkpt>
      <trkpt lat="46.64896" lon="5.93627">
        <ele>737.2</ele>
        <time>2021-05-08T11:37:12Z</time>
      </trkpt>
      <trkpt lat="46.64891" lon="5.93624">
        <ele>736.8</ele>
        <time>2021-05-08T11:37:17Z</time>
      </trkpt>
      <trkpt lat="46.64887" lon="5.9362">
        <ele>736.2</ele>
        <time>2021-05-08T11:37:21Z</time>
      </trkpt>
      <trkpt lat="46.64883" lon="5.93616">
        <ele>735.3</ele>
        <time>2021-05-08T11:37:26Z</time>
      </trkpt>
      <trkpt lat="46.64878" lon="5.93613">
        <ele>734.2</ele>
        <time>2021-05-08T11:37:32Z</time>
      </trkpt>
      <trkpt lat="46.64875" lon="5.93607">
        <ele>733.2</ele>
        <time>2021-05-08T11:37:37Z</time>
      </trkpt>
      <trkpt lat="46.64873" lon="5.93601">
        <ele>732.9</ele>
        <time>2021-05-08T11:37:41Z</time>
      </trkpt>
      <trkpt lat="46.64869" lon="5.93596">
        <ele>732.1</ele>
        <time>2021-05-08T11:37:45Z</time>
      </trkpt>
      <trkpt lat="46.64866" lon="5.93592">
        <ele>731.2</ele>
        <time>2021-05-08T11:37:49Z</time>
      </trkpt>
      <trkpt lat="46.64861" lon="5.93586">
        <ele>730.4</ele>
        <time>2021-05-08T11:37:53Z</time>
      </trkpt>
      <trkpt lat="46.64856" lon="5.93581">
        <ele>729.6</ele>
        <time>2021-05-08T11:37:57Z</time>
      </trkpt>
      <trkpt lat="46.64852" lon="5.93577">
        <ele>729</ele>
        <time>2021-05-08T11:38:02Z</time>
      </trkpt>
      <trkpt lat="46.64848" lon="5.93572">
        <ele>728.6</ele>
        <time>2021-05-08T11:38:06Z</time>
      </trkpt>
      <trkpt lat="46.64845" lon="5.93568">
        <ele>728.1</ele>
        <time>2021-05-08T11:38:10Z</time>
      </trkpt>
      <trkpt lat="46.6484" lon="5.93565">
        <ele>727.2</ele>
        <time>2021-05-08T11:38:16Z</time>
      </trkpt>
      <trkpt lat="46.64837" lon="5.9356">
        <ele>726.3</ele>
        <time>2021-05-08T11:38:22Z</time>
      </trkpt>
      <trkpt lat="46.64832" lon="5.93557">
        <ele>725.6</ele>
        <time>2021-05-08T11:38:26Z</time>
      </trkpt>
      <trkpt lat="46.64828" lon="5.93554">
        <ele>724.9</ele>
        <time>2021-05-08T11:38:30Z</time>
      </trkpt>
      <trkpt lat="46.64823" lon="5.93551">
        <ele>724.3</ele>
        <time>2021-05-08T11:38:35Z</time>
      </trkpt>
      <trkpt lat="46.64818" lon="5.93551">
        <ele>724</ele>
        <time>2021-05-08T11:38:40Z</time>
      </trkpt>
      <trkpt lat="46.64813" lon="5.9355">
        <ele>723.9</ele>
        <time>2021-05-08T11:38:45Z</time>
      </trkpt>
      <trkpt lat="46.64809" lon="5.93545">
        <ele>723.6</ele>
        <time>2021-05-08T11:38:50Z</time>
      </trkpt>
      <trkpt lat="46.64804" lon="5.93542">
        <ele>722.9</ele>
        <time>2021-05-08T11:38:57Z</time>
      </trkpt>
      <trkpt lat="46.64801" lon="5.93539">
        <ele>722.6</ele>
        <time>2021-05-08T11:39:01Z</time>
      </trkpt>
      <trkpt lat="46.64796" lon="5.93536">
        <ele>722.1</ele>
        <time>2021-05-08T11:39:07Z</time>
      </trkpt>
      <trkpt lat="46.64786" lon="5.93541">
        <ele>721.4</ele>
        <time>2021-05-08T11:39:12Z</time>
      </trkpt>
      <trkpt lat="46.64778" lon="5.93545">
        <ele>720.8</ele>
        <time>2021-05-08T11:39:16Z</time>
      </trkpt>
      <trkpt lat="46.64773" lon="5.93544">
        <ele>720.3</ele>
        <time>2021-05-08T11:39:20Z</time>
      </trkpt>
      <trkpt lat="46.64768" lon="5.93542">
        <ele>720</ele>
        <time>2021-05-08T11:39:25Z</time>
      </trkpt>
      <trkpt lat="46.64765" lon="5.93538">
        <ele>719.8</ele>
        <time>2021-05-08T11:39:30Z</time>
      </trkpt>
      <trkpt lat="46.64761" lon="5.93534">
        <ele>719.8</ele>
        <time>2021-05-08T11:39:35Z</time>
      </trkpt>
      <trkpt lat="46.64756" lon="5.9353">
        <ele>720.2</ele>
        <time>2021-05-08T11:39:40Z</time>
      </trkpt>
      <trkpt lat="46.64751" lon="5.93527">
        <ele>720.6</ele>
        <time>2021-05-08T11:39:44Z</time>
      </trkpt>
      <trkpt lat="46.64746" lon="5.93522">
        <ele>721.6</ele>
        <time>2021-05-08T11:39:48Z</time>
      </trkpt>
      <trkpt lat="46.64741" lon="5.93518">
        <ele>722.4</ele>
        <time>2021-05-08T11:39:53Z</time>
      </trkpt>
      <trkpt lat="46.64736" lon="5.93515">
        <ele>723</ele>
        <time>2021-05-08T11:39:58Z</time>
      </trkpt>
      <trkpt lat="46.64731" lon="5.93515">
        <ele>723.5</ele>
        <time>2021-05-08T11:40:02Z</time>
      </trkpt>
      <trkpt lat="46.64726" lon="5.93513">
        <ele>724.1</ele>
        <time>2021-05-08T11:40:08Z</time>
      </trkpt>
      <trkpt lat="46.64721" lon="5.93513">
        <ele>724.7</ele>
        <time>2021-05-08T11:40:12Z</time>
      </trkpt>
      <trkpt lat="46.64716" lon="5.93513">
        <ele>725.8</ele>
        <time>2021-05-08T11:40:17Z</time>
      </trkpt>
      <trkpt lat="46.64711" lon="5.93512">
        <ele>726.7</ele>
        <time>2021-05-08T11:40:21Z</time>
      </trkpt>
      <trkpt lat="46.64707" lon="5.9351">
        <ele>727.2</ele>
        <time>2021-05-08T11:40:25Z</time>
      </trkpt>
      <trkpt lat="46.64702" lon="5.93508">
        <ele>727.2</ele>
        <time>2021-05-08T11:40:29Z</time>
      </trkpt>
      <trkpt lat="46.64697" lon="5.93507">
        <ele>727.2</ele>
        <time>2021-05-08T11:40:36Z</time>
      </trkpt>
      <trkpt lat="46.64692" lon="5.93506">
        <ele>727</ele>
        <time>2021-05-08T11:40:41Z</time>
      </trkpt>
      <trkpt lat="46.64687" lon="5.93505">
        <ele>726.8</ele>
        <time>2021-05-08T11:40:46Z</time>
      </trkpt>
      <trkpt lat="46.64682" lon="5.93503">
        <ele>726.4</ele>
        <time>2021-05-08T11:40:52Z</time>
      </trkpt>
      <trkpt lat="46.64675" lon="5.93501">
        <ele>725.8</ele>
        <time>2021-05-08T11:40:56Z</time>
      </trkpt>
      <trkpt lat="46.64667" lon="5.93498">
        <ele>725.4</ele>
        <time>2021-05-08T11:41:00Z</time>
      </trkpt>
      <trkpt lat="46.64661" lon="5.93496">
        <ele>725.2</ele>
        <time>2021-05-08T11:41:04Z</time>
      </trkpt>
      <trkpt lat="46.64657" lon="5.93492">
        <ele>725.1</ele>
        <time>2021-05-08T11:41:08Z</time>
      </trkpt>
      <trkpt lat="46.64653" lon="5.93489">
        <ele>725.1</ele>
        <time>2021-05-08T11:41:12Z</time>
      </trkpt>
      <trkpt lat="46.64648" lon="5.93484">
        <ele>725.4</ele>
        <time>2021-05-08T11:41:17Z</time>
      </trkpt>
      <trkpt lat="46.64644" lon="5.93481">
        <ele>725.9</ele>
        <time>2021-05-08T11:41:22Z</time>
      </trkpt>
      <trkpt lat="46.6464" lon="5.93476">
        <ele>726.5</ele>
        <time>2021-05-08T11:41:28Z</time>
      </trkpt>
      <trkpt lat="46.64636" lon="5.93471">
        <ele>726.7</ele>
        <time>2021-05-08T11:41:32Z</time>
      </trkpt>
      <trkpt lat="46.64631" lon="5.93468">
        <ele>726.5</ele>
        <time>2021-05-08T11:41:37Z</time>
      </trkpt>
      <trkpt lat="46.64626" lon="5.93465">
        <ele>726.3</ele>
        <time>2021-05-08T11:41:43Z</time>
      </trkpt>
      <trkpt lat="46.64622" lon="5.93462">
        <ele>726.5</ele>
        <time>2021-05-08T11:41:48Z</time>
      </trkpt>
      <trkpt lat="46.64617" lon="5.9346">
        <ele>727.1</ele>
        <time>2021-05-08T11:41:52Z</time>
      </trkpt>
      <trkpt lat="46.64613" lon="5.93456">
        <ele>727.8</ele>
        <time>2021-05-08T11:41:56Z</time>
      </trkpt>
      <trkpt lat="46.64607" lon="5.93455">
        <ele>729.3</ele>
        <time>2021-05-08T11:42:00Z</time>
      </trkpt>
      <trkpt lat="46.64603" lon="5.93453">
        <ele>731.2</ele>
        <time>2021-05-08T11:42:04Z</time>
      </trkpt>
      <trkpt lat="46.64598" lon="5.93451">
        <ele>732.5</ele>
        <time>2021-05-08T11:42:08Z</time>
      </trkpt>
      <trkpt lat="46.64591" lon="5.9345">
        <ele>733.7</ele>
        <time>2021-05-08T11:42:12Z</time>
      </trkpt>
      <trkpt lat="46.64586" lon="5.9345">
        <ele>734.7</ele>
        <time>2021-05-08T11:42:17Z</time>
      </trkpt>
      <trkpt lat="46.64581" lon="5.93452">
        <ele>735.1</ele>
        <time>2021-05-08T11:42:22Z</time>
      </trkpt>
      <trkpt lat="46.64577" lon="5.93451">
        <ele>735.5</ele>
        <time>2021-05-08T11:42:27Z</time>
      </trkpt>
      <trkpt lat="46.64571" lon="5.93452">
        <ele>735.8</ele>
        <time>2021-05-08T11:42:34Z</time>
      </trkpt>
      <trkpt lat="46.64567" lon="5.93451">
        <ele>735.9</ele>
        <time>2021-05-08T11:42:38Z</time>
      </trkpt>
      <trkpt lat="46.64562" lon="5.93449">
        <ele>735.8</ele>
        <time>2021-05-08T11:42:42Z</time>
      </trkpt>
      <trkpt lat="46.64557" lon="5.93446">
        <ele>735.6</ele>
        <time>2021-05-08T11:42:47Z</time>
      </trkpt>
      <trkpt lat="46.64552" lon="5.93444">
        <ele>735.4</ele>
        <time>2021-05-08T11:42:52Z</time>
      </trkpt>
      <trkpt lat="46.64547" lon="5.9344">
        <ele>735.9</ele>
        <time>2021-05-08T11:42:56Z</time>
      </trkpt>
      <trkpt lat="46.64542" lon="5.93439">
        <ele>736.5</ele>
        <time>2021-05-08T11:43:01Z</time>
      </trkpt>
      <trkpt lat="46.64537" lon="5.93442">
        <ele>736.6</ele>
        <time>2021-05-08T11:43:06Z</time>
      </trkpt>
      <trkpt lat="46.64533" lon="5.93443">
        <ele>736.6</ele>
        <time>2021-05-08T11:43:10Z</time>
      </trkpt>
      <trkpt lat="46.64528" lon="5.93444">
        <ele>736.5</ele>
        <time>2021-05-08T11:43:15Z</time>
      </trkpt>
      <trkpt lat="46.64523" lon="5.93444">
        <ele>735.5</ele>
        <time>2021-05-08T11:43:21Z</time>
      </trkpt>
      <trkpt lat="46.64517" lon="5.93443">
        <ele>734.9</ele>
        <time>2021-05-08T11:43:25Z</time>
      </trkpt>
      <trkpt lat="46.64512" lon="5.93443">
        <ele>734.7</ele>
        <time>2021-05-08T11:43:29Z</time>
      </trkpt>
      <trkpt lat="46.64507" lon="5.93444">
        <ele>734.7</ele>
        <time>2021-05-08T11:43:33Z</time>
      </trkpt>
      <trkpt lat="46.64503" lon="5.93446">
        <ele>734.8</ele>
        <time>2021-05-08T11:43:39Z</time>
      </trkpt>
      <trkpt lat="46.64498" lon="5.93451">
        <ele>734.7</ele>
        <time>2021-05-08T11:43:44Z</time>
      </trkpt>
      <trkpt lat="46.64494" lon="5.93455">
        <ele>734.8</ele>
        <time>2021-05-08T11:43:48Z</time>
      </trkpt>
      <trkpt lat="46.64489" lon="5.93453">
        <ele>734.5</ele>
        <time>2021-05-08T11:43:53Z</time>
      </trkpt>
      <trkpt lat="46.64483" lon="5.93453">
        <ele>734.1</ele>
        <time>2021-05-08T11:43:58Z</time>
      </trkpt>
      <trkpt lat="46.64479" lon="5.93452">
        <ele>733.4</ele>
        <time>2021-05-08T11:44:03Z</time>
      </trkpt>
      <trkpt lat="46.64474" lon="5.9345">
        <ele>732.8</ele>
        <time>2021-05-08T11:44:08Z</time>
      </trkpt>
      <trkpt lat="46.64469" lon="5.93449">
        <ele>732.4</ele>
        <time>2021-05-08T11:44:12Z</time>
      </trkpt>
      <trkpt lat="46.64464" lon="5.93448">
        <ele>731.7</ele>
        <time>2021-05-08T11:44:16Z</time>
      </trkpt>
      <trkpt lat="46.64459" lon="5.93447">
        <ele>731</ele>
        <time>2021-05-08T11:44:20Z</time>
      </trkpt>
      <trkpt lat="46.64455" lon="5.93445">
        <ele>729.1</ele>
        <time>2021-05-08T11:44:26Z</time>
      </trkpt>
      <trkpt lat="46.6445" lon="5.93443">
        <ele>727.5</ele>
        <time>2021-05-08T11:44:31Z</time>
      </trkpt>
      <trkpt lat="46.64447" lon="5.93448">
        <ele>726.4</ele>
        <time>2021-05-08T11:45:20Z</time>
      </trkpt>
      <trkpt lat="46.64442" lon="5.93449">
        <ele>727.5</ele>
        <time>2021-05-08T11:45:24Z</time>
      </trkpt>
      <trkpt lat="46.64437" lon="5.9345">
        <ele>729.7</ele>
        <time>2021-05-08T11:45:32Z</time>
      </trkpt>
      <trkpt lat="46.64433" lon="5.93449">
        <ele>728.1</ele>
        <time>2021-05-08T11:46:19Z</time>
      </trkpt>
      <trkpt lat="46.6443" lon="5.93444">
        <ele>728.1</ele>
        <time>2021-05-08T11:46:26Z</time>
      </trkpt>
      <trkpt lat="46.64427" lon="5.9344">
        <ele>728</ele>
        <time>2021-05-08T11:46:32Z</time>
      </trkpt>
      <trkpt lat="46.64422" lon="5.93438">
        <ele>727.7</ele>
        <time>2021-05-08T11:46:38Z</time>
      </trkpt>
      <trkpt lat="46.64417" lon="5.93437">
        <ele>727.2</ele>
        <time>2021-05-08T11:46:48Z</time>
      </trkpt>
      <trkpt lat="46.64413" lon="5.93435">
        <ele>727.1</ele>
        <time>2021-05-08T11:46:55Z</time>
      </trkpt>
      <trkpt lat="46.64408" lon="5.93433">
        <ele>726.9</ele>
        <time>2021-05-08T11:47:00Z</time>
      </trkpt>
      <trkpt lat="46.64403" lon="5.93433">
        <ele>726.7</ele>
        <time>2021-05-08T11:47:05Z</time>
      </trkpt>
      <trkpt lat="46.64398" lon="5.93435">
        <ele>726.9</ele>
        <time>2021-05-08T11:47:10Z</time>
      </trkpt>
      <trkpt lat="46.64393" lon="5.93435">
        <ele>727.3</ele>
        <time>2021-05-08T11:47:15Z</time>
      </trkpt>
      <trkpt lat="46.64388" lon="5.93435">
        <ele>727.2</ele>
        <time>2021-05-08T11:47:20Z</time>
      </trkpt>
      <trkpt lat="46.64383" lon="5.93434">
        <ele>727.2</ele>
        <time>2021-05-08T11:47:24Z</time>
      </trkpt>
      <trkpt lat="46.64378" lon="5.93431">
        <ele>727.2</ele>
        <time>2021-05-08T11:47:30Z</time>
      </trkpt>
      <trkpt lat="46.64374" lon="5.93429">
        <ele>727.1</ele>
        <time>2021-05-08T11:47:35Z</time>
      </trkpt>
      <trkpt lat="46.64361" lon="5.93432">
        <ele>731.6</ele>
        <time>2021-05-08T11:47:39Z</time>
      </trkpt>
      <trkpt lat="46.64357" lon="5.93433">
        <ele>734.2</ele>
        <time>2021-05-08T11:47:43Z</time>
      </trkpt>
      <trkpt lat="46.64352" lon="5.93432">
        <ele>735.6</ele>
        <time>2021-05-08T11:47:50Z</time>
      </trkpt>
      <trkpt lat="46.64348" lon="5.9343">
        <ele>735.7</ele>
        <time>2021-05-08T11:47:57Z</time>
      </trkpt>
      <trkpt lat="46.64343" lon="5.93428">
        <ele>735.4</ele>
        <time>2021-05-08T11:48:02Z</time>
      </trkpt>
      <trkpt lat="46.64338" lon="5.93428">
        <ele>735</ele>
        <time>2021-05-08T11:48:08Z</time>
      </trkpt>
      <trkpt lat="46.64333" lon="5.9343">
        <ele>734.5</ele>
        <time>2021-05-08T11:48:14Z</time>
      </trkpt>
      <trkpt lat="46.64328" lon="5.93431">
        <ele>734.1</ele>
        <time>2021-05-08T11:48:20Z</time>
      </trkpt>
      <trkpt lat="46.64323" lon="5.93434">
        <ele>732.7</ele>
        <time>2021-05-08T11:48:25Z</time>
      </trkpt>
      <trkpt lat="46.64319" lon="5.93439">
        <ele>731.9</ele>
        <time>2021-05-08T11:48:30Z</time>
      </trkpt>
      <trkpt lat="46.64318" lon="5.93446">
        <ele>732.1</ele>
        <time>2021-05-08T11:48:35Z</time>
      </trkpt>
      <trkpt lat="46.64317" lon="5.93453">
        <ele>732.3</ele>
        <time>2021-05-08T11:48:39Z</time>
      </trkpt>
      <trkpt lat="46.64316" lon="5.9346">
        <ele>732.4</ele>
        <time>2021-05-08T11:48:43Z</time>
      </trkpt>
      <trkpt lat="46.64314" lon="5.93467">
        <ele>732.7</ele>
        <time>2021-05-08T11:48:47Z</time>
      </trkpt>
      <trkpt lat="46.64314" lon="5.93474">
        <ele>733</ele>
        <time>2021-05-08T11:48:51Z</time>
      </trkpt>
      <trkpt lat="46.64313" lon="5.93481">
        <ele>733.3</ele>
        <time>2021-05-08T11:48:55Z</time>
      </trkpt>
      <trkpt lat="46.64312" lon="5.93488">
        <ele>733.4</ele>
        <time>2021-05-08T11:48:59Z</time>
      </trkpt>
      <trkpt lat="46.64311" lon="5.93494">
        <ele>733.3</ele>
        <time>2021-05-08T11:49:03Z</time>
      </trkpt>
      <trkpt lat="46.64307" lon="5.935">
        <ele>733.2</ele>
        <time>2021-05-08T11:49:07Z</time>
      </trkpt>
      <trkpt lat="46.64303" lon="5.93505">
        <ele>733.1</ele>
        <time>2021-05-08T11:49:12Z</time>
      </trkpt>
      <trkpt lat="46.643" lon="5.93509">
        <ele>732.9</ele>
        <time>2021-05-08T11:49:21Z</time>
      </trkpt>
      <trkpt lat="46.64295" lon="5.93509">
        <ele>732.7</ele>
        <time>2021-05-08T11:49:29Z</time>
      </trkpt>
      <trkpt lat="46.64291" lon="5.93505">
        <ele>732.8</ele>
        <time>2021-05-08T11:49:34Z</time>
      </trkpt>
      <trkpt lat="46.64286" lon="5.93502">
        <ele>734</ele>
        <time>2021-05-08T11:49:38Z</time>
      </trkpt>
      <trkpt lat="46.64281" lon="5.93499">
        <ele>735.6</ele>
        <time>2021-05-08T11:49:45Z</time>
      </trkpt>
      <trkpt lat="46.64276" lon="5.93498">
        <ele>736.2</ele>
        <time>2021-05-08T11:49:50Z</time>
      </trkpt>
      <trkpt lat="46.64272" lon="5.93495">
        <ele>736.6</ele>
        <time>2021-05-08T11:49:56Z</time>
      </trkpt>
      <trkpt lat="46.64268" lon="5.93491">
        <ele>736.9</ele>
        <time>2021-05-08T11:50:02Z</time>
      </trkpt>
      <trkpt lat="46.64263" lon="5.93489">
        <ele>737.3</ele>
        <time>2021-05-08T11:50:08Z</time>
      </trkpt>
      <trkpt lat="46.64258" lon="5.93487">
        <ele>737.5</ele>
        <time>2021-05-08T11:50:12Z</time>
      </trkpt>
      <trkpt lat="46.64252" lon="5.93485">
        <ele>737.6</ele>
        <time>2021-05-08T11:50:16Z</time>
      </trkpt>
      <trkpt lat="46.64247" lon="5.93484">
        <ele>737.5</ele>
        <time>2021-05-08T11:50:20Z</time>
      </trkpt>
      <trkpt lat="46.64242" lon="5.93484">
        <ele>737.5</ele>
        <time>2021-05-08T11:50:24Z</time>
      </trkpt>
      <trkpt lat="46.64234" lon="5.93484">
        <ele>738</ele>
        <time>2021-05-08T11:50:28Z</time>
      </trkpt>
      <trkpt lat="46.64228" lon="5.93483">
        <ele>739.3</ele>
        <time>2021-05-08T11:50:32Z</time>
      </trkpt>
      <trkpt lat="46.64223" lon="5.9348">
        <ele>740.9</ele>
        <time>2021-05-08T11:50:36Z</time>
      </trkpt>
      <trkpt lat="46.64219" lon="5.93476">
        <ele>742.2</ele>
        <time>2021-05-08T11:50:41Z</time>
      </trkpt>
      <trkpt lat="46.64215" lon="5.93473">
        <ele>743.7</ele>
        <time>2021-05-08T11:50:46Z</time>
      </trkpt>
      <trkpt lat="46.64211" lon="5.93468">
        <ele>745.1</ele>
        <time>2021-05-08T11:50:51Z</time>
      </trkpt>
      <trkpt lat="46.64208" lon="5.93464">
        <ele>746.8</ele>
        <time>2021-05-08T11:50:55Z</time>
      </trkpt>
      <trkpt lat="46.64204" lon="5.93458">
        <ele>748.9</ele>
        <time>2021-05-08T11:50:59Z</time>
      </trkpt>
      <trkpt lat="46.64201" lon="5.93451">
        <ele>750.5</ele>
        <time>2021-05-08T11:51:03Z</time>
      </trkpt>
      <trkpt lat="46.64199" lon="5.93446">
        <ele>752.2</ele>
        <time>2021-05-08T11:51:07Z</time>
      </trkpt>
      <trkpt lat="46.64195" lon="5.93439">
        <ele>753.3</ele>
        <time>2021-05-08T11:51:11Z</time>
      </trkpt>
      <trkpt lat="46.64192" lon="5.93433">
        <ele>754.8</ele>
        <time>2021-05-08T11:51:16Z</time>
      </trkpt>
      <trkpt lat="46.64189" lon="5.93428">
        <ele>756.8</ele>
        <time>2021-05-08T11:51:23Z</time>
      </trkpt>
      <trkpt lat="46.64185" lon="5.93422">
        <ele>758.6</ele>
        <time>2021-05-08T11:51:30Z</time>
      </trkpt>
      <trkpt lat="46.64183" lon="5.93416">
        <ele>759.3</ele>
        <time>2021-05-08T11:51:34Z</time>
      </trkpt>
      <trkpt lat="46.64179" lon="5.93409">
        <ele>760.2</ele>
        <time>2021-05-08T11:51:39Z</time>
      </trkpt>
      <trkpt lat="46.64175" lon="5.93401">
        <ele>761</ele>
        <time>2021-05-08T11:51:43Z</time>
      </trkpt>
      <trkpt lat="46.64171" lon="5.93396">
        <ele>761.4</ele>
        <time>2021-05-08T11:51:47Z</time>
      </trkpt>
      <trkpt lat="46.64168" lon="5.93392">
        <ele>761.4</ele>
        <time>2021-05-08T11:51:52Z</time>
      </trkpt>
      <trkpt lat="46.64164" lon="5.93387">
        <ele>761.6</ele>
        <time>2021-05-08T11:51:58Z</time>
      </trkpt>
      <trkpt lat="46.64161" lon="5.93382">
        <ele>761.8</ele>
        <time>2021-05-08T11:52:09Z</time>
      </trkpt>
      <trkpt lat="46.64156" lon="5.93381">
        <ele>763.3</ele>
        <time>2021-05-08T11:52:13Z</time>
      </trkpt>
      <trkpt lat="46.64151" lon="5.9338">
        <ele>764.6</ele>
        <time>2021-05-08T11:52:21Z</time>
      </trkpt>
      <trkpt lat="46.64147" lon="5.93377">
        <ele>764.7</ele>
        <time>2021-05-08T11:52:27Z</time>
      </trkpt>
      <trkpt lat="46.64142" lon="5.93374">
        <ele>764.2</ele>
        <time>2021-05-08T11:52:33Z</time>
      </trkpt>
      <trkpt lat="46.64138" lon="5.93372">
        <ele>763.5</ele>
        <time>2021-05-08T11:52:38Z</time>
      </trkpt>
      <trkpt lat="46.64133" lon="5.93368">
        <ele>762.7</ele>
        <time>2021-05-08T11:52:44Z</time>
      </trkpt>
      <trkpt lat="46.6413" lon="5.93364">
        <ele>762.2</ele>
        <time>2021-05-08T11:52:50Z</time>
      </trkpt>
      <trkpt lat="46.64124" lon="5.93361">
        <ele>762.5</ele>
        <time>2021-05-08T11:52:54Z</time>
      </trkpt>
      <trkpt lat="46.64119" lon="5.93359">
        <ele>762.7</ele>
        <time>2021-05-08T11:52:59Z</time>
      </trkpt>
      <trkpt lat="46.64114" lon="5.93357">
        <ele>763.1</ele>
        <time>2021-05-08T11:53:04Z</time>
      </trkpt>
      <trkpt lat="46.64109" lon="5.93357">
        <ele>764</ele>
        <time>2021-05-08T11:53:08Z</time>
      </trkpt>
      <trkpt lat="46.64104" lon="5.93357">
        <ele>764.5</ele>
        <time>2021-05-08T11:53:14Z</time>
      </trkpt>
      <trkpt lat="46.64099" lon="5.93359">
        <ele>764.3</ele>
        <time>2021-05-08T11:53:20Z</time>
      </trkpt>
      <trkpt lat="46.64096" lon="5.93364">
        <ele>763.5</ele>
        <time>2021-05-08T11:53:25Z</time>
      </trkpt>
      <trkpt lat="46.64092" lon="5.93369">
        <ele>763.3</ele>
        <time>2021-05-08T11:53:29Z</time>
      </trkpt>
      <trkpt lat="46.64088" lon="5.93375">
        <ele>763.2</ele>
        <time>2021-05-08T11:53:34Z</time>
      </trkpt>
      <trkpt lat="46.64085" lon="5.9338">
        <ele>762.7</ele>
        <time>2021-05-08T11:53:45Z</time>
      </trkpt>
      <trkpt lat="46.64078" lon="5.9338">
        <ele>762</ele>
        <time>2021-05-08T11:53:51Z</time>
      </trkpt>
      <trkpt lat="46.6407" lon="5.93383">
        <ele>760.6</ele>
        <time>2021-05-08T11:53:55Z</time>
      </trkpt>
      <trkpt lat="46.64065" lon="5.93387">
        <ele>758.1</ele>
        <time>2021-05-08T11:53:59Z</time>
      </trkpt>
      <trkpt lat="46.64062" lon="5.9339">
        <ele>754.3</ele>
        <time>2021-05-08T11:54:04Z</time>
      </trkpt>
      <trkpt lat="46.64057" lon="5.93403">
        <ele>751.4</ele>
        <time>2021-05-08T11:54:08Z</time>
      </trkpt>
      <trkpt lat="46.64055" lon="5.93414">
        <ele>750</ele>
        <time>2021-05-08T11:54:12Z</time>
      </trkpt>
      <trkpt lat="46.64054" lon="5.9342">
        <ele>749.5</ele>
        <time>2021-05-08T11:54:16Z</time>
      </trkpt>
      <trkpt lat="46.64052" lon="5.93427">
        <ele>749.9</ele>
        <time>2021-05-08T11:54:22Z</time>
      </trkpt>
      <trkpt lat="46.64047" lon="5.93433">
        <ele>751.2</ele>
        <time>2021-05-08T11:54:26Z</time>
      </trkpt>
      <trkpt lat="46.64041" lon="5.9344">
        <ele>752.4</ele>
        <time>2021-05-08T11:54:30Z</time>
      </trkpt>
      <trkpt lat="46.64037" lon="5.93444">
        <ele>754.3</ele>
        <time>2021-05-08T11:54:34Z</time>
      </trkpt>
      <trkpt lat="46.64033" lon="5.93448">
        <ele>756.7</ele>
        <time>2021-05-08T11:54:39Z</time>
      </trkpt>
      <trkpt lat="46.64029" lon="5.93453">
        <ele>759.3</ele>
        <time>2021-05-08T11:54:44Z</time>
      </trkpt>
      <trkpt lat="46.64027" lon="5.9346">
        <ele>762.1</ele>
        <time>2021-05-08T11:54:49Z</time>
      </trkpt>
      <trkpt lat="46.64022" lon="5.93466">
        <ele>764.4</ele>
        <time>2021-05-08T11:54:53Z</time>
      </trkpt>
      <trkpt lat="46.64019" lon="5.9347">
        <ele>767</ele>
        <time>2021-05-08T11:54:58Z</time>
      </trkpt>
      <trkpt lat="46.64014" lon="5.9347">
        <ele>768.8</ele>
        <time>2021-05-08T11:55:03Z</time>
      </trkpt>
      <trkpt lat="46.64011" lon="5.93465">
        <ele>771.5</ele>
        <time>2021-05-08T11:55:11Z</time>
      </trkpt>
      <trkpt lat="46.64014" lon="5.9346">
        <ele>772.6</ele>
        <time>2021-05-08T11:55:17Z</time>
      </trkpt>
      <trkpt lat="46.64018" lon="5.93461">
        <ele>766.9</ele>
        <time>2021-05-08T11:55:56Z</time>
      </trkpt>
      <trkpt lat="46.64017" lon="5.93455">
        <ele>764.9</ele>
        <time>2021-05-08T11:56:07Z</time>
      </trkpt>
      <trkpt lat="46.64011" lon="5.93454">
        <ele>761.7</ele>
        <time>2021-05-08T11:56:38Z</time>
      </trkpt>
      <trkpt lat="46.6401" lon="5.93447">
        <ele>761.3</ele>
        <time>2021-05-08T11:56:42Z</time>
      </trkpt>
      <trkpt lat="46.64013" lon="5.93441">
        <ele>758.7</ele>
        <time>2021-05-08T11:56:53Z</time>
      </trkpt>
      <trkpt lat="46.64017" lon="5.93437">
        <ele>753.2</ele>
        <time>2021-05-08T11:57:03Z</time>
      </trkpt>
      <trkpt lat="46.64021" lon="5.93432">
        <ele>751.5</ele>
        <time>2021-05-08T11:57:09Z</time>
      </trkpt>
      <trkpt lat="46.64024" lon="5.93422">
        <ele>747.6</ele>
        <time>2021-05-08T11:57:13Z</time>
      </trkpt>
      <trkpt lat="46.64025" lon="5.93414">
        <ele>745.6</ele>
        <time>2021-05-08T11:57:18Z</time>
      </trkpt>
      <trkpt lat="46.64026" lon="5.93408">
        <ele>745.1</ele>
        <time>2021-05-08T11:57:24Z</time>
      </trkpt>
      <trkpt lat="46.6403" lon="5.93405">
        <ele>747.1</ele>
        <time>2021-05-08T11:57:33Z</time>
      </trkpt>
      <trkpt lat="46.64035" lon="5.93403">
        <ele>751.4</ele>
        <time>2021-05-08T11:57:40Z</time>
      </trkpt>
      <trkpt lat="46.6404" lon="5.93397">
        <ele>753.9</ele>
        <time>2021-05-08T11:57:45Z</time>
      </trkpt>
      <trkpt lat="46.64043" lon="5.93391">
        <ele>755.1</ele>
        <time>2021-05-08T11:57:49Z</time>
      </trkpt>
      <trkpt lat="46.64046" lon="5.93386">
        <ele>754.7</ele>
        <time>2021-05-08T11:57:53Z</time>
      </trkpt>
      <trkpt lat="46.6405" lon="5.93381">
        <ele>755.4</ele>
        <time>2021-05-08T11:57:59Z</time>
      </trkpt>
      <trkpt lat="46.64055" lon="5.93379">
        <ele>757</ele>
        <time>2021-05-08T11:58:09Z</time>
      </trkpt>
      <trkpt lat="46.64059" lon="5.93377">
        <ele>756.6</ele>
        <time>2021-05-08T11:58:13Z</time>
      </trkpt>
      <trkpt lat="46.64063" lon="5.93372">
        <ele>756.5</ele>
        <time>2021-05-08T11:58:18Z</time>
      </trkpt>
      <trkpt lat="46.64068" lon="5.93367">
        <ele>756.4</ele>
        <time>2021-05-08T11:58:24Z</time>
      </trkpt>
      <trkpt lat="46.64073" lon="5.93362">
        <ele>756.1</ele>
        <time>2021-05-08T11:58:28Z</time>
      </trkpt>
      <trkpt lat="46.64078" lon="5.93361">
        <ele>755.1</ele>
        <time>2021-05-08T11:58:43Z</time>
      </trkpt>
      <trkpt lat="46.64081" lon="5.93356">
        <ele>754.6</ele>
        <time>2021-05-08T11:58:49Z</time>
      </trkpt>
      <trkpt lat="46.64084" lon="5.93351">
        <ele>753.8</ele>
        <time>2021-05-08T11:58:55Z</time>
      </trkpt>
      <trkpt lat="46.6409" lon="5.93339">
        <ele>754.7</ele>
        <time>2021-05-08T11:59:00Z</time>
      </trkpt>
      <trkpt lat="46.64095" lon="5.9333">
        <ele>755.8</ele>
        <time>2021-05-08T11:59:04Z</time>
      </trkpt>
      <trkpt lat="46.64094" lon="5.93324">
        <ele>758.6</ele>
        <time>2021-05-08T11:59:26Z</time>
      </trkpt>
      <trkpt lat="46.64092" lon="5.93317">
        <ele>759.1</ele>
        <time>2021-05-08T11:59:32Z</time>
      </trkpt>
      <trkpt lat="46.6409" lon="5.9331">
        <ele>759.4</ele>
        <time>2021-05-08T11:59:36Z</time>
      </trkpt>
      <trkpt lat="46.64092" lon="5.93304">
        <ele>759.4</ele>
        <time>2021-05-08T11:59:40Z</time>
      </trkpt>
      <trkpt lat="46.64094" lon="5.93297">
        <ele>759.3</ele>
        <time>2021-05-08T11:59:44Z</time>
      </trkpt>
      <trkpt lat="46.64093" lon="5.93289">
        <ele>758.4</ele>
        <time>2021-05-08T11:59:48Z</time>
      </trkpt>
      <trkpt lat="46.64093" lon="5.93282">
        <ele>757.7</ele>
        <time>2021-05-08T11:59:52Z</time>
      </trkpt>
      <trkpt lat="46.64092" lon="5.93275">
        <ele>756.3</ele>
        <time>2021-05-08T11:59:58Z</time>
      </trkpt>
      <trkpt lat="46.64095" lon="5.93268">
        <ele>755.2</ele>
        <time>2021-05-08T12:00:04Z</time>
      </trkpt>
      <trkpt lat="46.64097" lon="5.93262">
        <ele>754.6</ele>
        <time>2021-05-08T12:00:09Z</time>
      </trkpt>
      <trkpt lat="46.64099" lon="5.93254">
        <ele>754.2</ele>
        <time>2021-05-08T12:00:13Z</time>
      </trkpt>
      <trkpt lat="46.641" lon="5.93248">
        <ele>753.9</ele>
        <time>2021-05-08T12:00:17Z</time>
      </trkpt>
      <trkpt lat="46.641" lon="5.93241">
        <ele>753.3</ele>
        <time>2021-05-08T12:00:21Z</time>
      </trkpt>
      <trkpt lat="46.64099" lon="5.93234">
        <ele>752.3</ele>
        <time>2021-05-08T12:00:26Z</time>
      </trkpt>
      <trkpt lat="46.64099" lon="5.93228">
        <ele>750.7</ele>
        <time>2021-05-08T12:00:32Z</time>
      </trkpt>
      <trkpt lat="46.64098" lon="5.9322">
        <ele>748.9</ele>
        <time>2021-05-08T12:00:38Z</time>
      </trkpt>
      <trkpt lat="46.64098" lon="5.93212">
        <ele>747.7</ele>
        <time>2021-05-08T12:00:43Z</time>
      </trkpt>
      <trkpt lat="46.64096" lon="5.93206">
        <ele>747.1</ele>
        <time>2021-05-08T12:00:47Z</time>
      </trkpt>
      <trkpt lat="46.64093" lon="5.93201">
        <ele>746.5</ele>
        <time>2021-05-08T12:00:51Z</time>
      </trkpt>
      <trkpt lat="46.64091" lon="5.93195">
        <ele>746.2</ele>
        <time>2021-05-08T12:00:57Z</time>
      </trkpt>
      <trkpt lat="46.64089" lon="5.93189">
        <ele>746.4</ele>
        <time>2021-05-08T12:01:03Z</time>
      </trkpt>
      <trkpt lat="46.64086" lon="5.93183">
        <ele>746.5</ele>
        <time>2021-05-08T12:01:08Z</time>
      </trkpt>
      <trkpt lat="46.64082" lon="5.93178">
        <ele>746.4</ele>
        <time>2021-05-08T12:01:12Z</time>
      </trkpt>
      <trkpt lat="46.64078" lon="5.93174">
        <ele>746.1</ele>
        <time>2021-05-08T12:01:17Z</time>
      </trkpt>
      <trkpt lat="46.64075" lon="5.93168">
        <ele>745.9</ele>
        <time>2021-05-08T12:01:22Z</time>
      </trkpt>
      <trkpt lat="46.64071" lon="5.93163">
        <ele>745.6</ele>
        <time>2021-05-08T12:01:28Z</time>
      </trkpt>
      <trkpt lat="46.64067" lon="5.93158">
        <ele>745.1</ele>
        <time>2021-05-08T12:01:33Z</time>
      </trkpt>
      <trkpt lat="46.64065" lon="5.93151">
        <ele>744.9</ele>
        <time>2021-05-08T12:01:39Z</time>
      </trkpt>
      <trkpt lat="46.64062" lon="5.93146">
        <ele>744.7</ele>
        <time>2021-05-08T12:01:44Z</time>
      </trkpt>
      <trkpt lat="46.64059" lon="5.9314">
        <ele>744.6</ele>
        <time>2021-05-08T12:01:51Z</time>
      </trkpt>
      <trkpt lat="46.64056" lon="5.93134">
        <ele>743.9</ele>
        <time>2021-05-08T12:01:58Z</time>
      </trkpt>
      <trkpt lat="46.64054" lon="5.93128">
        <ele>742.7</ele>
        <time>2021-05-08T12:02:04Z</time>
      </trkpt>
      <trkpt lat="46.64053" lon="5.9312">
        <ele>741.5</ele>
        <time>2021-05-08T12:02:10Z</time>
      </trkpt>
      <trkpt lat="46.64052" lon="5.93113">
        <ele>740.3</ele>
        <time>2021-05-08T12:02:16Z</time>
      </trkpt>
      <trkpt lat="46.64048" lon="5.93107">
        <ele>739.2</ele>
        <time>2021-05-08T12:02:21Z</time>
      </trkpt>
      <trkpt lat="46.64046" lon="5.931">
        <ele>737.7</ele>
        <time>2021-05-08T12:02:26Z</time>
      </trkpt>
      <trkpt lat="46.64044" lon="5.93093">
        <ele>736.4</ele>
        <time>2021-05-08T12:02:30Z</time>
      </trkpt>
      <trkpt lat="46.64041" lon="5.93088">
        <ele>735.2</ele>
        <time>2021-05-08T12:02:34Z</time>
      </trkpt>
      <trkpt lat="46.64036" lon="5.93084">
        <ele>733.7</ele>
        <time>2021-05-08T12:02:39Z</time>
      </trkpt>
      <trkpt lat="46.64032" lon="5.93081">
        <ele>731.7</ele>
        <time>2021-05-08T12:02:46Z</time>
      </trkpt>
      <trkpt lat="46.64028" lon="5.93075">
        <ele>730.6</ele>
        <time>2021-05-08T12:02:52Z</time>
      </trkpt>
      <trkpt lat="46.64025" lon="5.93069">
        <ele>730.4</ele>
        <time>2021-05-08T12:02:56Z</time>
      </trkpt>
      <trkpt lat="46.64021" lon="5.93065">
        <ele>730.8</ele>
        <time>2021-05-08T12:03:00Z</time>
      </trkpt>
      <trkpt lat="46.64018" lon="5.93059">
        <ele>731</ele>
        <time>2021-05-08T12:03:04Z</time>
      </trkpt>
      <trkpt lat="46.64014" lon="5.93055">
        <ele>730.6</ele>
        <time>2021-05-08T12:03:09Z</time>
      </trkpt>
      <trkpt lat="46.6401" lon="5.93051">
        <ele>730.1</ele>
        <time>2021-05-08T12:03:15Z</time>
      </trkpt>
      <trkpt lat="46.64005" lon="5.93049">
        <ele>729.5</ele>
        <time>2021-05-08T12:03:20Z</time>
      </trkpt>
      <trkpt lat="46.64" lon="5.93048">
        <ele>728.5</ele>
        <time>2021-05-08T12:03:26Z</time>
      </trkpt>
      <trkpt lat="46.63995" lon="5.93049">
        <ele>727</ele>
        <time>2021-05-08T12:03:31Z</time>
      </trkpt>
      <trkpt lat="46.63991" lon="5.93045">
        <ele>725.4</ele>
        <time>2021-05-08T12:03:36Z</time>
      </trkpt>
      <trkpt lat="46.63987" lon="5.9304">
        <ele>724.8</ele>
        <time>2021-05-08T12:03:43Z</time>
      </trkpt>
      <trkpt lat="46.63983" lon="5.93037">
        <ele>724.8</ele>
        <time>2021-05-08T12:03:50Z</time>
      </trkpt>
      <trkpt lat="46.63978" lon="5.93035">
        <ele>724.3</ele>
        <time>2021-05-08T12:03:57Z</time>
      </trkpt>
      <trkpt lat="46.63968" lon="5.93028">
        <ele>727.2</ele>
        <time>2021-05-08T12:04:03Z</time>
      </trkpt>
      <trkpt lat="46.63958" lon="5.93024">
        <ele>730.6</ele>
        <time>2021-05-08T12:04:07Z</time>
      </trkpt>
      <trkpt lat="46.63953" lon="5.93023">
        <ele>733</ele>
        <time>2021-05-08T12:04:11Z</time>
      </trkpt>
      <trkpt lat="46.63949" lon="5.93019">
        <ele>735.8</ele>
        <time>2021-05-08T12:04:17Z</time>
      </trkpt>
      <trkpt lat="46.63945" lon="5.93015">
        <ele>738.3</ele>
        <time>2021-05-08T12:04:24Z</time>
      </trkpt>
      <trkpt lat="46.6394" lon="5.93011">
        <ele>739.8</ele>
        <time>2021-05-08T12:04:30Z</time>
      </trkpt>
      <trkpt lat="46.63938" lon="5.93005">
        <ele>740.8</ele>
        <time>2021-05-08T12:04:34Z</time>
      </trkpt>
      <trkpt lat="46.63936" lon="5.92999">
        <ele>741.6</ele>
        <time>2021-05-08T12:04:38Z</time>
      </trkpt>
      <trkpt lat="46.63933" lon="5.92992">
        <ele>742.2</ele>
        <time>2021-05-08T12:04:43Z</time>
      </trkpt>
      <trkpt lat="46.6393" lon="5.92987">
        <ele>742.5</ele>
        <time>2021-05-08T12:04:48Z</time>
      </trkpt>
      <trkpt lat="46.63927" lon="5.92982">
        <ele>742.4</ele>
        <time>2021-05-08T12:04:53Z</time>
      </trkpt>
      <trkpt lat="46.63923" lon="5.92978">
        <ele>742.8</ele>
        <time>2021-05-08T12:04:59Z</time>
      </trkpt>
      <trkpt lat="46.6392" lon="5.92972">
        <ele>743.2</ele>
        <time>2021-05-08T12:05:03Z</time>
      </trkpt>
      <trkpt lat="46.63918" lon="5.92966">
        <ele>743.4</ele>
        <time>2021-05-08T12:05:07Z</time>
      </trkpt>
      <trkpt lat="46.63913" lon="5.92962">
        <ele>743.8</ele>
        <time>2021-05-08T12:05:12Z</time>
      </trkpt>
      <trkpt lat="46.63909" lon="5.92957">
        <ele>744.3</ele>
        <time>2021-05-08T12:05:17Z</time>
      </trkpt>
      <trkpt lat="46.63905" lon="5.92953">
        <ele>744.5</ele>
        <time>2021-05-08T12:05:22Z</time>
      </trkpt>
      <trkpt lat="46.63901" lon="5.92948">
        <ele>745</ele>
        <time>2021-05-08T12:05:29Z</time>
      </trkpt>
      <trkpt lat="46.63898" lon="5.92943">
        <ele>745.8</ele>
        <time>2021-05-08T12:05:34Z</time>
      </trkpt>
      <trkpt lat="46.63894" lon="5.9294">
        <ele>746.6</ele>
        <time>2021-05-08T12:05:38Z</time>
      </trkpt>
      <trkpt lat="46.63888" lon="5.9294">
        <ele>747.3</ele>
        <time>2021-05-08T12:05:42Z</time>
      </trkpt>
      <trkpt lat="46.63884" lon="5.92935">
        <ele>747.6</ele>
        <time>2021-05-08T12:05:47Z</time>
      </trkpt>
      <trkpt lat="46.6388" lon="5.92929">
        <ele>748</ele>
        <time>2021-05-08T12:05:52Z</time>
      </trkpt>
      <trkpt lat="46.63878" lon="5.92923">
        <ele>748.7</ele>
        <time>2021-05-08T12:05:56Z</time>
      </trkpt>
      <trkpt lat="46.63874" lon="5.92919">
        <ele>748.9</ele>
        <time>2021-05-08T12:06:00Z</time>
      </trkpt>
      <trkpt lat="46.63871" lon="5.92913">
        <ele>749.5</ele>
        <time>2021-05-08T12:06:06Z</time>
      </trkpt>
      <trkpt lat="46.63867" lon="5.92906">
        <ele>749.6</ele>
        <time>2021-05-08T12:06:11Z</time>
      </trkpt>
      <trkpt lat="46.63863" lon="5.929">
        <ele>749.3</ele>
        <time>2021-05-08T12:06:16Z</time>
      </trkpt>
      <trkpt lat="46.63859" lon="5.92897">
        <ele>746.9</ele>
        <time>2021-05-08T12:06:22Z</time>
      </trkpt>
      <trkpt lat="46.63856" lon="5.92891">
        <ele>744.2</ele>
        <time>2021-05-08T12:06:27Z</time>
      </trkpt>
      <trkpt lat="46.63854" lon="5.92884">
        <ele>741.8</ele>
        <time>2021-05-08T12:06:31Z</time>
      </trkpt>
      <trkpt lat="46.63852" lon="5.92875">
        <ele>739.9</ele>
        <time>2021-05-08T12:06:35Z</time>
      </trkpt>
      <trkpt lat="46.6385" lon="5.92867">
        <ele>738.6</ele>
        <time>2021-05-08T12:06:39Z</time>
      </trkpt>
      <trkpt lat="46.63845" lon="5.92863">
        <ele>737.5</ele>
        <time>2021-05-08T12:06:45Z</time>
      </trkpt>
      <trkpt lat="46.6384" lon="5.9286">
        <ele>737.2</ele>
        <time>2021-05-08T12:06:50Z</time>
      </trkpt>
      <trkpt lat="46.63836" lon="5.92857">
        <ele>737</ele>
        <time>2021-05-08T12:06:54Z</time>
      </trkpt>
      <trkpt lat="46.63833" lon="5.92852">
        <ele>736.5</ele>
        <time>2021-05-08T12:07:00Z</time>
      </trkpt>
      <trkpt lat="46.63831" lon="5.92845">
        <ele>736.3</ele>
        <time>2021-05-08T12:07:06Z</time>
      </trkpt>
      <trkpt lat="46.63827" lon="5.92842">
        <ele>736.2</ele>
        <time>2021-05-08T12:07:11Z</time>
      </trkpt>
      <trkpt lat="46.63822" lon="5.92837">
        <ele>736.3</ele>
        <time>2021-05-08T12:07:17Z</time>
      </trkpt>
      <trkpt lat="46.63818" lon="5.92832">
        <ele>736.5</ele>
        <time>2021-05-08T12:07:21Z</time>
      </trkpt>
      <trkpt lat="46.63814" lon="5.92827">
        <ele>736.5</ele>
        <time>2021-05-08T12:07:26Z</time>
      </trkpt>
      <trkpt lat="46.63811" lon="5.92821">
        <ele>736.4</ele>
        <time>2021-05-08T12:07:30Z</time>
      </trkpt>
      <trkpt lat="46.63807" lon="5.92816">
        <ele>736.5</ele>
        <time>2021-05-08T12:07:35Z</time>
      </trkpt>
      <trkpt lat="46.63805" lon="5.92804">
        <ele>743.8</ele>
        <time>2021-05-08T12:07:44Z</time>
      </trkpt>
      <trkpt lat="46.63806" lon="5.9279">
        <ele>751</ele>
        <time>2021-05-08T12:07:48Z</time>
      </trkpt>
      <trkpt lat="46.63803" lon="5.92785">
        <ele>759.3</ele>
        <time>2021-05-08T12:07:56Z</time>
      </trkpt>
      <trkpt lat="46.63799" lon="5.92781">
        <ele>761.7</ele>
        <time>2021-05-08T12:08:01Z</time>
      </trkpt>
      <trkpt lat="46.63797" lon="5.92774">
        <ele>763.2</ele>
        <time>2021-05-08T12:08:06Z</time>
      </trkpt>
      <trkpt lat="46.63795" lon="5.92768">
        <ele>763.8</ele>
        <time>2021-05-08T12:08:10Z</time>
      </trkpt>
      <trkpt lat="46.63792" lon="5.92763">
        <ele>764.1</ele>
        <time>2021-05-08T12:08:15Z</time>
      </trkpt>
      <trkpt lat="46.63788" lon="5.92759">
        <ele>764.4</ele>
        <time>2021-05-08T12:08:21Z</time>
      </trkpt>
      <trkpt lat="46.63786" lon="5.92752">
        <ele>764.5</ele>
        <time>2021-05-08T12:08:26Z</time>
      </trkpt>
      <trkpt lat="46.63784" lon="5.92746">
        <ele>764.5</ele>
        <time>2021-05-08T12:08:32Z</time>
      </trkpt>
      <trkpt lat="46.63782" lon="5.92739">
        <ele>764.3</ele>
        <time>2021-05-08T12:08:37Z</time>
      </trkpt>
      <trkpt lat="46.6378" lon="5.92732">
        <ele>764.2</ele>
        <time>2021-05-08T12:08:42Z</time>
      </trkpt>
      <trkpt lat="46.63777" lon="5.92726">
        <ele>764.3</ele>
        <time>2021-05-08T12:08:47Z</time>
      </trkpt>
      <trkpt lat="46.63773" lon="5.92723">
        <ele>764.3</ele>
        <time>2021-05-08T12:08:52Z</time>
      </trkpt>
      <trkpt lat="46.63768" lon="5.92719">
        <ele>764.5</ele>
        <time>2021-05-08T12:08:56Z</time>
      </trkpt>
      <trkpt lat="46.63764" lon="5.92714">
        <ele>764.6</ele>
        <time>2021-05-08T12:09:00Z</time>
      </trkpt>
      <trkpt lat="46.6376" lon="5.92709">
        <ele>764.8</ele>
        <time>2021-05-08T12:09:04Z</time>
      </trkpt>
      <trkpt lat="46.63756" lon="5.92705">
        <ele>764.8</ele>
        <time>2021-05-08T12:09:09Z</time>
      </trkpt>
      <trkpt lat="46.63752" lon="5.927">
        <ele>764.8</ele>
        <time>2021-05-08T12:09:14Z</time>
      </trkpt>
      <trkpt lat="46.63747" lon="5.92697">
        <ele>764.4</ele>
        <time>2021-05-08T12:09:19Z</time>
      </trkpt>
      <trkpt lat="46.63743" lon="5.92694">
        <ele>763.3</ele>
        <time>2021-05-08T12:09:25Z</time>
      </trkpt>
      <trkpt lat="46.6374" lon="5.92689">
        <ele>762.7</ele>
        <time>2021-05-08T12:09:30Z</time>
      </trkpt>
      <trkpt lat="46.63735" lon="5.92687">
        <ele>762.7</ele>
        <time>2021-05-08T12:09:34Z</time>
      </trkpt>
      <trkpt lat="46.63731" lon="5.92683">
        <ele>763</ele>
        <time>2021-05-08T12:09:39Z</time>
      </trkpt>
      <trkpt lat="46.63728" lon="5.92676">
        <ele>763.2</ele>
        <time>2021-05-08T12:09:43Z</time>
      </trkpt>
      <trkpt lat="46.63724" lon="5.92672">
        <ele>763.5</ele>
        <time>2021-05-08T12:09:47Z</time>
      </trkpt>
      <trkpt lat="46.63722" lon="5.92666">
        <ele>763.5</ele>
        <time>2021-05-08T12:09:52Z</time>
      </trkpt>
      <trkpt lat="46.63719" lon="5.92659">
        <ele>762.8</ele>
        <time>2021-05-08T12:09:58Z</time>
      </trkpt>
      <trkpt lat="46.63716" lon="5.92654">
        <ele>762.2</ele>
        <time>2021-05-08T12:10:04Z</time>
      </trkpt>
      <trkpt lat="46.63711" lon="5.9265">
        <ele>762.1</ele>
        <time>2021-05-08T12:10:09Z</time>
      </trkpt>
      <trkpt lat="46.63707" lon="5.92648">
        <ele>761.7</ele>
        <time>2021-05-08T12:10:13Z</time>
      </trkpt>
      <trkpt lat="46.63702" lon="5.92645">
        <ele>761.3</ele>
        <time>2021-05-08T12:10:18Z</time>
      </trkpt>
      <trkpt lat="46.63698" lon="5.92639">
        <ele>761</ele>
        <time>2021-05-08T12:10:24Z</time>
      </trkpt>
      <trkpt lat="46.63697" lon="5.92632">
        <ele>760.5</ele>
        <time>2021-05-08T12:10:28Z</time>
      </trkpt>
      <trkpt lat="46.63694" lon="5.92626">
        <ele>759.8</ele>
        <time>2021-05-08T12:10:32Z</time>
      </trkpt>
      <trkpt lat="46.63691" lon="5.92621">
        <ele>758.8</ele>
        <time>2021-05-08T12:10:37Z</time>
      </trkpt>
      <trkpt lat="46.63689" lon="5.92615">
        <ele>758.3</ele>
        <time>2021-05-08T12:10:41Z</time>
      </trkpt>
      <trkpt lat="46.63685" lon="5.9261">
        <ele>757.6</ele>
        <time>2021-05-08T12:10:46Z</time>
      </trkpt>
      <trkpt lat="46.63683" lon="5.92603">
        <ele>756.5</ele>
        <time>2021-05-08T12:10:53Z</time>
      </trkpt>
      <trkpt lat="46.63679" lon="5.926">
        <ele>755.7</ele>
        <time>2021-05-08T12:10:59Z</time>
      </trkpt>
      <trkpt lat="46.63675" lon="5.92598">
        <ele>755.4</ele>
        <time>2021-05-08T12:11:05Z</time>
      </trkpt>
      <trkpt lat="46.63672" lon="5.92594">
        <ele>755.4</ele>
        <time>2021-05-08T12:11:10Z</time>
      </trkpt>
      <trkpt lat="46.63669" lon="5.92588">
        <ele>755.5</ele>
        <time>2021-05-08T12:11:15Z</time>
      </trkpt>
      <trkpt lat="46.63665" lon="5.9258">
        <ele>756.2</ele>
        <time>2021-05-08T12:11:20Z</time>
      </trkpt>
      <trkpt lat="46.63663" lon="5.92574">
        <ele>757.2</ele>
        <time>2021-05-08T12:11:25Z</time>
      </trkpt>
      <trkpt lat="46.63661" lon="5.92567">
        <ele>758.1</ele>
        <time>2021-05-08T12:11:32Z</time>
      </trkpt>
      <trkpt lat="46.63659" lon="5.92561">
        <ele>758</ele>
        <time>2021-05-08T12:11:38Z</time>
      </trkpt>
      <trkpt lat="46.63656" lon="5.92555">
        <ele>757.6</ele>
        <time>2021-05-08T12:11:42Z</time>
      </trkpt>
      <trkpt lat="46.63654" lon="5.92548">
        <ele>757.3</ele>
        <time>2021-05-08T12:11:46Z</time>
      </trkpt>
      <trkpt lat="46.63651" lon="5.92541">
        <ele>756.8</ele>
        <time>2021-05-08T12:11:51Z</time>
      </trkpt>
      <trkpt lat="46.63648" lon="5.92536">
        <ele>756</ele>
        <time>2021-05-08T12:11:56Z</time>
      </trkpt>
      <trkpt lat="46.63644" lon="5.92531">
        <ele>755</ele>
        <time>2021-05-08T12:12:01Z</time>
      </trkpt>
      <trkpt lat="46.6364" lon="5.92527">
        <ele>754.4</ele>
        <time>2021-05-08T12:12:05Z</time>
      </trkpt>
      <trkpt lat="46.63636" lon="5.92522">
        <ele>753.7</ele>
        <time>2021-05-08T12:12:10Z</time>
      </trkpt>
      <trkpt lat="46.63632" lon="5.92518">
        <ele>752.6</ele>
        <time>2021-05-08T12:12:15Z</time>
      </trkpt>
      <trkpt lat="46.63628" lon="5.92515">
        <ele>751.5</ele>
        <time>2021-05-08T12:12:20Z</time>
      </trkpt>
      <trkpt lat="46.63623" lon="5.9251">
        <ele>751.1</ele>
        <time>2021-05-08T12:12:25Z</time>
      </trkpt>
      <trkpt lat="46.63621" lon="5.92505">
        <ele>750.7</ele>
        <time>2021-05-08T12:12:30Z</time>
      </trkpt>
      <trkpt lat="46.63618" lon="5.92499">
        <ele>750.7</ele>
        <time>2021-05-08T12:12:34Z</time>
      </trkpt>
      <trkpt lat="46.63615" lon="5.92493">
        <ele>751.1</ele>
        <time>2021-05-08T12:12:38Z</time>
      </trkpt>
      <trkpt lat="46.63612" lon="5.92487">
        <ele>751.5</ele>
        <time>2021-05-08T12:12:42Z</time>
      </trkpt>
      <trkpt lat="46.63609" lon="5.92481">
        <ele>752.7</ele>
        <time>2021-05-08T12:12:49Z</time>
      </trkpt>
      <trkpt lat="46.63606" lon="5.92475">
        <ele>753.2</ele>
        <time>2021-05-08T12:12:54Z</time>
      </trkpt>
      <trkpt lat="46.63604" lon="5.92469">
        <ele>754</ele>
        <time>2021-05-08T12:12:58Z</time>
      </trkpt>
      <trkpt lat="46.63602" lon="5.92463">
        <ele>755.4</ele>
        <time>2021-05-08T12:13:03Z</time>
      </trkpt>
      <trkpt lat="46.63599" lon="5.92457">
        <ele>756.6</ele>
        <time>2021-05-08T12:13:08Z</time>
      </trkpt>
      <trkpt lat="46.63595" lon="5.92452">
        <ele>757.5</ele>
        <time>2021-05-08T12:13:13Z</time>
      </trkpt>
      <trkpt lat="46.63592" lon="5.92445">
        <ele>757.8</ele>
        <time>2021-05-08T12:13:19Z</time>
      </trkpt>
      <trkpt lat="46.63589" lon="5.92437">
        <ele>758.1</ele>
        <time>2021-05-08T12:13:23Z</time>
      </trkpt>
      <trkpt lat="46.63585" lon="5.92433">
        <ele>758.1</ele>
        <time>2021-05-08T12:13:27Z</time>
      </trkpt>
      <trkpt lat="46.63583" lon="5.92426">
        <ele>758.3</ele>
        <time>2021-05-08T12:13:32Z</time>
      </trkpt>
      <trkpt lat="46.63579" lon="5.92421">
        <ele>758.3</ele>
        <time>2021-05-08T12:13:37Z</time>
      </trkpt>
      <trkpt lat="46.63574" lon="5.92419">
        <ele>758.6</ele>
        <time>2021-05-08T12:13:43Z</time>
      </trkpt>
      <trkpt lat="46.6357" lon="5.92415">
        <ele>758.8</ele>
        <time>2021-05-08T12:13:48Z</time>
      </trkpt>
      <trkpt lat="46.63567" lon="5.9241">
        <ele>759.1</ele>
        <time>2021-05-08T12:13:53Z</time>
      </trkpt>
      <trkpt lat="46.63564" lon="5.92404">
        <ele>759.5</ele>
        <time>2021-05-08T12:13:57Z</time>
      </trkpt>
      <trkpt lat="46.63562" lon="5.92394">
        <ele>761</ele>
        <time>2021-05-08T12:14:01Z</time>
      </trkpt>
      <trkpt lat="46.63558" lon="5.92386">
        <ele>763.4</ele>
        <time>2021-05-08T12:14:05Z</time>
      </trkpt>
      <trkpt lat="46.63555" lon="5.9238">
        <ele>764.9</ele>
        <time>2021-05-08T12:14:09Z</time>
      </trkpt>
      <trkpt lat="46.63551" lon="5.92376">
        <ele>766.3</ele>
        <time>2021-05-08T12:14:14Z</time>
      </trkpt>
      <trkpt lat="46.63546" lon="5.92371">
        <ele>767.6</ele>
        <time>2021-05-08T12:14:19Z</time>
      </trkpt>
      <trkpt lat="46.63542" lon="5.92368">
        <ele>768.7</ele>
        <time>2021-05-08T12:14:23Z</time>
      </trkpt>
      <trkpt lat="46.63537" lon="5.92365">
        <ele>769.8</ele>
        <time>2021-05-08T12:14:28Z</time>
      </trkpt>
      <trkpt lat="46.63533" lon="5.92362">
        <ele>770.3</ele>
        <time>2021-05-08T12:14:34Z</time>
      </trkpt>
      <trkpt lat="46.6353" lon="5.92356">
        <ele>770.2</ele>
        <time>2021-05-08T12:14:40Z</time>
      </trkpt>
      <trkpt lat="46.63529" lon="5.92346">
        <ele>770.3</ele>
        <time>2021-05-08T12:14:44Z</time>
      </trkpt>
      <trkpt lat="46.63526" lon="5.9234">
        <ele>770.3</ele>
        <time>2021-05-08T12:14:49Z</time>
      </trkpt>
      <trkpt lat="46.63522" lon="5.92336">
        <ele>770</ele>
        <time>2021-05-08T12:14:54Z</time>
      </trkpt>
      <trkpt lat="46.6352" lon="5.9233">
        <ele>769.7</ele>
        <time>2021-05-08T12:14:59Z</time>
      </trkpt>
      <trkpt lat="46.6352" lon="5.9232">
        <ele>770.1</ele>
        <time>2021-05-08T12:15:03Z</time>
      </trkpt>
      <trkpt lat="46.63518" lon="5.92311">
        <ele>770.5</ele>
        <time>2021-05-08T12:15:07Z</time>
      </trkpt>
      <trkpt lat="46.63515" lon="5.92305">
        <ele>770.7</ele>
        <time>2021-05-08T12:15:11Z</time>
      </trkpt>
      <trkpt lat="46.6351" lon="5.92302">
        <ele>770.3</ele>
        <time>2021-05-08T12:15:16Z</time>
      </trkpt>
      <trkpt lat="46.63507" lon="5.92297">
        <ele>769.7</ele>
        <time>2021-05-08T12:15:21Z</time>
      </trkpt>
      <trkpt lat="46.63504" lon="5.92289">
        <ele>769.7</ele>
        <time>2021-05-08T12:15:25Z</time>
      </trkpt>
      <trkpt lat="46.63502" lon="5.92283">
        <ele>769.7</ele>
        <time>2021-05-08T12:15:29Z</time>
      </trkpt>
      <trkpt lat="46.63498" lon="5.92277">
        <ele>769.7</ele>
        <time>2021-05-08T12:15:34Z</time>
      </trkpt>
      <trkpt lat="46.63495" lon="5.92272">
        <ele>769.6</ele>
        <time>2021-05-08T12:15:38Z</time>
      </trkpt>
      <trkpt lat="46.63493" lon="5.92265">
        <ele>769.3</ele>
        <time>2021-05-08T12:15:42Z</time>
      </trkpt>
      <trkpt lat="46.63492" lon="5.92258">
        <ele>768.2</ele>
        <time>2021-05-08T12:15:47Z</time>
      </trkpt>
      <trkpt lat="46.63488" lon="5.92263">
        <ele>767.3</ele>
        <time>2021-05-08T12:15:54Z</time>
      </trkpt>
      <trkpt lat="46.63493" lon="5.92264">
        <ele>766.5</ele>
        <time>2021-05-08T12:16:11Z</time>
      </trkpt>
      <trkpt lat="46.63489" lon="5.92261">
        <ele>761.9</ele>
        <time>2021-05-08T12:16:59Z</time>
      </trkpt>
      <trkpt lat="46.63486" lon="5.92254">
        <ele>761.7</ele>
        <time>2021-05-08T12:17:04Z</time>
      </trkpt>
      <trkpt lat="46.63481" lon="5.92253">
        <ele>762.3</ele>
        <time>2021-05-08T12:17:09Z</time>
      </trkpt>
      <trkpt lat="46.63477" lon="5.92249">
        <ele>763.3</ele>
        <time>2021-05-08T12:17:15Z</time>
      </trkpt>
      <trkpt lat="46.63474" lon="5.92244">
        <ele>763.9</ele>
        <time>2021-05-08T12:17:23Z</time>
      </trkpt>
      <trkpt lat="46.6347" lon="5.92242">
        <ele>763.9</ele>
        <time>2021-05-08T12:17:27Z</time>
      </trkpt>
      <trkpt lat="46.63464" lon="5.92239">
        <ele>764</ele>
        <time>2021-05-08T12:17:31Z</time>
      </trkpt>
      <trkpt lat="46.63459" lon="5.92236">
        <ele>764.4</ele>
        <time>2021-05-08T12:17:36Z</time>
      </trkpt>
      <trkpt lat="46.63456" lon="5.92232">
        <ele>765.8</ele>
        <time>2021-05-08T12:17:42Z</time>
      </trkpt>
      <trkpt lat="46.63452" lon="5.92227">
        <ele>767.8</ele>
        <time>2021-05-08T12:17:48Z</time>
      </trkpt>
      <trkpt lat="46.63447" lon="5.92223">
        <ele>769.5</ele>
        <time>2021-05-08T12:17:54Z</time>
      </trkpt>
      <trkpt lat="46.63444" lon="5.92217">
        <ele>770.8</ele>
        <time>2021-05-08T12:17:59Z</time>
      </trkpt>
      <trkpt lat="46.63441" lon="5.92212">
        <ele>771.8</ele>
        <time>2021-05-08T12:18:05Z</time>
      </trkpt>
      <trkpt lat="46.63436" lon="5.92211">
        <ele>772.9</ele>
        <time>2021-05-08T12:18:12Z</time>
      </trkpt>
      <trkpt lat="46.63432" lon="5.9221">
        <ele>773.9</ele>
        <time>2021-05-08T12:18:17Z</time>
      </trkpt>
      <trkpt lat="46.63428" lon="5.92205">
        <ele>775.5</ele>
        <time>2021-05-08T12:18:21Z</time>
      </trkpt>
      <trkpt lat="46.63424" lon="5.92201">
        <ele>777.2</ele>
        <time>2021-05-08T12:18:25Z</time>
      </trkpt>
      <trkpt lat="46.63419" lon="5.92196">
        <ele>779.1</ele>
        <time>2021-05-08T12:18:29Z</time>
      </trkpt>
      <trkpt lat="46.63415" lon="5.92193">
        <ele>780.9</ele>
        <time>2021-05-08T12:18:33Z</time>
      </trkpt>
      <trkpt lat="46.63411" lon="5.92189">
        <ele>782.4</ele>
        <time>2021-05-08T12:18:37Z</time>
      </trkpt>
      <trkpt lat="46.63407" lon="5.92184">
        <ele>783.8</ele>
        <time>2021-05-08T12:18:41Z</time>
      </trkpt>
      <trkpt lat="46.63401" lon="5.92184">
        <ele>782.7</ele>
        <time>2021-05-08T12:18:45Z</time>
      </trkpt>
      <trkpt lat="46.63398" lon="5.92178">
        <ele>782.8</ele>
        <time>2021-05-08T12:18:51Z</time>
      </trkpt>
      <trkpt lat="46.63396" lon="5.92172">
        <ele>783.2</ele>
        <time>2021-05-08T12:18:55Z</time>
      </trkpt>
      <trkpt lat="46.63393" lon="5.92165">
        <ele>784.2</ele>
        <time>2021-05-08T12:19:00Z</time>
      </trkpt>
      <trkpt lat="46.63391" lon="5.92159">
        <ele>784.9</ele>
        <time>2021-05-08T12:19:04Z</time>
      </trkpt>
      <trkpt lat="46.6339" lon="5.92152">
        <ele>785.1</ele>
        <time>2021-05-08T12:19:10Z</time>
      </trkpt>
      <trkpt lat="46.63391" lon="5.92144">
        <ele>784.5</ele>
        <time>2021-05-08T12:19:15Z</time>
      </trkpt>
      <trkpt lat="46.63391" lon="5.92138">
        <ele>782.3</ele>
        <time>2021-05-08T12:19:22Z</time>
      </trkpt>
      <trkpt lat="46.63389" lon="5.92132">
        <ele>779.8</ele>
        <time>2021-05-08T12:19:30Z</time>
      </trkpt>
      <trkpt lat="46.63389" lon="5.92124">
        <ele>777.9</ele>
        <time>2021-05-08T12:19:36Z</time>
      </trkpt>
      <trkpt lat="46.63387" lon="5.92118">
        <ele>776.5</ele>
        <time>2021-05-08T12:19:41Z</time>
      </trkpt>
      <trkpt lat="46.63383" lon="5.92114">
        <ele>774.7</ele>
        <time>2021-05-08T12:19:47Z</time>
      </trkpt>
      <trkpt lat="46.63384" lon="5.92107">
        <ele>771.7</ele>
        <time>2021-05-08T12:19:55Z</time>
      </trkpt>
      <trkpt lat="46.63385" lon="5.921">
        <ele>769.9</ele>
        <time>2021-05-08T12:20:00Z</time>
      </trkpt>
      <trkpt lat="46.63387" lon="5.92093">
        <ele>768.8</ele>
        <time>2021-05-08T12:20:05Z</time>
      </trkpt>
      <trkpt lat="46.63383" lon="5.92089">
        <ele>765.6</ele>
        <time>2021-05-08T12:20:45Z</time>
      </trkpt>
      <trkpt lat="46.63379" lon="5.92086">
        <ele>766.3</ele>
        <time>2021-05-08T12:20:54Z</time>
      </trkpt>
      <trkpt lat="46.6338" lon="5.92079">
        <ele>766.6</ele>
        <time>2021-05-08T12:21:07Z</time>
      </trkpt>
      <trkpt lat="46.63379" lon="5.92072">
        <ele>766.3</ele>
        <time>2021-05-08T12:21:12Z</time>
      </trkpt>
      <trkpt lat="46.63379" lon="5.92065">
        <ele>765.5</ele>
        <time>2021-05-08T12:21:18Z</time>
      </trkpt>
      <trkpt lat="46.63376" lon="5.9206">
        <ele>764.9</ele>
        <time>2021-05-08T12:21:27Z</time>
      </trkpt>
      <trkpt lat="46.63371" lon="5.92057">
        <ele>764.7</ele>
        <time>2021-05-08T12:21:32Z</time>
      </trkpt>
      <trkpt lat="46.63368" lon="5.92052">
        <ele>764.7</ele>
        <time>2021-05-08T12:21:37Z</time>
      </trkpt>
      <trkpt lat="46.63365" lon="5.92046">
        <ele>765</ele>
        <time>2021-05-08T12:21:43Z</time>
      </trkpt>
      <trkpt lat="46.63362" lon="5.92041">
        <ele>765.5</ele>
        <time>2021-05-08T12:21:49Z</time>
      </trkpt>
      <trkpt lat="46.63359" lon="5.92035">
        <ele>765.8</ele>
        <time>2021-05-08T12:21:56Z</time>
      </trkpt>
      <trkpt lat="46.63358" lon="5.92027">
        <ele>766.4</ele>
        <time>2021-05-08T12:22:03Z</time>
      </trkpt>
      <trkpt lat="46.63357" lon="5.92021">
        <ele>766.9</ele>
        <time>2021-05-08T12:22:07Z</time>
      </trkpt>
      <trkpt lat="46.63356" lon="5.92014">
        <ele>767.4</ele>
        <time>2021-05-08T12:22:12Z</time>
      </trkpt>
      <trkpt lat="46.63355" lon="5.92008">
        <ele>767.5</ele>
        <time>2021-05-08T12:22:18Z</time>
      </trkpt>
      <trkpt lat="46.63355" lon="5.92001">
        <ele>767.6</ele>
        <time>2021-05-08T12:22:25Z</time>
      </trkpt>
      <trkpt lat="46.63356" lon="5.91993">
        <ele>767.7</ele>
        <time>2021-05-08T12:22:30Z</time>
      </trkpt>
      <trkpt lat="46.63356" lon="5.91986">
        <ele>767.9</ele>
        <time>2021-05-08T12:22:34Z</time>
      </trkpt>
      <trkpt lat="46.63357" lon="5.9198">
        <ele>768.1</ele>
        <time>2021-05-08T12:22:39Z</time>
      </trkpt>
      <trkpt lat="46.63358" lon="5.91972">
        <ele>768.8</ele>
        <time>2021-05-08T12:22:44Z</time>
      </trkpt>
      <trkpt lat="46.63359" lon="5.91966">
        <ele>769.4</ele>
        <time>2021-05-08T12:22:49Z</time>
      </trkpt>
      <trkpt lat="46.6336" lon="5.91958">
        <ele>770.1</ele>
        <time>2021-05-08T12:22:54Z</time>
      </trkpt>
      <trkpt lat="46.63363" lon="5.91952">
        <ele>770.9</ele>
        <time>2021-05-08T12:22:59Z</time>
      </trkpt>
      <trkpt lat="46.63367" lon="5.91948">
        <ele>771.5</ele>
        <time>2021-05-08T12:23:03Z</time>
      </trkpt>
      <trkpt lat="46.63371" lon="5.91945">
        <ele>771.9</ele>
        <time>2021-05-08T12:23:07Z</time>
      </trkpt>
      <trkpt lat="46.63376" lon="5.91943">
        <ele>772.1</ele>
        <time>2021-05-08T12:23:11Z</time>
      </trkpt>
      <trkpt lat="46.6338" lon="5.91943">
        <ele>772.6</ele>
        <time>2021-05-08T12:23:16Z</time>
      </trkpt>
      <trkpt lat="46.63386" lon="5.91944">
        <ele>773.3</ele>
        <time>2021-05-08T12:23:22Z</time>
      </trkpt>
      <trkpt lat="46.6339" lon="5.91944">
        <ele>773.5</ele>
        <time>2021-05-08T12:23:28Z</time>
      </trkpt>
      <trkpt lat="46.63396" lon="5.91944">
        <ele>773.4</ele>
        <time>2021-05-08T12:23:32Z</time>
      </trkpt>
      <trkpt lat="46.634" lon="5.91943">
        <ele>773.3</ele>
        <time>2021-05-08T12:23:36Z</time>
      </trkpt>
      <trkpt lat="46.63405" lon="5.91942">
        <ele>773.1</ele>
        <time>2021-05-08T12:23:42Z</time>
      </trkpt>
      <trkpt lat="46.63409" lon="5.91938">
        <ele>772.9</ele>
        <time>2021-05-08T12:23:53Z</time>
      </trkpt>
      <trkpt lat="46.63414" lon="5.91938">
        <ele>772.9</ele>
        <time>2021-05-08T12:24:00Z</time>
      </trkpt>
      <trkpt lat="46.63419" lon="5.91941">
        <ele>773.1</ele>
        <time>2021-05-08T12:24:10Z</time>
      </trkpt>
      <trkpt lat="46.63428" lon="5.91936">
        <ele>776.3</ele>
        <time>2021-05-08T12:24:14Z</time>
      </trkpt>
      <trkpt lat="46.63434" lon="5.91939">
        <ele>775.7</ele>
        <time>2021-05-08T12:24:24Z</time>
      </trkpt>
      <trkpt lat="46.63443" lon="5.91939">
        <ele>776.8</ele>
        <time>2021-05-08T12:24:28Z</time>
      </trkpt>
      <trkpt lat="46.63448" lon="5.9194">
        <ele>778.2</ele>
        <time>2021-05-08T12:24:32Z</time>
      </trkpt>
      <trkpt lat="46.63453" lon="5.91938">
        <ele>779.9</ele>
        <time>2021-05-08T12:24:39Z</time>
      </trkpt>
      <trkpt lat="46.63457" lon="5.91932">
        <ele>781</ele>
        <time>2021-05-08T12:24:44Z</time>
      </trkpt>
      <trkpt lat="46.63461" lon="5.91926">
        <ele>782.1</ele>
        <time>2021-05-08T12:24:48Z</time>
      </trkpt>
      <trkpt lat="46.63464" lon="5.9192">
        <ele>783.3</ele>
        <time>2021-05-08T12:24:53Z</time>
      </trkpt>
      <trkpt lat="46.63466" lon="5.91913">
        <ele>784.4</ele>
        <time>2021-05-08T12:24:58Z</time>
      </trkpt>
      <trkpt lat="46.63467" lon="5.91906">
        <ele>785.6</ele>
        <time>2021-05-08T12:25:04Z</time>
      </trkpt>
      <trkpt lat="46.63467" lon="5.91899">
        <ele>786.7</ele>
        <time>2021-05-08T12:25:11Z</time>
      </trkpt>
      <trkpt lat="46.63467" lon="5.91892">
        <ele>787.2</ele>
        <time>2021-05-08T12:25:16Z</time>
      </trkpt>
      <trkpt lat="46.63466" lon="5.91885">
        <ele>787.7</ele>
        <time>2021-05-08T12:25:22Z</time>
      </trkpt>
      <trkpt lat="46.63466" lon="5.91878">
        <ele>787.9</ele>
        <time>2021-05-08T12:25:27Z</time>
      </trkpt>
      <trkpt lat="46.63467" lon="5.91871">
        <ele>787.8</ele>
        <time>2021-05-08T12:25:31Z</time>
      </trkpt>
      <trkpt lat="46.63469" lon="5.91865">
        <ele>787.6</ele>
        <time>2021-05-08T12:25:38Z</time>
      </trkpt>
      <trkpt lat="46.63472" lon="5.9186">
        <ele>787.2</ele>
        <time>2021-05-08T12:26:28Z</time>
      </trkpt>
      <trkpt lat="46.63476" lon="5.91856">
        <ele>786.3</ele>
        <time>2021-05-08T12:26:34Z</time>
      </trkpt>
      <trkpt lat="46.63479" lon="5.9185">
        <ele>785.5</ele>
        <time>2021-05-08T12:26:40Z</time>
      </trkpt>
      <trkpt lat="46.63483" lon="5.91844">
        <ele>784.8</ele>
        <time>2021-05-08T12:26:47Z</time>
      </trkpt>
      <trkpt lat="46.63486" lon="5.91839">
        <ele>784</ele>
        <time>2021-05-08T12:26:52Z</time>
      </trkpt>
      <trkpt lat="46.63489" lon="5.91834">
        <ele>783.2</ele>
        <time>2021-05-08T12:26:58Z</time>
      </trkpt>
      <trkpt lat="46.63493" lon="5.9183">
        <ele>782.7</ele>
        <time>2021-05-08T12:27:03Z</time>
      </trkpt>
      <trkpt lat="46.63497" lon="5.91826">
        <ele>782.2</ele>
        <time>2021-05-08T12:27:07Z</time>
      </trkpt>
      <trkpt lat="46.63501" lon="5.91822">
        <ele>781.6</ele>
        <time>2021-05-08T12:27:11Z</time>
      </trkpt>
      <trkpt lat="46.63504" lon="5.91816">
        <ele>781.2</ele>
        <time>2021-05-08T12:27:16Z</time>
      </trkpt>
      <trkpt lat="46.63508" lon="5.91811">
        <ele>780.7</ele>
        <time>2021-05-08T12:27:21Z</time>
      </trkpt>
      <trkpt lat="46.63511" lon="5.91807">
        <ele>779.9</ele>
        <time>2021-05-08T12:27:27Z</time>
      </trkpt>
      <trkpt lat="46.63516" lon="5.918">
        <ele>779.5</ele>
        <time>2021-05-08T12:27:32Z</time>
      </trkpt>
      <trkpt lat="46.6352" lon="5.91792">
        <ele>779.6</ele>
        <time>2021-05-08T12:27:36Z</time>
      </trkpt>
      <trkpt lat="46.63523" lon="5.91785">
        <ele>779.9</ele>
        <time>2021-05-08T12:27:40Z</time>
      </trkpt>
      <trkpt lat="46.63527" lon="5.91781">
        <ele>779.9</ele>
        <time>2021-05-08T12:27:47Z</time>
      </trkpt>
      <trkpt lat="46.6353" lon="5.91777">
        <ele>779.5</ele>
        <time>2021-05-08T12:27:55Z</time>
      </trkpt>
      <trkpt lat="46.63534" lon="5.91772">
        <ele>779</ele>
        <time>2021-05-08T12:28:02Z</time>
      </trkpt>
      <trkpt lat="46.63538" lon="5.91769">
        <ele>778.7</ele>
        <time>2021-05-08T12:28:07Z</time>
      </trkpt>
      <trkpt lat="46.63545" lon="5.91767">
        <ele>778.3</ele>
        <time>2021-05-08T12:28:11Z</time>
      </trkpt>
      <trkpt lat="46.63551" lon="5.91763">
        <ele>779.7</ele>
        <time>2021-05-08T12:28:15Z</time>
      </trkpt>
      <trkpt lat="46.63556" lon="5.91762">
        <ele>781.4</ele>
        <time>2021-05-08T12:28:22Z</time>
      </trkpt>
      <trkpt lat="46.63557" lon="5.91756">
        <ele>784.7</ele>
        <time>2021-05-08T12:28:43Z</time>
      </trkpt>
      <trkpt lat="46.63561" lon="5.91752">
        <ele>794.2</ele>
        <time>2021-05-08T12:29:07Z</time>
      </trkpt>
      <trkpt lat="46.6356" lon="5.91745">
        <ele>794.3</ele>
        <time>2021-05-08T12:30:20Z</time>
      </trkpt>
      <trkpt lat="46.63563" lon="5.91739">
        <ele>793.2</ele>
        <time>2021-05-08T12:30:32Z</time>
      </trkpt>
      <trkpt lat="46.63568" lon="5.91737">
        <ele>791.5</ele>
        <time>2021-05-08T12:30:37Z</time>
      </trkpt>
      <trkpt lat="46.63573" lon="5.91735">
        <ele>790.5</ele>
        <time>2021-05-08T12:30:41Z</time>
      </trkpt>
      <trkpt lat="46.63578" lon="5.91734">
        <ele>788.8</ele>
        <time>2021-05-08T12:30:48Z</time>
      </trkpt>
      <trkpt lat="46.63582" lon="5.9173">
        <ele>787.9</ele>
        <time>2021-05-08T12:30:52Z</time>
      </trkpt>
      <trkpt lat="46.63586" lon="5.91727">
        <ele>786.9</ele>
        <time>2021-05-08T12:30:56Z</time>
      </trkpt>
      <trkpt lat="46.63591" lon="5.91724">
        <ele>785.9</ele>
        <time>2021-05-08T12:31:00Z</time>
      </trkpt>
      <trkpt lat="46.63595" lon="5.91721">
        <ele>784.8</ele>
        <time>2021-05-08T12:31:04Z</time>
      </trkpt>
      <trkpt lat="46.63598" lon="5.91716">
        <ele>783.8</ele>
        <time>2021-05-08T12:31:08Z</time>
      </trkpt>
      <trkpt lat="46.636" lon="5.9171">
        <ele>782.8</ele>
        <time>2021-05-08T12:31:13Z</time>
      </trkpt>
      <trkpt lat="46.63602" lon="5.91704">
        <ele>781.9</ele>
        <time>2021-05-08T12:31:19Z</time>
      </trkpt>
      <trkpt lat="46.63605" lon="5.91698">
        <ele>781</ele>
        <time>2021-05-08T12:31:25Z</time>
      </trkpt>
      <trkpt lat="46.63607" lon="5.91691">
        <ele>780.7</ele>
        <time>2021-05-08T12:31:30Z</time>
      </trkpt>
      <trkpt lat="46.63609" lon="5.91684">
        <ele>780.4</ele>
        <time>2021-05-08T12:31:34Z</time>
      </trkpt>
      <trkpt lat="46.63612" lon="5.91674">
        <ele>780.7</ele>
        <time>2021-05-08T12:31:38Z</time>
      </trkpt>
      <trkpt lat="46.63614" lon="5.91663">
        <ele>781.7</ele>
        <time>2021-05-08T12:31:42Z</time>
      </trkpt>
      <trkpt lat="46.63614" lon="5.91655">
        <ele>782.2</ele>
        <time>2021-05-08T12:31:47Z</time>
      </trkpt>
      <trkpt lat="46.63614" lon="5.91649">
        <ele>782.5</ele>
        <time>2021-05-08T12:31:53Z</time>
      </trkpt>
      <trkpt lat="46.63617" lon="5.91642">
        <ele>782.6</ele>
        <time>2021-05-08T12:31:58Z</time>
      </trkpt>
      <trkpt lat="46.63618" lon="5.91632">
        <ele>783.4</ele>
        <time>2021-05-08T12:32:02Z</time>
      </trkpt>
      <trkpt lat="46.63619" lon="5.91625">
        <ele>783.9</ele>
        <time>2021-05-08T12:32:07Z</time>
      </trkpt>
      <trkpt lat="46.63617" lon="5.91617">
        <ele>783.7</ele>
        <time>2021-05-08T12:32:12Z</time>
      </trkpt>
      <trkpt lat="46.63619" lon="5.91611">
        <ele>781.4</ele>
        <time>2021-05-08T12:32:23Z</time>
      </trkpt>
      <trkpt lat="46.63622" lon="5.91606">
        <ele>780.7</ele>
        <time>2021-05-08T12:32:27Z</time>
      </trkpt>
      <trkpt lat="46.63625" lon="5.91602">
        <ele>779.8</ele>
        <time>2021-05-08T12:32:31Z</time>
      </trkpt>
      <trkpt lat="46.63629" lon="5.91587">
        <ele>780.9</ele>
        <time>2021-05-08T12:32:36Z</time>
      </trkpt>
      <trkpt lat="46.63632" lon="5.91575">
        <ele>782.8</ele>
        <time>2021-05-08T12:32:40Z</time>
      </trkpt>
      <trkpt lat="46.63636" lon="5.91569">
        <ele>784.8</ele>
        <time>2021-05-08T12:32:45Z</time>
      </trkpt>
      <trkpt lat="46.63639" lon="5.91565">
        <ele>786.5</ele>
        <time>2021-05-08T12:32:50Z</time>
      </trkpt>
      <trkpt lat="46.63643" lon="5.9156">
        <ele>787.7</ele>
        <time>2021-05-08T12:32:55Z</time>
      </trkpt>
      <trkpt lat="46.63644" lon="5.91553">
        <ele>788.3</ele>
        <time>2021-05-08T12:32:59Z</time>
      </trkpt>
      <trkpt lat="46.63645" lon="5.91546">
        <ele>788.7</ele>
        <time>2021-05-08T12:33:04Z</time>
      </trkpt>
      <trkpt lat="46.63646" lon="5.91538">
        <ele>788.8</ele>
        <time>2021-05-08T12:33:09Z</time>
      </trkpt>
      <trkpt lat="46.63648" lon="5.91531">
        <ele>788.5</ele>
        <time>2021-05-08T12:33:13Z</time>
      </trkpt>
      <trkpt lat="46.6365" lon="5.91524">
        <ele>788.3</ele>
        <time>2021-05-08T12:33:18Z</time>
      </trkpt>
      <trkpt lat="46.63654" lon="5.91517">
        <ele>788.1</ele>
        <time>2021-05-08T12:33:22Z</time>
      </trkpt>
      <trkpt lat="46.63656" lon="5.9151">
        <ele>787.8</ele>
        <time>2021-05-08T12:33:26Z</time>
      </trkpt>
      <trkpt lat="46.63658" lon="5.91502">
        <ele>787.5</ele>
        <time>2021-05-08T12:33:30Z</time>
      </trkpt>
      <trkpt lat="46.63658" lon="5.91495">
        <ele>787.4</ele>
        <time>2021-05-08T12:33:34Z</time>
      </trkpt>
      <trkpt lat="46.63658" lon="5.91487">
        <ele>787.3</ele>
        <time>2021-05-08T12:33:39Z</time>
      </trkpt>
      <trkpt lat="46.63657" lon="5.9148">
        <ele>787.3</ele>
        <time>2021-05-08T12:33:44Z</time>
      </trkpt>
      <trkpt lat="46.63655" lon="5.91474">
        <ele>787.5</ele>
        <time>2021-05-08T12:33:50Z</time>
      </trkpt>
      <trkpt lat="46.63652" lon="5.91467">
        <ele>787.4</ele>
        <time>2021-05-08T12:33:56Z</time>
      </trkpt>
      <trkpt lat="46.63649" lon="5.91462">
        <ele>787.3</ele>
        <time>2021-05-08T12:34:00Z</time>
      </trkpt>
      <trkpt lat="46.63649" lon="5.91455">
        <ele>787.2</ele>
        <time>2021-05-08T12:34:06Z</time>
      </trkpt>
      <trkpt lat="46.63651" lon="5.91449">
        <ele>787.2</ele>
        <time>2021-05-08T12:34:11Z</time>
      </trkpt>
      <trkpt lat="46.63655" lon="5.91443">
        <ele>786.9</ele>
        <time>2021-05-08T12:34:22Z</time>
      </trkpt>
      <trkpt lat="46.63659" lon="5.9144">
        <ele>786.9</ele>
        <time>2021-05-08T12:34:26Z</time>
      </trkpt>
      <trkpt lat="46.63664" lon="5.91434">
        <ele>788.6</ele>
        <time>2021-05-08T12:34:30Z</time>
      </trkpt>
      <trkpt lat="46.63669" lon="5.9143">
        <ele>789.6</ele>
        <time>2021-05-08T12:34:35Z</time>
      </trkpt>
      <trkpt lat="46.63673" lon="5.91425">
        <ele>790.1</ele>
        <time>2021-05-08T12:34:39Z</time>
      </trkpt>
      <trkpt lat="46.63676" lon="5.9142">
        <ele>790.6</ele>
        <time>2021-05-08T12:34:44Z</time>
      </trkpt>
      <trkpt lat="46.6368" lon="5.91416">
        <ele>790.4</ele>
        <time>2021-05-08T12:34:51Z</time>
      </trkpt>
      <trkpt lat="46.63685" lon="5.91413">
        <ele>789.8</ele>
        <time>2021-05-08T12:34:56Z</time>
      </trkpt>
      <trkpt lat="46.63693" lon="5.91408">
        <ele>790</ele>
        <time>2021-05-08T12:35:00Z</time>
      </trkpt>
      <trkpt lat="46.63698" lon="5.91406">
        <ele>790.4</ele>
        <time>2021-05-08T12:35:07Z</time>
      </trkpt>
      <trkpt lat="46.63703" lon="5.91404">
        <ele>790.6</ele>
        <time>2021-05-08T12:35:12Z</time>
      </trkpt>
      <trkpt lat="46.63708" lon="5.91401">
        <ele>790.6</ele>
        <time>2021-05-08T12:35:19Z</time>
      </trkpt>
      <trkpt lat="46.63712" lon="5.91395">
        <ele>790.2</ele>
        <time>2021-05-08T12:35:25Z</time>
      </trkpt>
      <trkpt lat="46.63714" lon="5.9139">
        <ele>789.8</ele>
        <time>2021-05-08T12:35:29Z</time>
      </trkpt>
      <trkpt lat="46.63716" lon="5.91382">
        <ele>789.1</ele>
        <time>2021-05-08T12:35:34Z</time>
      </trkpt>
      <trkpt lat="46.63719" lon="5.91376">
        <ele>788.4</ele>
        <time>2021-05-08T12:35:40Z</time>
      </trkpt>
      <trkpt lat="46.63721" lon="5.91369">
        <ele>787.9</ele>
        <time>2021-05-08T12:35:45Z</time>
      </trkpt>
      <trkpt lat="46.63723" lon="5.91358">
        <ele>787.1</ele>
        <time>2021-05-08T12:35:52Z</time>
      </trkpt>
      <trkpt lat="46.63726" lon="5.9135">
        <ele>786.8</ele>
        <time>2021-05-08T12:35:56Z</time>
      </trkpt>
      <trkpt lat="46.63727" lon="5.91339">
        <ele>787</ele>
        <time>2021-05-08T12:36:00Z</time>
      </trkpt>
      <trkpt lat="46.63729" lon="5.91332">
        <ele>788.2</ele>
        <time>2021-05-08T12:36:04Z</time>
      </trkpt>
      <trkpt lat="46.63733" lon="5.91328">
        <ele>789.4</ele>
        <time>2021-05-08T12:36:12Z</time>
      </trkpt>
      <trkpt lat="46.63737" lon="5.91324">
        <ele>789.8</ele>
        <time>2021-05-08T12:36:18Z</time>
      </trkpt>
      <trkpt lat="46.63741" lon="5.9132">
        <ele>790</ele>
        <time>2021-05-08T12:36:25Z</time>
      </trkpt>
      <trkpt lat="46.63745" lon="5.91316">
        <ele>789.6</ele>
        <time>2021-05-08T12:36:32Z</time>
      </trkpt>
      <trkpt lat="46.63748" lon="5.91312">
        <ele>788.7</ele>
        <time>2021-05-08T12:36:38Z</time>
      </trkpt>
      <trkpt lat="46.63752" lon="5.91307">
        <ele>787.6</ele>
        <time>2021-05-08T12:36:44Z</time>
      </trkpt>
      <trkpt lat="46.63756" lon="5.91302">
        <ele>786.6</ele>
        <time>2021-05-08T12:36:49Z</time>
      </trkpt>
      <trkpt lat="46.63762" lon="5.91291">
        <ele>785.4</ele>
        <time>2021-05-08T12:36:53Z</time>
      </trkpt>
      <trkpt lat="46.63766" lon="5.91285">
        <ele>784.8</ele>
        <time>2021-05-08T12:36:57Z</time>
      </trkpt>
      <trkpt lat="46.6377" lon="5.91285">
        <ele>784.3</ele>
        <time>2021-05-08T12:37:03Z</time>
      </trkpt>
      <trkpt lat="46.63776" lon="5.91285">
        <ele>783.9</ele>
        <time>2021-05-08T12:37:09Z</time>
      </trkpt>
      <trkpt lat="46.6378" lon="5.91284">
        <ele>783.6</ele>
        <time>2021-05-08T12:37:13Z</time>
      </trkpt>
      <trkpt lat="46.63784" lon="5.91287">
        <ele>782.1</ele>
        <time>2021-05-08T12:37:22Z</time>
      </trkpt>
      <trkpt lat="46.63789" lon="5.91288">
        <ele>780.5</ele>
        <time>2021-05-08T12:37:26Z</time>
      </trkpt>
      <trkpt lat="46.63794" lon="5.91291">
        <ele>778.8</ele>
        <time>2021-05-08T12:37:31Z</time>
      </trkpt>
      <trkpt lat="46.63798" lon="5.91296">
        <ele>777.3</ele>
        <time>2021-05-08T12:37:36Z</time>
      </trkpt>
      <trkpt lat="46.63803" lon="5.91298">
        <ele>776</ele>
        <time>2021-05-08T12:37:41Z</time>
      </trkpt>
      <trkpt lat="46.63807" lon="5.91301">
        <ele>774.8</ele>
        <time>2021-05-08T12:37:51Z</time>
      </trkpt>
      <trkpt lat="46.63813" lon="5.913">
        <ele>774.5</ele>
        <time>2021-05-08T12:37:57Z</time>
      </trkpt>
      <trkpt lat="46.63818" lon="5.913">
        <ele>774.2</ele>
        <time>2021-05-08T12:38:03Z</time>
      </trkpt>
      <trkpt lat="46.63823" lon="5.91298">
        <ele>773.8</ele>
        <time>2021-05-08T12:38:08Z</time>
      </trkpt>
      <trkpt lat="46.63833" lon="5.91297">
        <ele>774.1</ele>
        <time>2021-05-08T12:38:13Z</time>
      </trkpt>
      <trkpt lat="46.6384" lon="5.91296">
        <ele>774.7</ele>
        <time>2021-05-08T12:38:17Z</time>
      </trkpt>
      <trkpt lat="46.63845" lon="5.91298">
        <ele>775.2</ele>
        <time>2021-05-08T12:38:22Z</time>
      </trkpt>
      <trkpt lat="46.63849" lon="5.91302">
        <ele>775.4</ele>
        <time>2021-05-08T12:38:28Z</time>
      </trkpt>
      <trkpt lat="46.63853" lon="5.91306">
        <ele>775.2</ele>
        <time>2021-05-08T12:38:34Z</time>
      </trkpt>
      <trkpt lat="46.63864" lon="5.91307">
        <ele>774.8</ele>
        <time>2021-05-08T12:38:41Z</time>
      </trkpt>
      <trkpt lat="46.63872" lon="5.91306">
        <ele>774.8</ele>
        <time>2021-05-08T12:38:45Z</time>
      </trkpt>
      <trkpt lat="46.63875" lon="5.91313">
        <ele>774.6</ele>
        <time>2021-05-08T12:38:51Z</time>
      </trkpt>
      <trkpt lat="46.63877" lon="5.91319">
        <ele>773.7</ele>
        <time>2021-05-08T12:39:07Z</time>
      </trkpt>
      <trkpt lat="46.63879" lon="5.91326">
        <ele>773.5</ele>
        <time>2021-05-08T12:39:13Z</time>
      </trkpt>
      <trkpt lat="46.63878" lon="5.91332">
        <ele>772.6</ele>
        <time>2021-05-08T12:39:17Z</time>
      </trkpt>
      <trkpt lat="46.6388" lon="5.91339">
        <ele>771.2</ele>
        <time>2021-05-08T12:39:21Z</time>
      </trkpt>
      <trkpt lat="46.63883" lon="5.91344">
        <ele>769.1</ele>
        <time>2021-05-08T12:39:26Z</time>
      </trkpt>
      <trkpt lat="46.63886" lon="5.91349">
        <ele>766.5</ele>
        <time>2021-05-08T12:39:32Z</time>
      </trkpt>
      <trkpt lat="46.63887" lon="5.91356">
        <ele>764.3</ele>
        <time>2021-05-08T12:39:38Z</time>
      </trkpt>
      <trkpt lat="46.6389" lon="5.91351">
        <ele>763.3</ele>
        <time>2021-05-08T12:39:57Z</time>
      </trkpt>
      <trkpt lat="46.6389" lon="5.91358">
        <ele>763.5</ele>
        <time>2021-05-08T12:40:14Z</time>
      </trkpt>
      <trkpt lat="46.63894" lon="5.91364">
        <ele>763.7</ele>
        <time>2021-05-08T12:40:19Z</time>
      </trkpt>
      <trkpt lat="46.63897" lon="5.91369">
        <ele>763.5</ele>
        <time>2021-05-08T12:40:24Z</time>
      </trkpt>
      <trkpt lat="46.63901" lon="5.91373">
        <ele>763.3</ele>
        <time>2021-05-08T12:40:29Z</time>
      </trkpt>
      <trkpt lat="46.63906" lon="5.91376">
        <ele>763.3</ele>
        <time>2021-05-08T12:40:33Z</time>
      </trkpt>
      <trkpt lat="46.63909" lon="5.9138">
        <ele>763.2</ele>
        <time>2021-05-08T12:40:38Z</time>
      </trkpt>
      <trkpt lat="46.63914" lon="5.91384">
        <ele>762.9</ele>
        <time>2021-05-08T12:40:42Z</time>
      </trkpt>
      <trkpt lat="46.63918" lon="5.91389">
        <ele>762.5</ele>
        <time>2021-05-08T12:40:47Z</time>
      </trkpt>
      <trkpt lat="46.63922" lon="5.91395">
        <ele>761.9</ele>
        <time>2021-05-08T12:40:52Z</time>
      </trkpt>
      <trkpt lat="46.63926" lon="5.91399">
        <ele>761.3</ele>
        <time>2021-05-08T12:40:57Z</time>
      </trkpt>
      <trkpt lat="46.63931" lon="5.91403">
        <ele>760.8</ele>
        <time>2021-05-08T12:41:01Z</time>
      </trkpt>
      <trkpt lat="46.63936" lon="5.91407">
        <ele>760.4</ele>
        <time>2021-05-08T12:41:05Z</time>
      </trkpt>
      <trkpt lat="46.6394" lon="5.91412">
        <ele>760</ele>
        <time>2021-05-08T12:41:10Z</time>
      </trkpt>
      <trkpt lat="46.63943" lon="5.91419">
        <ele>759.3</ele>
        <time>2021-05-08T12:41:15Z</time>
      </trkpt>
      <trkpt lat="46.63944" lon="5.91425">
        <ele>757.9</ele>
        <time>2021-05-08T12:41:19Z</time>
      </trkpt>
      <trkpt lat="46.63944" lon="5.91433">
        <ele>755.3</ele>
        <time>2021-05-08T12:41:25Z</time>
      </trkpt>
      <trkpt lat="46.63947" lon="5.91438">
        <ele>753.5</ele>
        <time>2021-05-08T12:41:30Z</time>
      </trkpt>
      <trkpt lat="46.63958" lon="5.91438">
        <ele>753.7</ele>
        <time>2021-05-08T12:41:34Z</time>
      </trkpt>
      <trkpt lat="46.63962" lon="5.91443">
        <ele>753</ele>
        <time>2021-05-08T12:41:39Z</time>
      </trkpt>
      <trkpt lat="46.63965" lon="5.91449">
        <ele>752</ele>
        <time>2021-05-08T12:41:44Z</time>
      </trkpt>
      <trkpt lat="46.63968" lon="5.91455">
        <ele>750.9</ele>
        <time>2021-05-08T12:41:49Z</time>
      </trkpt>
      <trkpt lat="46.63971" lon="5.9146">
        <ele>750</ele>
        <time>2021-05-08T12:41:54Z</time>
      </trkpt>
      <trkpt lat="46.63972" lon="5.91468">
        <ele>748.8</ele>
        <time>2021-05-08T12:42:01Z</time>
      </trkpt>
      <trkpt lat="46.63975" lon="5.91473">
        <ele>748.8</ele>
        <time>2021-05-08T12:42:05Z</time>
      </trkpt>
      <trkpt lat="46.63979" lon="5.91478">
        <ele>749</ele>
        <time>2021-05-08T12:42:09Z</time>
      </trkpt>
      <trkpt lat="46.63985" lon="5.91482">
        <ele>750.2</ele>
        <time>2021-05-08T12:42:13Z</time>
      </trkpt>
      <trkpt lat="46.63989" lon="5.91486">
        <ele>751.7</ele>
        <time>2021-05-08T12:42:17Z</time>
      </trkpt>
      <trkpt lat="46.63993" lon="5.9149">
        <ele>755.2</ele>
        <time>2021-05-08T12:42:22Z</time>
      </trkpt>
      <trkpt lat="46.63999" lon="5.91493">
        <ele>759.9</ele>
        <time>2021-05-08T12:42:26Z</time>
      </trkpt>
      <trkpt lat="46.64004" lon="5.91498">
        <ele>764</ele>
        <time>2021-05-08T12:42:30Z</time>
      </trkpt>
      <trkpt lat="46.64008" lon="5.91502">
        <ele>770.6</ele>
        <time>2021-05-08T12:43:08Z</time>
      </trkpt>
      <trkpt lat="46.64013" lon="5.91503">
        <ele>770.5</ele>
        <time>2021-05-08T12:43:17Z</time>
      </trkpt>
      <trkpt lat="46.64017" lon="5.91506">
        <ele>770.2</ele>
        <time>2021-05-08T12:43:25Z</time>
      </trkpt>
      <trkpt lat="46.64021" lon="5.91512">
        <ele>769.7</ele>
        <time>2021-05-08T12:43:30Z</time>
      </trkpt>
      <trkpt lat="46.64026" lon="5.91514">
        <ele>768.7</ele>
        <time>2021-05-08T12:43:34Z</time>
      </trkpt>
      <trkpt lat="46.6403" lon="5.91517">
        <ele>767.9</ele>
        <time>2021-05-08T12:43:39Z</time>
      </trkpt>
      <trkpt lat="46.64033" lon="5.91522">
        <ele>766.9</ele>
        <time>2021-05-08T12:43:45Z</time>
      </trkpt>
      <trkpt lat="46.64034" lon="5.91528">
        <ele>766.2</ele>
        <time>2021-05-08T12:43:49Z</time>
      </trkpt>
      <trkpt lat="46.64035" lon="5.91535">
        <ele>765.3</ele>
        <time>2021-05-08T12:43:53Z</time>
      </trkpt>
      <trkpt lat="46.64039" lon="5.9154">
        <ele>764.5</ele>
        <time>2021-05-08T12:43:57Z</time>
      </trkpt>
      <trkpt lat="46.64045" lon="5.91543">
        <ele>763.4</ele>
        <time>2021-05-08T12:44:01Z</time>
      </trkpt>
      <trkpt lat="46.6405" lon="5.91547">
        <ele>762.4</ele>
        <time>2021-05-08T12:44:05Z</time>
      </trkpt>
      <trkpt lat="46.64055" lon="5.9155">
        <ele>761.6</ele>
        <time>2021-05-08T12:44:09Z</time>
      </trkpt>
      <trkpt lat="46.64059" lon="5.91555">
        <ele>761.4</ele>
        <time>2021-05-08T12:44:14Z</time>
      </trkpt>
      <trkpt lat="46.64062" lon="5.9156">
        <ele>761.4</ele>
        <time>2021-05-08T12:44:20Z</time>
      </trkpt>
      <trkpt lat="46.64065" lon="5.91565">
        <ele>761.5</ele>
        <time>2021-05-08T12:44:25Z</time>
      </trkpt>
      <trkpt lat="46.64068" lon="5.9157">
        <ele>761.4</ele>
        <time>2021-05-08T12:44:30Z</time>
      </trkpt>
      <trkpt lat="46.64073" lon="5.91574">
        <ele>761</ele>
        <time>2021-05-08T12:44:35Z</time>
      </trkpt>
      <trkpt lat="46.64075" lon="5.9158">
        <ele>760.5</ele>
        <time>2021-05-08T12:44:40Z</time>
      </trkpt>
      <trkpt lat="46.6408" lon="5.91584">
        <ele>759.9</ele>
        <time>2021-05-08T12:44:45Z</time>
      </trkpt>
      <trkpt lat="46.64083" lon="5.9159">
        <ele>759.4</ele>
        <time>2021-05-08T12:44:50Z</time>
      </trkpt>
      <trkpt lat="46.64086" lon="5.91596">
        <ele>759</ele>
        <time>2021-05-08T12:44:55Z</time>
      </trkpt>
      <trkpt lat="46.64088" lon="5.91603">
        <ele>758.7</ele>
        <time>2021-05-08T12:45:01Z</time>
      </trkpt>
      <trkpt lat="46.6409" lon="5.91609">
        <ele>758.5</ele>
        <time>2021-05-08T12:45:07Z</time>
      </trkpt>
      <trkpt lat="46.64096" lon="5.9161">
        <ele>756.8</ele>
        <time>2021-05-08T12:45:11Z</time>
      </trkpt>
      <trkpt lat="46.64102" lon="5.91611">
        <ele>754.9</ele>
        <time>2021-05-08T12:45:15Z</time>
      </trkpt>
      <trkpt lat="46.64106" lon="5.91616">
        <ele>753</ele>
        <time>2021-05-08T12:45:22Z</time>
      </trkpt>
      <trkpt lat="46.64109" lon="5.9162">
        <ele>751.9</ele>
        <time>2021-05-08T12:45:28Z</time>
      </trkpt>
      <trkpt lat="46.64112" lon="5.91625">
        <ele>751.2</ele>
        <time>2021-05-08T12:45:33Z</time>
      </trkpt>
      <trkpt lat="46.64118" lon="5.91627">
        <ele>752.2</ele>
        <time>2021-05-08T12:45:37Z</time>
      </trkpt>
      <trkpt lat="46.64123" lon="5.9163">
        <ele>752.5</ele>
        <time>2021-05-08T12:45:42Z</time>
      </trkpt>
      <trkpt lat="46.64126" lon="5.91634">
        <ele>752.4</ele>
        <time>2021-05-08T12:45:46Z</time>
      </trkpt>
      <trkpt lat="46.6413" lon="5.9164">
        <ele>752.2</ele>
        <time>2021-05-08T12:45:51Z</time>
      </trkpt>
      <trkpt lat="46.64135" lon="5.91644">
        <ele>752.1</ele>
        <time>2021-05-08T12:45:55Z</time>
      </trkpt>
      <trkpt lat="46.6414" lon="5.91647">
        <ele>752</ele>
        <time>2021-05-08T12:45:59Z</time>
      </trkpt>
      <trkpt lat="46.64145" lon="5.91652">
        <ele>751.7</ele>
        <time>2021-05-08T12:46:03Z</time>
      </trkpt>
      <trkpt lat="46.64149" lon="5.91656">
        <ele>751.2</ele>
        <time>2021-05-08T12:46:09Z</time>
      </trkpt>
      <trkpt lat="46.64154" lon="5.9166">
        <ele>750.9</ele>
        <time>2021-05-08T12:46:15Z</time>
      </trkpt>
      <trkpt lat="46.64157" lon="5.91664">
        <ele>750.5</ele>
        <time>2021-05-08T12:46:21Z</time>
      </trkpt>
      <trkpt lat="46.6416" lon="5.9167">
        <ele>750</ele>
        <time>2021-05-08T12:46:27Z</time>
      </trkpt>
      <trkpt lat="46.64162" lon="5.91676">
        <ele>749.3</ele>
        <time>2021-05-08T12:46:34Z</time>
      </trkpt>
      <trkpt lat="46.64165" lon="5.91681">
        <ele>748.7</ele>
        <time>2021-05-08T12:46:40Z</time>
      </trkpt>
      <trkpt lat="46.64168" lon="5.91687">
        <ele>747.9</ele>
        <time>2021-05-08T12:46:45Z</time>
      </trkpt>
      <trkpt lat="46.64173" lon="5.91689">
        <ele>746.8</ele>
        <time>2021-05-08T12:46:50Z</time>
      </trkpt>
      <trkpt lat="46.6418" lon="5.91689">
        <ele>746.5</ele>
        <time>2021-05-08T12:46:54Z</time>
      </trkpt>
      <trkpt lat="46.64184" lon="5.91694">
        <ele>745.9</ele>
        <time>2021-05-08T12:46:59Z</time>
      </trkpt>
      <trkpt lat="46.64185" lon="5.91702">
        <ele>745.6</ele>
        <time>2021-05-08T12:47:04Z</time>
      </trkpt>
      <trkpt lat="46.64186" lon="5.91709">
        <ele>744.6</ele>
        <time>2021-05-08T12:47:09Z</time>
      </trkpt>
      <trkpt lat="46.64188" lon="5.91715">
        <ele>742.7</ele>
        <time>2021-05-08T12:47:14Z</time>
      </trkpt>
      <trkpt lat="46.64189" lon="5.91723">
        <ele>739.9</ele>
        <time>2021-05-08T12:47:20Z</time>
      </trkpt>
      <trkpt lat="46.64195" lon="5.91726">
        <ele>738.5</ele>
        <time>2021-05-08T12:47:24Z</time>
      </trkpt>
      <trkpt lat="46.64199" lon="5.91729">
        <ele>737.4</ele>
        <time>2021-05-08T12:47:28Z</time>
      </trkpt>
      <trkpt lat="46.64205" lon="5.91731">
        <ele>736.6</ele>
        <time>2021-05-08T12:47:32Z</time>
      </trkpt>
      <trkpt lat="46.64212" lon="5.91734">
        <ele>736.8</ele>
        <time>2021-05-08T12:47:36Z</time>
      </trkpt>
      <trkpt lat="46.64216" lon="5.91738">
        <ele>737</ele>
        <time>2021-05-08T12:47:42Z</time>
      </trkpt>
      <trkpt lat="46.64218" lon="5.91744">
        <ele>736.8</ele>
        <time>2021-05-08T12:47:47Z</time>
      </trkpt>
      <trkpt lat="46.6422" lon="5.9175">
        <ele>736.5</ele>
        <time>2021-05-08T12:47:52Z</time>
      </trkpt>
      <trkpt lat="46.64222" lon="5.91756">
        <ele>736.3</ele>
        <time>2021-05-08T12:47:56Z</time>
      </trkpt>
      <trkpt lat="46.64225" lon="5.91762">
        <ele>736.3</ele>
        <time>2021-05-08T12:48:01Z</time>
      </trkpt>
      <trkpt lat="46.6423" lon="5.91765">
        <ele>736.5</ele>
        <time>2021-05-08T12:48:05Z</time>
      </trkpt>
      <trkpt lat="46.64236" lon="5.91767">
        <ele>737.6</ele>
        <time>2021-05-08T12:48:09Z</time>
      </trkpt>
      <trkpt lat="46.6424" lon="5.91771">
        <ele>739.1</ele>
        <time>2021-05-08T12:48:13Z</time>
      </trkpt>
      <trkpt lat="46.64243" lon="5.91777">
        <ele>740.1</ele>
        <time>2021-05-08T12:48:19Z</time>
      </trkpt>
      <trkpt lat="46.64245" lon="5.91783">
        <ele>741.3</ele>
        <time>2021-05-08T12:48:27Z</time>
      </trkpt>
      <trkpt lat="46.6425" lon="5.91785">
        <ele>743.6</ele>
        <time>2021-05-08T12:48:55Z</time>
      </trkpt>
      <trkpt lat="46.64251" lon="5.91792">
        <ele>743.8</ele>
        <time>2021-05-08T12:49:00Z</time>
      </trkpt>
      <trkpt lat="46.64254" lon="5.91799">
        <ele>744</ele>
        <time>2021-05-08T12:49:06Z</time>
      </trkpt>
      <trkpt lat="46.64258" lon="5.91803">
        <ele>744.5</ele>
        <time>2021-05-08T12:49:11Z</time>
      </trkpt>
      <trkpt lat="46.64274" lon="5.91805">
        <ele>748.5</ele>
        <time>2021-05-08T12:49:15Z</time>
      </trkpt>
      <trkpt lat="46.64277" lon="5.91808">
        <ele>750.6</ele>
        <time>2021-05-08T12:49:19Z</time>
      </trkpt>
      <trkpt lat="46.6428" lon="5.91815">
        <ele>752.5</ele>
        <time>2021-05-08T12:49:25Z</time>
      </trkpt>
      <trkpt lat="46.64282" lon="5.91821">
        <ele>753.8</ele>
        <time>2021-05-08T12:49:31Z</time>
      </trkpt>
      <trkpt lat="46.64284" lon="5.91827">
        <ele>754.5</ele>
        <time>2021-05-08T12:49:36Z</time>
      </trkpt>
      <trkpt lat="46.64285" lon="5.91834">
        <ele>755.3</ele>
        <time>2021-05-08T12:49:42Z</time>
      </trkpt>
      <trkpt lat="46.64287" lon="5.91841">
        <ele>756.1</ele>
        <time>2021-05-08T12:49:48Z</time>
      </trkpt>
      <trkpt lat="46.64291" lon="5.91845">
        <ele>757.6</ele>
        <time>2021-05-08T12:49:55Z</time>
      </trkpt>
      <trkpt lat="46.64295" lon="5.91847">
        <ele>758.8</ele>
        <time>2021-05-08T12:50:01Z</time>
      </trkpt>
      <trkpt lat="46.643" lon="5.91848">
        <ele>759.5</ele>
        <time>2021-05-08T12:50:06Z</time>
      </trkpt>
      <trkpt lat="46.64304" lon="5.91847">
        <ele>760</ele>
        <time>2021-05-08T12:50:10Z</time>
      </trkpt>
      <trkpt lat="46.6431" lon="5.91848">
        <ele>760.1</ele>
        <time>2021-05-08T12:50:14Z</time>
      </trkpt>
      <trkpt lat="46.64316" lon="5.91849">
        <ele>760.2</ele>
        <time>2021-05-08T12:50:18Z</time>
      </trkpt>
      <trkpt lat="46.64322" lon="5.91852">
        <ele>759.8</ele>
        <time>2021-05-08T12:50:22Z</time>
      </trkpt>
      <trkpt lat="46.64326" lon="5.91853">
        <ele>759.6</ele>
        <time>2021-05-08T12:50:26Z</time>
      </trkpt>
      <trkpt lat="46.64331" lon="5.91857">
        <ele>759.2</ele>
        <time>2021-05-08T12:50:32Z</time>
      </trkpt>
      <trkpt lat="46.64334" lon="5.91862">
        <ele>758.4</ele>
        <time>2021-05-08T12:50:39Z</time>
      </trkpt>
      <trkpt lat="46.64338" lon="5.91866">
        <ele>757.4</ele>
        <time>2021-05-08T12:50:43Z</time>
      </trkpt>
      <trkpt lat="46.64343" lon="5.91869">
        <ele>756.9</ele>
        <time>2021-05-08T12:50:47Z</time>
      </trkpt>
      <trkpt lat="46.64347" lon="5.91872">
        <ele>755.5</ele>
        <time>2021-05-08T12:50:53Z</time>
      </trkpt>
      <trkpt lat="46.6435" lon="5.91877">
        <ele>751.9</ele>
        <time>2021-05-08T12:51:01Z</time>
      </trkpt>
      <trkpt lat="46.64355" lon="5.91876">
        <ele>751</ele>
        <time>2021-05-08T12:51:13Z</time>
      </trkpt>
      <trkpt lat="46.64358" lon="5.91881">
        <ele>751.8</ele>
        <time>2021-05-08T12:51:19Z</time>
      </trkpt>
      <trkpt lat="46.64361" lon="5.91885">
        <ele>752.7</ele>
        <time>2021-05-08T12:51:23Z</time>
      </trkpt>
      <trkpt lat="46.64365" lon="5.91891">
        <ele>753.7</ele>
        <time>2021-05-08T12:51:27Z</time>
      </trkpt>
      <trkpt lat="46.64378" lon="5.91891">
        <ele>753.3</ele>
        <time>2021-05-08T12:51:31Z</time>
      </trkpt>
      <trkpt lat="46.64383" lon="5.91893">
        <ele>753.7</ele>
        <time>2021-05-08T12:51:35Z</time>
      </trkpt>
      <trkpt lat="46.64387" lon="5.91897">
        <ele>754.2</ele>
        <time>2021-05-08T12:51:41Z</time>
      </trkpt>
      <trkpt lat="46.64391" lon="5.91902">
        <ele>754.7</ele>
        <time>2021-05-08T12:51:48Z</time>
      </trkpt>
      <trkpt lat="46.64394" lon="5.91907">
        <ele>755.7</ele>
        <time>2021-05-08T12:51:54Z</time>
      </trkpt>
      <trkpt lat="46.64394" lon="5.91914">
        <ele>755.9</ele>
        <time>2021-05-08T12:52:01Z</time>
      </trkpt>
      <trkpt lat="46.64398" lon="5.91918">
        <ele>755.7</ele>
        <time>2021-05-08T12:52:08Z</time>
      </trkpt>
      <trkpt lat="46.64403" lon="5.91922">
        <ele>755.4</ele>
        <time>2021-05-08T12:52:12Z</time>
      </trkpt>
      <trkpt lat="46.64407" lon="5.91925">
        <ele>755.6</ele>
        <time>2021-05-08T12:52:16Z</time>
      </trkpt>
      <trkpt lat="46.64412" lon="5.91926">
        <ele>755.9</ele>
        <time>2021-05-08T12:52:20Z</time>
      </trkpt>
      <trkpt lat="46.64419" lon="5.91929">
        <ele>755.9</ele>
        <time>2021-05-08T12:52:24Z</time>
      </trkpt>
      <trkpt lat="46.64423" lon="5.91934">
        <ele>756.2</ele>
        <time>2021-05-08T12:52:29Z</time>
      </trkpt>
      <trkpt lat="46.64427" lon="5.91938">
        <ele>756.6</ele>
        <time>2021-05-08T12:52:35Z</time>
      </trkpt>
      <trkpt lat="46.64429" lon="5.91944">
        <ele>756.7</ele>
        <time>2021-05-08T12:52:41Z</time>
      </trkpt>
      <trkpt lat="46.64431" lon="5.91951">
        <ele>756.6</ele>
        <time>2021-05-08T12:52:46Z</time>
      </trkpt>
      <trkpt lat="46.64435" lon="5.91956">
        <ele>756.5</ele>
        <time>2021-05-08T12:52:52Z</time>
      </trkpt>
      <trkpt lat="46.64438" lon="5.91962">
        <ele>756.1</ele>
        <time>2021-05-08T12:52:57Z</time>
      </trkpt>
      <trkpt lat="46.64443" lon="5.91965">
        <ele>755.7</ele>
        <time>2021-05-08T12:53:01Z</time>
      </trkpt>
      <trkpt lat="46.64449" lon="5.91969">
        <ele>755.1</ele>
        <time>2021-05-08T12:53:05Z</time>
      </trkpt>
      <trkpt lat="46.64457" lon="5.91969">
        <ele>755.3</ele>
        <time>2021-05-08T12:53:09Z</time>
      </trkpt>
      <trkpt lat="46.64462" lon="5.91969">
        <ele>755.7</ele>
        <time>2021-05-08T12:53:13Z</time>
      </trkpt>
      <trkpt lat="46.64467" lon="5.91967">
        <ele>756.8</ele>
        <time>2021-05-08T12:53:17Z</time>
      </trkpt>
      <trkpt lat="46.64469" lon="5.91961">
        <ele>760.6</ele>
        <time>2021-05-08T12:53:32Z</time>
      </trkpt>
      <trkpt lat="46.64472" lon="5.91956">
        <ele>760.9</ele>
        <time>2021-05-08T12:53:37Z</time>
      </trkpt>
      <trkpt lat="46.64476" lon="5.91953">
        <ele>761</ele>
        <time>2021-05-08T12:53:41Z</time>
      </trkpt>
      <trkpt lat="46.6448" lon="5.91949">
        <ele>761.1</ele>
        <time>2021-05-08T12:53:45Z</time>
      </trkpt>
      <trkpt lat="46.64484" lon="5.91943">
        <ele>760.7</ele>
        <time>2021-05-08T12:53:50Z</time>
      </trkpt>
      <trkpt lat="46.64487" lon="5.91937">
        <ele>760.4</ele>
        <time>2021-05-08T12:53:54Z</time>
      </trkpt>
      <trkpt lat="46.6449" lon="5.91932">
        <ele>760.5</ele>
        <time>2021-05-08T12:53:58Z</time>
      </trkpt>
      <trkpt lat="46.64492" lon="5.91922">
        <ele>761.3</ele>
        <time>2021-05-08T12:54:03Z</time>
      </trkpt>
      <trkpt lat="46.64494" lon="5.91917">
        <ele>762.4</ele>
        <time>2021-05-08T12:54:08Z</time>
      </trkpt>
      <trkpt lat="46.64498" lon="5.91912">
        <ele>763.2</ele>
        <time>2021-05-08T12:54:13Z</time>
      </trkpt>
      <trkpt lat="46.64501" lon="5.91907">
        <ele>763.6</ele>
        <time>2021-05-08T12:54:17Z</time>
      </trkpt>
      <trkpt lat="46.64504" lon="5.91901">
        <ele>764</ele>
        <time>2021-05-08T12:54:21Z</time>
      </trkpt>
      <trkpt lat="46.64507" lon="5.91896">
        <ele>764.3</ele>
        <time>2021-05-08T12:54:27Z</time>
      </trkpt>
      <trkpt lat="46.6451" lon="5.9189">
        <ele>764.6</ele>
        <time>2021-05-08T12:54:33Z</time>
      </trkpt>
      <trkpt lat="46.64513" lon="5.91884">
        <ele>764.6</ele>
        <time>2021-05-08T12:54:38Z</time>
      </trkpt>
      <trkpt lat="46.64516" lon="5.91879">
        <ele>764.5</ele>
        <time>2021-05-08T12:54:43Z</time>
      </trkpt>
      <trkpt lat="46.64518" lon="5.91873">
        <ele>764.4</ele>
        <time>2021-05-08T12:54:47Z</time>
      </trkpt>
      <trkpt lat="46.6452" lon="5.91865">
        <ele>764</ele>
        <time>2021-05-08T12:54:51Z</time>
      </trkpt>
      <trkpt lat="46.6452" lon="5.91858">
        <ele>764</ele>
        <time>2021-05-08T12:54:55Z</time>
      </trkpt>
      <trkpt lat="46.64519" lon="5.91852">
        <ele>764</ele>
        <time>2021-05-08T12:55:00Z</time>
      </trkpt>
      <trkpt lat="46.64519" lon="5.91845">
        <ele>764.1</ele>
        <time>2021-05-08T12:55:06Z</time>
      </trkpt>
      <trkpt lat="46.64517" lon="5.91838">
        <ele>763.9</ele>
        <time>2021-05-08T12:55:23Z</time>
      </trkpt>
      <trkpt lat="46.64518" lon="5.91831">
        <ele>764.4</ele>
        <time>2021-05-08T12:55:29Z</time>
      </trkpt>
      <trkpt lat="46.64521" lon="5.91826">
        <ele>765</ele>
        <time>2021-05-08T12:55:36Z</time>
      </trkpt>
      <trkpt lat="46.64524" lon="5.9182">
        <ele>765.4</ele>
        <time>2021-05-08T12:55:42Z</time>
      </trkpt>
      <trkpt lat="46.64528" lon="5.91815">
        <ele>765.6</ele>
        <time>2021-05-08T12:55:47Z</time>
      </trkpt>
      <trkpt lat="46.64531" lon="5.91811">
        <ele>765.8</ele>
        <time>2021-05-08T12:55:53Z</time>
      </trkpt>
      <trkpt lat="46.64535" lon="5.91808">
        <ele>765.9</ele>
        <time>2021-05-08T12:55:59Z</time>
      </trkpt>
      <trkpt lat="46.64539" lon="5.91803">
        <ele>766.1</ele>
        <time>2021-05-08T12:56:07Z</time>
      </trkpt>
      <trkpt lat="46.64542" lon="5.91797">
        <ele>766.3</ele>
        <time>2021-05-08T12:56:12Z</time>
      </trkpt>
      <trkpt lat="46.64546" lon="5.9179">
        <ele>766.6</ele>
        <time>2021-05-08T12:56:16Z</time>
      </trkpt>
      <trkpt lat="46.64546" lon="5.91783">
        <ele>766.2</ele>
        <time>2021-05-08T12:56:22Z</time>
      </trkpt>
      <trkpt lat="46.64549" lon="5.91778">
        <ele>765.6</ele>
        <time>2021-05-08T12:56:27Z</time>
      </trkpt>
      <trkpt lat="46.64553" lon="5.91768">
        <ele>763.7</ele>
        <time>2021-05-08T12:56:31Z</time>
      </trkpt>
      <trkpt lat="46.64557" lon="5.91763">
        <ele>762</ele>
        <time>2021-05-08T12:56:35Z</time>
      </trkpt>
      <trkpt lat="46.64562" lon="5.9176">
        <ele>760.7</ele>
        <time>2021-05-08T12:56:39Z</time>
      </trkpt>
      <trkpt lat="46.64566" lon="5.91756">
        <ele>759.2</ele>
        <time>2021-05-08T12:56:45Z</time>
      </trkpt>
      <trkpt lat="46.6457" lon="5.91752">
        <ele>758.5</ele>
        <time>2021-05-08T12:56:52Z</time>
      </trkpt>
      <trkpt lat="46.64575" lon="5.91751">
        <ele>757.5</ele>
        <time>2021-05-08T12:57:00Z</time>
      </trkpt>
      <trkpt lat="46.64573" lon="5.91735">
        <ele>761.6</ele>
        <time>2021-05-08T12:57:04Z</time>
      </trkpt>
      <trkpt lat="46.64574" lon="5.91728">
        <ele>765.1</ele>
        <time>2021-05-08T12:57:13Z</time>
      </trkpt>
      <trkpt lat="46.64579" lon="5.91727">
        <ele>766.1</ele>
        <time>2021-05-08T12:57:20Z</time>
      </trkpt>
      <trkpt lat="46.64584" lon="5.91732">
        <ele>766.3</ele>
        <time>2021-05-08T12:57:25Z</time>
      </trkpt>
      <trkpt lat="46.64589" lon="5.91738">
        <ele>764.7</ele>
        <time>2021-05-08T12:57:29Z</time>
      </trkpt>
      <trkpt lat="46.6459" lon="5.91745">
        <ele>763.1</ele>
        <time>2021-05-08T12:57:35Z</time>
      </trkpt>
      <trkpt lat="46.64598" lon="5.91747">
        <ele>761.7</ele>
        <time>2021-05-08T12:57:56Z</time>
      </trkpt>
      <trkpt lat="46.64603" lon="5.91747">
        <ele>761.8</ele>
        <time>2021-05-08T12:58:00Z</time>
      </trkpt>
      <trkpt lat="46.64598" lon="5.91749">
        <ele>760.6</ele>
        <time>2021-05-08T12:58:16Z</time>
      </trkpt>
      <trkpt lat="46.64595" lon="5.91744">
        <ele>760.3</ele>
        <time>2021-05-08T12:58:21Z</time>
      </trkpt>
      <trkpt lat="46.64594" lon="5.91737">
        <ele>760.9</ele>
        <time>2021-05-08T12:58:27Z</time>
      </trkpt>
      <trkpt lat="46.64593" lon="5.9173">
        <ele>760.9</ele>
        <time>2021-05-08T12:58:39Z</time>
      </trkpt>
      <trkpt lat="46.64593" lon="5.91722">
        <ele>761.4</ele>
        <time>2021-05-08T12:58:44Z</time>
      </trkpt>
      <trkpt lat="46.64595" lon="5.91716">
        <ele>761.7</ele>
        <time>2021-05-08T12:58:50Z</time>
      </trkpt>
      <trkpt lat="46.64599" lon="5.91711">
        <ele>761.4</ele>
        <time>2021-05-08T12:58:56Z</time>
      </trkpt>
      <trkpt lat="46.64601" lon="5.91704">
        <ele>761.3</ele>
        <time>2021-05-08T12:59:00Z</time>
      </trkpt>
      <trkpt lat="46.64604" lon="5.91698">
        <ele>761.4</ele>
        <time>2021-05-08T12:59:04Z</time>
      </trkpt>
      <trkpt lat="46.64608" lon="5.91693">
        <ele>761.4</ele>
        <time>2021-05-08T12:59:09Z</time>
      </trkpt>
      <trkpt lat="46.64612" lon="5.91688">
        <ele>761.3</ele>
        <time>2021-05-08T12:59:14Z</time>
      </trkpt>
      <trkpt lat="46.64616" lon="5.91684">
        <ele>760.8</ele>
        <time>2021-05-08T12:59:19Z</time>
      </trkpt>
      <trkpt lat="46.64621" lon="5.9168">
        <ele>760.1</ele>
        <time>2021-05-08T12:59:24Z</time>
      </trkpt>
      <trkpt lat="46.64624" lon="5.91675">
        <ele>759</ele>
        <time>2021-05-08T12:59:29Z</time>
      </trkpt>
      <trkpt lat="46.64628" lon="5.9167">
        <ele>758.2</ele>
        <time>2021-05-08T12:59:33Z</time>
      </trkpt>
      <trkpt lat="46.64631" lon="5.91664">
        <ele>757</ele>
        <time>2021-05-08T12:59:38Z</time>
      </trkpt>
      <trkpt lat="46.64634" lon="5.91657">
        <ele>756</ele>
        <time>2021-05-08T12:59:43Z</time>
      </trkpt>
      <trkpt lat="46.64637" lon="5.91651">
        <ele>755.2</ele>
        <time>2021-05-08T12:59:48Z</time>
      </trkpt>
      <trkpt lat="46.64639" lon="5.91645">
        <ele>754.1</ele>
        <time>2021-05-08T12:59:54Z</time>
      </trkpt>
      <trkpt lat="46.64638" lon="5.91638">
        <ele>750.9</ele>
        <time>2021-05-08T13:00:05Z</time>
      </trkpt>
      <trkpt lat="46.64637" lon="5.91631">
        <ele>748.6</ele>
        <time>2021-05-08T13:00:13Z</time>
      </trkpt>
      <trkpt lat="46.6463" lon="5.91619">
        <ele>750.2</ele>
        <time>2021-05-08T13:00:17Z</time>
      </trkpt>
      <trkpt lat="46.64625" lon="5.91612">
        <ele>752.3</ele>
        <time>2021-05-08T13:00:21Z</time>
      </trkpt>
      <trkpt lat="46.64627" lon="5.91605">
        <ele>753.6</ele>
        <time>2021-05-08T13:00:26Z</time>
      </trkpt>
      <trkpt lat="46.64631" lon="5.91598">
        <ele>753.8</ele>
        <time>2021-05-08T13:00:30Z</time>
      </trkpt>
      <trkpt lat="46.64635" lon="5.91591">
        <ele>753.7</ele>
        <time>2021-05-08T13:00:34Z</time>
      </trkpt>
      <trkpt lat="46.64638" lon="5.91584">
        <ele>753.1</ele>
        <time>2021-05-08T13:00:38Z</time>
      </trkpt>
      <trkpt lat="46.6464" lon="5.91576">
        <ele>752.5</ele>
        <time>2021-05-08T13:00:42Z</time>
      </trkpt>
      <trkpt lat="46.64641" lon="5.91569">
        <ele>751.7</ele>
        <time>2021-05-08T13:00:46Z</time>
      </trkpt>
      <trkpt lat="46.64642" lon="5.91563">
        <ele>750.8</ele>
        <time>2021-05-08T13:00:50Z</time>
      </trkpt>
      <trkpt lat="46.64642" lon="5.91555">
        <ele>749.6</ele>
        <time>2021-05-08T13:00:56Z</time>
      </trkpt>
      <trkpt lat="46.64642" lon="5.91547">
        <ele>748.7</ele>
        <time>2021-05-08T13:01:02Z</time>
      </trkpt>
      <trkpt lat="46.64643" lon="5.9154">
        <ele>748</ele>
        <time>2021-05-08T13:01:08Z</time>
      </trkpt>
      <trkpt lat="46.64644" lon="5.91531">
        <ele>747.9</ele>
        <time>2021-05-08T13:01:12Z</time>
      </trkpt>
      <trkpt lat="46.64643" lon="5.91524">
        <ele>747.9</ele>
        <time>2021-05-08T13:01:16Z</time>
      </trkpt>
      <trkpt lat="46.64643" lon="5.91516">
        <ele>747.8</ele>
        <time>2021-05-08T13:01:21Z</time>
      </trkpt>
      <trkpt lat="46.64641" lon="5.91509">
        <ele>747.8</ele>
        <time>2021-05-08T13:01:26Z</time>
      </trkpt>
      <trkpt lat="46.6464" lon="5.91502">
        <ele>747.6</ele>
        <time>2021-05-08T13:01:30Z</time>
      </trkpt>
      <trkpt lat="46.6464" lon="5.91495">
        <ele>747.3</ele>
        <time>2021-05-08T13:01:34Z</time>
      </trkpt>
      <trkpt lat="46.64638" lon="5.91488">
        <ele>747.4</ele>
        <time>2021-05-08T13:01:38Z</time>
      </trkpt>
      <trkpt lat="46.64634" lon="5.91483">
        <ele>747.8</ele>
        <time>2021-05-08T13:01:43Z</time>
      </trkpt>
      <trkpt lat="46.64631" lon="5.91477">
        <ele>747.9</ele>
        <time>2021-05-08T13:01:47Z</time>
      </trkpt>
      <trkpt lat="46.64627" lon="5.91472">
        <ele>747.8</ele>
        <time>2021-05-08T13:01:51Z</time>
      </trkpt>
      <trkpt lat="46.64622" lon="5.91468">
        <ele>747.8</ele>
        <time>2021-05-08T13:01:56Z</time>
      </trkpt>
      <trkpt lat="46.64618" lon="5.91465">
        <ele>747.8</ele>
        <time>2021-05-08T13:02:00Z</time>
      </trkpt>
      <trkpt lat="46.64613" lon="5.91462">
        <ele>747.9</ele>
        <time>2021-05-08T13:02:04Z</time>
      </trkpt>
      <trkpt lat="46.64608" lon="5.91459">
        <ele>747.8</ele>
        <time>2021-05-08T13:02:08Z</time>
      </trkpt>
      <trkpt lat="46.64603" lon="5.91455">
        <ele>747.5</ele>
        <time>2021-05-08T13:02:12Z</time>
      </trkpt>
      <trkpt lat="46.64598" lon="5.91452">
        <ele>746.9</ele>
        <time>2021-05-08T13:02:16Z</time>
      </trkpt>
      <trkpt lat="46.64593" lon="5.91448">
        <ele>746.4</ele>
        <time>2021-05-08T13:02:20Z</time>
      </trkpt>
      <trkpt lat="46.64589" lon="5.91446">
        <ele>746.1</ele>
        <time>2021-05-08T13:02:24Z</time>
      </trkpt>
      <trkpt lat="46.64584" lon="5.91444">
        <ele>745.1</ele>
        <time>2021-05-08T13:02:29Z</time>
      </trkpt>
      <trkpt lat="46.6458" lon="5.91441">
        <ele>742.8</ele>
        <time>2021-05-08T13:02:35Z</time>
      </trkpt>
      <trkpt lat="46.64575" lon="5.91436">
        <ele>741.6</ele>
        <time>2021-05-08T13:02:40Z</time>
      </trkpt>
      <trkpt lat="46.64571" lon="5.91432">
        <ele>741.4</ele>
        <time>2021-05-08T13:02:44Z</time>
      </trkpt>
      <trkpt lat="46.64566" lon="5.91429">
        <ele>741.1</ele>
        <time>2021-05-08T13:02:48Z</time>
      </trkpt>
      <trkpt lat="46.64562" lon="5.91426">
        <ele>740.7</ele>
        <time>2021-05-08T13:02:52Z</time>
      </trkpt>
      <trkpt lat="46.64557" lon="5.91422">
        <ele>740.4</ele>
        <time>2021-05-08T13:02:56Z</time>
      </trkpt>
      <trkpt lat="46.64553" lon="5.91418">
        <ele>739.9</ele>
        <time>2021-05-08T13:03:01Z</time>
      </trkpt>
      <trkpt lat="46.64549" lon="5.91414">
        <ele>740.2</ele>
        <time>2021-05-08T13:03:06Z</time>
      </trkpt>
      <trkpt lat="46.64545" lon="5.91409">
        <ele>741.2</ele>
        <time>2021-05-08T13:03:11Z</time>
      </trkpt>
      <trkpt lat="46.64542" lon="5.91404">
        <ele>743.5</ele>
        <time>2021-05-08T13:03:15Z</time>
      </trkpt>
      <trkpt lat="46.64539" lon="5.91398">
        <ele>745.9</ele>
        <time>2021-05-08T13:03:20Z</time>
      </trkpt>
      <trkpt lat="46.64534" lon="5.91394">
        <ele>747.3</ele>
        <time>2021-05-08T13:03:24Z</time>
      </trkpt>
      <trkpt lat="46.6453" lon="5.91389">
        <ele>748.3</ele>
        <time>2021-05-08T13:03:28Z</time>
      </trkpt>
      <trkpt lat="46.64526" lon="5.91385">
        <ele>749</ele>
        <time>2021-05-08T13:03:32Z</time>
      </trkpt>
      <trkpt lat="46.64521" lon="5.91382">
        <ele>749.5</ele>
        <time>2021-05-08T13:03:36Z</time>
      </trkpt>
      <trkpt lat="46.64517" lon="5.91379">
        <ele>749.7</ele>
        <time>2021-05-08T13:03:40Z</time>
      </trkpt>
      <trkpt lat="46.64517" lon="5.91371">
        <ele>751.8</ele>
        <time>2021-05-08T13:03:44Z</time>
      </trkpt>
      <trkpt lat="46.64513" lon="5.91366">
        <ele>753.4</ele>
        <time>2021-05-08T13:03:49Z</time>
      </trkpt>
      <trkpt lat="46.64509" lon="5.91361">
        <ele>754.4</ele>
        <time>2021-05-08T13:03:54Z</time>
      </trkpt>
      <trkpt lat="46.64505" lon="5.91356">
        <ele>754.7</ele>
        <time>2021-05-08T13:03:59Z</time>
      </trkpt>
      <trkpt lat="46.64501" lon="5.91352">
        <ele>754.9</ele>
        <time>2021-05-08T13:04:04Z</time>
      </trkpt>
      <trkpt lat="46.64499" lon="5.91345">
        <ele>754.3</ele>
        <time>2021-05-08T13:04:09Z</time>
      </trkpt>
      <trkpt lat="46.64497" lon="5.91338">
        <ele>753.8</ele>
        <time>2021-05-08T13:04:13Z</time>
      </trkpt>
      <trkpt lat="46.64495" lon="5.91332">
        <ele>753.1</ele>
        <time>2021-05-08T13:04:17Z</time>
      </trkpt>
      <trkpt lat="46.64495" lon="5.91325">
        <ele>752.5</ele>
        <time>2021-05-08T13:04:21Z</time>
      </trkpt>
      <trkpt lat="46.64494" lon="5.91319">
        <ele>752</ele>
        <time>2021-05-08T13:04:26Z</time>
      </trkpt>
      <trkpt lat="46.64495" lon="5.91312">
        <ele>751.5</ele>
        <time>2021-05-08T13:04:32Z</time>
      </trkpt>
      <trkpt lat="46.64496" lon="5.91304">
        <ele>751.1</ele>
        <time>2021-05-08T13:04:38Z</time>
      </trkpt>
      <trkpt lat="46.64498" lon="5.91298">
        <ele>750.8</ele>
        <time>2021-05-08T13:04:43Z</time>
      </trkpt>
      <trkpt lat="46.64499" lon="5.9129">
        <ele>750.3</ele>
        <time>2021-05-08T13:04:48Z</time>
      </trkpt>
      <trkpt lat="46.64501" lon="5.91282">
        <ele>749.7</ele>
        <time>2021-05-08T13:04:52Z</time>
      </trkpt>
      <trkpt lat="46.64502" lon="5.91276">
        <ele>749.1</ele>
        <time>2021-05-08T13:04:56Z</time>
      </trkpt>
      <trkpt lat="46.64503" lon="5.91268">
        <ele>748.4</ele>
        <time>2021-05-08T13:05:01Z</time>
      </trkpt>
      <trkpt lat="46.64504" lon="5.91261">
        <ele>748.1</ele>
        <time>2021-05-08T13:05:06Z</time>
      </trkpt>
      <trkpt lat="46.64505" lon="5.91254">
        <ele>747.6</ele>
        <time>2021-05-08T13:05:11Z</time>
      </trkpt>
      <trkpt lat="46.64506" lon="5.91247">
        <ele>747.1</ele>
        <time>2021-05-08T13:05:17Z</time>
      </trkpt>
      <trkpt lat="46.64507" lon="5.9124">
        <ele>746.8</ele>
        <time>2021-05-08T13:05:22Z</time>
      </trkpt>
      <trkpt lat="46.64507" lon="5.91231">
        <ele>746.5</ele>
        <time>2021-05-08T13:05:26Z</time>
      </trkpt>
      <trkpt lat="46.64507" lon="5.91223">
        <ele>746.4</ele>
        <time>2021-05-08T13:05:30Z</time>
      </trkpt>
      <trkpt lat="46.64507" lon="5.91217">
        <ele>746.5</ele>
        <time>2021-05-08T13:05:34Z</time>
      </trkpt>
      <trkpt lat="46.64507" lon="5.9121">
        <ele>746.8</ele>
        <time>2021-05-08T13:05:38Z</time>
      </trkpt>
      <trkpt lat="46.64507" lon="5.91203">
        <ele>747</ele>
        <time>2021-05-08T13:05:42Z</time>
      </trkpt>
      <trkpt lat="46.64508" lon="5.91196">
        <ele>747.3</ele>
        <time>2021-05-08T13:05:46Z</time>
      </trkpt>
      <trkpt lat="46.64508" lon="5.91189">
        <ele>747.7</ele>
        <time>2021-05-08T13:05:50Z</time>
      </trkpt>
      <trkpt lat="46.64507" lon="5.91182">
        <ele>748.1</ele>
        <time>2021-05-08T13:05:54Z</time>
      </trkpt>
      <trkpt lat="46.64506" lon="5.91175">
        <ele>748.5</ele>
        <time>2021-05-08T13:05:58Z</time>
      </trkpt>
      <trkpt lat="46.64505" lon="5.91167">
        <ele>749.1</ele>
        <time>2021-05-08T13:06:03Z</time>
      </trkpt>
      <trkpt lat="46.64503" lon="5.91161">
        <ele>749.4</ele>
        <time>2021-05-08T13:06:08Z</time>
      </trkpt>
      <trkpt lat="46.64502" lon="5.91153">
        <ele>749.4</ele>
        <time>2021-05-08T13:06:13Z</time>
      </trkpt>
      <trkpt lat="46.64501" lon="5.91146">
        <ele>749</ele>
        <time>2021-05-08T13:06:17Z</time>
      </trkpt>
      <trkpt lat="46.645" lon="5.9114">
        <ele>748.6</ele>
        <time>2021-05-08T13:06:21Z</time>
      </trkpt>
      <trkpt lat="46.64498" lon="5.91132">
        <ele>747.5</ele>
        <time>2021-05-08T13:06:26Z</time>
      </trkpt>
      <trkpt lat="46.64497" lon="5.91125">
        <ele>746.9</ele>
        <time>2021-05-08T13:06:30Z</time>
      </trkpt>
      <trkpt lat="46.64496" lon="5.91118">
        <ele>746.3</ele>
        <time>2021-05-08T13:06:34Z</time>
      </trkpt>
      <trkpt lat="46.64494" lon="5.91111">
        <ele>745.7</ele>
        <time>2021-05-08T13:06:39Z</time>
      </trkpt>
      <trkpt lat="46.64492" lon="5.91104">
        <ele>744.9</ele>
        <time>2021-05-08T13:06:43Z</time>
      </trkpt>
      <trkpt lat="46.6449" lon="5.91098">
        <ele>743.9</ele>
        <time>2021-05-08T13:06:47Z</time>
      </trkpt>
      <trkpt lat="46.64489" lon="5.91091">
        <ele>742.9</ele>
        <time>2021-05-08T13:06:52Z</time>
      </trkpt>
      <trkpt lat="46.64489" lon="5.91084">
        <ele>742</ele>
        <time>2021-05-08T13:06:57Z</time>
      </trkpt>
      <trkpt lat="46.64487" lon="5.91077">
        <ele>741.2</ele>
        <time>2021-05-08T13:07:01Z</time>
      </trkpt>
      <trkpt lat="46.64484" lon="5.9107">
        <ele>740.7</ele>
        <time>2021-05-08T13:07:05Z</time>
      </trkpt>
      <trkpt lat="46.64481" lon="5.91063">
        <ele>740.3</ele>
        <time>2021-05-08T13:07:10Z</time>
      </trkpt>
      <trkpt lat="46.6448" lon="5.91057">
        <ele>740</ele>
        <time>2021-05-08T13:07:14Z</time>
      </trkpt>
      <trkpt lat="46.64479" lon="5.9105">
        <ele>739.6</ele>
        <time>2021-05-08T13:07:18Z</time>
      </trkpt>
      <trkpt lat="46.64477" lon="5.91043">
        <ele>739.2</ele>
        <time>2021-05-08T13:07:22Z</time>
      </trkpt>
      <trkpt lat="46.64476" lon="5.91036">
        <ele>738.8</ele>
        <time>2021-05-08T13:07:27Z</time>
      </trkpt>
      <trkpt lat="46.64474" lon="5.9103">
        <ele>738.2</ele>
        <time>2021-05-08T13:07:32Z</time>
      </trkpt>
      <trkpt lat="46.64473" lon="5.91022">
        <ele>737.9</ele>
        <time>2021-05-08T13:07:37Z</time>
      </trkpt>
      <trkpt lat="46.64471" lon="5.91015">
        <ele>738.2</ele>
        <time>2021-05-08T13:07:41Z</time>
      </trkpt>
      <trkpt lat="46.6447" lon="5.91009">
        <ele>738.9</ele>
        <time>2021-05-08T13:07:45Z</time>
      </trkpt>
      <trkpt lat="46.64469" lon="5.91003">
        <ele>739.6</ele>
        <time>2021-05-08T13:07:49Z</time>
      </trkpt>
      <trkpt lat="46.64467" lon="5.90996">
        <ele>740.1</ele>
        <time>2021-05-08T13:07:54Z</time>
      </trkpt>
      <trkpt lat="46.64464" lon="5.90989">
        <ele>740.4</ele>
        <time>2021-05-08T13:07:59Z</time>
      </trkpt>
      <trkpt lat="46.64461" lon="5.90983">
        <ele>740.7</ele>
        <time>2021-05-08T13:08:03Z</time>
      </trkpt>
      <trkpt lat="46.6446" lon="5.90976">
        <ele>741.2</ele>
        <time>2021-05-08T13:08:07Z</time>
      </trkpt>
      <trkpt lat="46.64458" lon="5.90969">
        <ele>741.4</ele>
        <time>2021-05-08T13:08:12Z</time>
      </trkpt>
      <trkpt lat="46.64456" lon="5.90963">
        <ele>741.4</ele>
        <time>2021-05-08T13:08:16Z</time>
      </trkpt>
      <trkpt lat="46.64454" lon="5.90957">
        <ele>741.6</ele>
        <time>2021-05-08T13:08:20Z</time>
      </trkpt>
      <trkpt lat="46.64453" lon="5.90949">
        <ele>741.3</ele>
        <time>2021-05-08T13:08:25Z</time>
      </trkpt>
      <trkpt lat="46.64452" lon="5.90942">
        <ele>741.2</ele>
        <time>2021-05-08T13:08:29Z</time>
      </trkpt>
      <trkpt lat="46.64451" lon="5.90934">
        <ele>741.3</ele>
        <time>2021-05-08T13:08:33Z</time>
      </trkpt>
      <trkpt lat="46.64449" lon="5.90928">
        <ele>741.6</ele>
        <time>2021-05-08T13:08:38Z</time>
      </trkpt>
      <trkpt lat="46.64447" lon="5.90921">
        <ele>742.1</ele>
        <time>2021-05-08T13:08:43Z</time>
      </trkpt>
      <trkpt lat="46.64444" lon="5.90914">
        <ele>742.8</ele>
        <time>2021-05-08T13:08:47Z</time>
      </trkpt>
      <trkpt lat="46.64442" lon="5.90907">
        <ele>743.5</ele>
        <time>2021-05-08T13:08:52Z</time>
      </trkpt>
      <trkpt lat="46.6444" lon="5.909">
        <ele>744</ele>
        <time>2021-05-08T13:08:57Z</time>
      </trkpt>
      <trkpt lat="46.64438" lon="5.90893">
        <ele>744.3</ele>
        <time>2021-05-08T13:09:02Z</time>
      </trkpt>
      <trkpt lat="46.64436" lon="5.90886">
        <ele>744.7</ele>
        <time>2021-05-08T13:09:06Z</time>
      </trkpt>
      <trkpt lat="46.64434" lon="5.90879">
        <ele>745.7</ele>
        <time>2021-05-08T13:09:10Z</time>
      </trkpt>
      <trkpt lat="46.64433" lon="5.90871">
        <ele>747.3</ele>
        <time>2021-05-08T13:09:16Z</time>
      </trkpt>
      <trkpt lat="46.64431" lon="5.90864">
        <ele>748</ele>
        <time>2021-05-08T13:09:21Z</time>
      </trkpt>
      <trkpt lat="46.6443" lon="5.90857">
        <ele>748.3</ele>
        <time>2021-05-08T13:09:25Z</time>
      </trkpt>
      <trkpt lat="46.64429" lon="5.90851">
        <ele>748.5</ele>
        <time>2021-05-08T13:09:29Z</time>
      </trkpt>
      <trkpt lat="46.64429" lon="5.90844">
        <ele>748.6</ele>
        <time>2021-05-08T13:09:34Z</time>
      </trkpt>
      <trkpt lat="46.64428" lon="5.90837">
        <ele>748.5</ele>
        <time>2021-05-08T13:09:38Z</time>
      </trkpt>
      <trkpt lat="46.64426" lon="5.9083">
        <ele>748.5</ele>
        <time>2021-05-08T13:09:42Z</time>
      </trkpt>
      <trkpt lat="46.64425" lon="5.90823">
        <ele>749.2</ele>
        <time>2021-05-08T13:09:47Z</time>
      </trkpt>
      <trkpt lat="46.64427" lon="5.90816">
        <ele>750.9</ele>
        <time>2021-05-08T13:09:54Z</time>
      </trkpt>
      <trkpt lat="46.64427" lon="5.90809">
        <ele>751.4</ele>
        <time>2021-05-08T13:10:06Z</time>
      </trkpt>
      <trkpt lat="46.64426" lon="5.90802">
        <ele>751.5</ele>
        <time>2021-05-08T13:10:10Z</time>
      </trkpt>
      <trkpt lat="46.64425" lon="5.90795">
        <ele>751.7</ele>
        <time>2021-05-08T13:10:14Z</time>
      </trkpt>
      <trkpt lat="46.64424" lon="5.90787">
        <ele>752</ele>
        <time>2021-05-08T13:10:18Z</time>
      </trkpt>
      <trkpt lat="46.64424" lon="5.9078">
        <ele>752.3</ele>
        <time>2021-05-08T13:10:22Z</time>
      </trkpt>
      <trkpt lat="46.64423" lon="5.90772">
        <ele>752</ele>
        <time>2021-05-08T13:10:28Z</time>
      </trkpt>
      <trkpt lat="46.64423" lon="5.90765">
        <ele>751.2</ele>
        <time>2021-05-08T13:10:34Z</time>
      </trkpt>
      <trkpt lat="46.64423" lon="5.90759">
        <ele>750.3</ele>
        <time>2021-05-08T13:10:38Z</time>
      </trkpt>
      <trkpt lat="46.64422" lon="5.90751">
        <ele>749.4</ele>
        <time>2021-05-08T13:10:42Z</time>
      </trkpt>
      <trkpt lat="46.64421" lon="5.90743">
        <ele>748.8</ele>
        <time>2021-05-08T13:10:46Z</time>
      </trkpt>
      <trkpt lat="46.6442" lon="5.90736">
        <ele>748.4</ele>
        <time>2021-05-08T13:10:50Z</time>
      </trkpt>
      <trkpt lat="46.6442" lon="5.90729">
        <ele>747.8</ele>
        <time>2021-05-08T13:10:55Z</time>
      </trkpt>
      <trkpt lat="46.64419" lon="5.90722">
        <ele>747.5</ele>
        <time>2021-05-08T13:11:00Z</time>
      </trkpt>
      <trkpt lat="46.64417" lon="5.90716">
        <ele>747.6</ele>
        <time>2021-05-08T13:11:05Z</time>
      </trkpt>
      <trkpt lat="46.64416" lon="5.9071">
        <ele>747.5</ele>
        <time>2021-05-08T13:11:09Z</time>
      </trkpt>
      <trkpt lat="46.64415" lon="5.90702">
        <ele>747.4</ele>
        <time>2021-05-08T13:11:14Z</time>
      </trkpt>
      <trkpt lat="46.64415" lon="5.90695">
        <ele>747.4</ele>
        <time>2021-05-08T13:11:19Z</time>
      </trkpt>
      <trkpt lat="46.64415" lon="5.90688">
        <ele>747.1</ele>
        <time>2021-05-08T13:11:25Z</time>
      </trkpt>
      <trkpt lat="46.64414" lon="5.90681">
        <ele>746.8</ele>
        <time>2021-05-08T13:11:34Z</time>
      </trkpt>
      <trkpt lat="46.64414" lon="5.90674">
        <ele>746.6</ele>
        <time>2021-05-08T13:11:40Z</time>
      </trkpt>
      <trkpt lat="46.64414" lon="5.90667">
        <ele>746.4</ele>
        <time>2021-05-08T13:11:44Z</time>
      </trkpt>
      <trkpt lat="46.64412" lon="5.9066">
        <ele>746</ele>
        <time>2021-05-08T13:11:49Z</time>
      </trkpt>
      <trkpt lat="46.6441" lon="5.90654">
        <ele>745.7</ele>
        <time>2021-05-08T13:11:53Z</time>
      </trkpt>
      <trkpt lat="46.64408" lon="5.90647">
        <ele>745.3</ele>
        <time>2021-05-08T13:11:58Z</time>
      </trkpt>
      <trkpt lat="46.64407" lon="5.90639">
        <ele>745.2</ele>
        <time>2021-05-08T13:12:03Z</time>
      </trkpt>
      <trkpt lat="46.64405" lon="5.90633">
        <ele>745.3</ele>
        <time>2021-05-08T13:12:07Z</time>
      </trkpt>
      <trkpt lat="46.64403" lon="5.90626">
        <ele>745.5</ele>
        <time>2021-05-08T13:12:11Z</time>
      </trkpt>
      <trkpt lat="46.64403" lon="5.9062">
        <ele>745.6</ele>
        <time>2021-05-08T13:12:15Z</time>
      </trkpt>
      <trkpt lat="46.64401" lon="5.90613">
        <ele>745.6</ele>
        <time>2021-05-08T13:12:20Z</time>
      </trkpt>
      <trkpt lat="46.644" lon="5.90606">
        <ele>745.4</ele>
        <time>2021-05-08T13:12:26Z</time>
      </trkpt>
      <trkpt lat="46.64398" lon="5.90599">
        <ele>745.2</ele>
        <time>2021-05-08T13:12:30Z</time>
      </trkpt>
      <trkpt lat="46.64398" lon="5.90592">
        <ele>744.8</ele>
        <time>2021-05-08T13:12:34Z</time>
      </trkpt>
      <trkpt lat="46.64399" lon="5.90584">
        <ele>744.5</ele>
        <time>2021-05-08T13:12:39Z</time>
      </trkpt>
      <trkpt lat="46.64398" lon="5.90577">
        <ele>744.6</ele>
        <time>2021-05-08T13:12:43Z</time>
      </trkpt>
      <trkpt lat="46.64397" lon="5.9057">
        <ele>745</ele>
        <time>2021-05-08T13:12:47Z</time>
      </trkpt>
      <trkpt lat="46.64398" lon="5.90563">
        <ele>745.4</ele>
        <time>2021-05-08T13:12:52Z</time>
      </trkpt>
      <trkpt lat="46.64395" lon="5.90555">
        <ele>747.9</ele>
        <time>2021-05-08T13:12:56Z</time>
      </trkpt>
      <trkpt lat="46.64395" lon="5.90548">
        <ele>751.7</ele>
        <time>2021-05-08T13:13:05Z</time>
      </trkpt>
      <trkpt lat="46.64396" lon="5.90541">
        <ele>752.6</ele>
        <time>2021-05-08T13:13:12Z</time>
      </trkpt>
      <trkpt lat="46.64397" lon="5.90534">
        <ele>752.8</ele>
        <time>2021-05-08T13:13:17Z</time>
      </trkpt>
      <trkpt lat="46.64399" lon="5.90528">
        <ele>752.9</ele>
        <time>2021-05-08T13:13:21Z</time>
      </trkpt>
      <trkpt lat="46.64399" lon="5.90521">
        <ele>752.3</ele>
        <time>2021-05-08T13:13:26Z</time>
      </trkpt>
      <trkpt lat="46.64399" lon="5.90513">
        <ele>751.2</ele>
        <time>2021-05-08T13:13:31Z</time>
      </trkpt>
      <trkpt lat="46.64398" lon="5.90505">
        <ele>749.6</ele>
        <time>2021-05-08T13:13:36Z</time>
      </trkpt>
      <trkpt lat="46.64397" lon="5.90498">
        <ele>748</ele>
        <time>2021-05-08T13:13:41Z</time>
      </trkpt>
      <trkpt lat="46.64397" lon="5.9049">
        <ele>746.4</ele>
        <time>2021-05-08T13:13:46Z</time>
      </trkpt>
      <trkpt lat="46.64398" lon="5.90483">
        <ele>745.3</ele>
        <time>2021-05-08T13:13:50Z</time>
      </trkpt>
      <trkpt lat="46.64397" lon="5.90475">
        <ele>743.7</ele>
        <time>2021-05-08T13:13:55Z</time>
      </trkpt>
      <trkpt lat="46.64396" lon="5.90469">
        <ele>742.7</ele>
        <time>2021-05-08T13:13:59Z</time>
      </trkpt>
      <trkpt lat="46.64394" lon="5.90463">
        <ele>742.2</ele>
        <time>2021-05-08T13:14:03Z</time>
      </trkpt>
      <trkpt lat="46.64394" lon="5.90456">
        <ele>742</ele>
        <time>2021-05-08T13:14:07Z</time>
      </trkpt>
      <trkpt lat="46.64392" lon="5.90448">
        <ele>742.1</ele>
        <time>2021-05-08T13:14:12Z</time>
      </trkpt>
      <trkpt lat="46.6439" lon="5.90441">
        <ele>742.5</ele>
        <time>2021-05-08T13:14:17Z</time>
      </trkpt>
      <trkpt lat="46.64388" lon="5.90435">
        <ele>742.9</ele>
        <time>2021-05-08T13:14:23Z</time>
      </trkpt>
      <trkpt lat="46.64387" lon="5.90429">
        <ele>743</ele>
        <time>2021-05-08T13:14:29Z</time>
      </trkpt>
      <trkpt lat="46.64386" lon="5.90422">
        <ele>742.7</ele>
        <time>2021-05-08T13:14:34Z</time>
      </trkpt>
      <trkpt lat="46.64384" lon="5.90415">
        <ele>742.5</ele>
        <time>2021-05-08T13:14:39Z</time>
      </trkpt>
      <trkpt lat="46.64381" lon="5.90409">
        <ele>742.4</ele>
        <time>2021-05-08T13:14:43Z</time>
      </trkpt>
      <trkpt lat="46.64378" lon="5.90404">
        <ele>742.4</ele>
        <time>2021-05-08T13:14:47Z</time>
      </trkpt>
      <trkpt lat="46.64374" lon="5.90399">
        <ele>742.7</ele>
        <time>2021-05-08T13:14:51Z</time>
      </trkpt>
      <trkpt lat="46.6437" lon="5.90396">
        <ele>743.3</ele>
        <time>2021-05-08T13:14:55Z</time>
      </trkpt>
      <trkpt lat="46.64366" lon="5.90393">
        <ele>744</ele>
        <time>2021-05-08T13:15:00Z</time>
      </trkpt>
      <trkpt lat="46.64362" lon="5.90391">
        <ele>744.3</ele>
        <time>2021-05-08T13:15:05Z</time>
      </trkpt>
      <trkpt lat="46.64356" lon="5.9039">
        <ele>744.5</ele>
        <time>2021-05-08T13:15:10Z</time>
      </trkpt>
      <trkpt lat="46.64352" lon="5.90389">
        <ele>744.6</ele>
        <time>2021-05-08T13:15:14Z</time>
      </trkpt>
      <trkpt lat="46.64346" lon="5.90388">
        <ele>744.8</ele>
        <time>2021-05-08T13:15:19Z</time>
      </trkpt>
      <trkpt lat="46.64342" lon="5.90388">
        <ele>745</ele>
        <time>2021-05-08T13:15:23Z</time>
      </trkpt>
      <trkpt lat="46.64337" lon="5.90388">
        <ele>745.1</ele>
        <time>2021-05-08T13:15:27Z</time>
      </trkpt>
      <trkpt lat="46.64332" lon="5.90388">
        <ele>745.1</ele>
        <time>2021-05-08T13:15:31Z</time>
      </trkpt>
      <trkpt lat="46.64327" lon="5.90387">
        <ele>745</ele>
        <time>2021-05-08T13:15:36Z</time>
      </trkpt>
      <trkpt lat="46.64319" lon="5.90389">
        <ele>747</ele>
        <time>2021-05-08T13:15:42Z</time>
      </trkpt>
      <trkpt lat="46.64313" lon="5.9039">
        <ele>749.3</ele>
        <time>2021-05-08T13:15:46Z</time>
      </trkpt>
      <trkpt lat="46.64308" lon="5.9039">
        <ele>751.2</ele>
        <time>2021-05-08T13:15:52Z</time>
      </trkpt>
      <trkpt lat="46.64303" lon="5.9039">
        <ele>752</ele>
        <time>2021-05-08T13:15:59Z</time>
      </trkpt>
      <trkpt lat="46.64298" lon="5.90389">
        <ele>752.5</ele>
        <time>2021-05-08T13:16:05Z</time>
      </trkpt>
      <trkpt lat="46.64292" lon="5.90396">
        <ele>754.3</ele>
        <time>2021-05-08T13:16:09Z</time>
      </trkpt>
      <trkpt lat="46.64286" lon="5.90403">
        <ele>756.1</ele>
        <time>2021-05-08T13:16:13Z</time>
      </trkpt>
      <trkpt lat="46.64282" lon="5.90407">
        <ele>758</ele>
        <time>2021-05-08T13:16:20Z</time>
      </trkpt>
      <trkpt lat="46.64277" lon="5.90404">
        <ele>759.5</ele>
        <time>2021-05-08T13:16:44Z</time>
      </trkpt>
      <trkpt lat="46.64273" lon="5.90408">
        <ele>760.2</ele>
        <time>2021-05-08T13:17:06Z</time>
      </trkpt>
      <trkpt lat="46.6427" lon="5.90414">
        <ele>759</ele>
        <time>2021-05-08T13:17:29Z</time>
      </trkpt>
      <trkpt lat="46.64267" lon="5.90419">
        <ele>758.7</ele>
        <time>2021-05-08T13:17:33Z</time>
      </trkpt>
      <trkpt lat="46.64263" lon="5.90424">
        <ele>758.6</ele>
        <time>2021-05-08T13:17:37Z</time>
      </trkpt>
      <trkpt lat="46.64258" lon="5.90427">
        <ele>758.6</ele>
        <time>2021-05-08T13:17:43Z</time>
      </trkpt>
      <trkpt lat="46.64253" lon="5.90428">
        <ele>758.5</ele>
        <time>2021-05-08T13:17:49Z</time>
      </trkpt>
      <trkpt lat="46.64249" lon="5.90426">
        <ele>758.6</ele>
        <time>2021-05-08T13:17:54Z</time>
      </trkpt>
      <trkpt lat="46.64244" lon="5.90422">
        <ele>758.8</ele>
        <time>2021-05-08T13:18:00Z</time>
      </trkpt>
      <trkpt lat="46.64241" lon="5.90418">
        <ele>759.2</ele>
        <time>2021-05-08T13:18:09Z</time>
      </trkpt>
      <trkpt lat="46.64239" lon="5.90412">
        <ele>759.8</ele>
        <time>2021-05-08T13:18:18Z</time>
      </trkpt>
      <trkpt lat="46.64237" lon="5.90405">
        <ele>760.7</ele>
        <time>2021-05-08T13:18:24Z</time>
      </trkpt>
      <trkpt lat="46.64234" lon="5.90398">
        <ele>761.7</ele>
        <time>2021-05-08T13:18:28Z</time>
      </trkpt>
      <trkpt lat="46.64233" lon="5.90392">
        <ele>763.2</ele>
        <time>2021-05-08T13:18:32Z</time>
      </trkpt>
      <trkpt lat="46.64231" lon="5.90385">
        <ele>764.8</ele>
        <time>2021-05-08T13:18:37Z</time>
      </trkpt>
      <trkpt lat="46.64229" lon="5.90378">
        <ele>766.3</ele>
        <time>2021-05-08T13:18:41Z</time>
      </trkpt>
      <trkpt lat="46.64228" lon="5.90371">
        <ele>767.7</ele>
        <time>2021-05-08T13:18:45Z</time>
      </trkpt>
      <trkpt lat="46.64226" lon="5.90365">
        <ele>768.9</ele>
        <time>2021-05-08T13:18:49Z</time>
      </trkpt>
      <trkpt lat="46.64225" lon="5.90358">
        <ele>770.3</ele>
        <time>2021-05-08T13:18:54Z</time>
      </trkpt>
      <trkpt lat="46.64228" lon="5.90353">
        <ele>767.9</ele>
        <time>2021-05-08T13:19:28Z</time>
      </trkpt>
      <trkpt lat="46.64229" lon="5.90347">
        <ele>767.6</ele>
        <time>2021-05-08T13:19:34Z</time>
      </trkpt>
      <trkpt lat="46.64229" lon="5.90339">
        <ele>768.3</ele>
        <time>2021-05-08T13:19:39Z</time>
      </trkpt>
      <trkpt lat="46.64229" lon="5.90331">
        <ele>769.1</ele>
        <time>2021-05-08T13:19:44Z</time>
      </trkpt>
      <trkpt lat="46.64228" lon="5.90324">
        <ele>769.6</ele>
        <time>2021-05-08T13:19:50Z</time>
      </trkpt>
      <trkpt lat="46.64227" lon="5.90317">
        <ele>769.9</ele>
        <time>2021-05-08T13:19:54Z</time>
      </trkpt>
      <trkpt lat="46.64224" lon="5.9031">
        <ele>770.1</ele>
        <time>2021-05-08T13:19:58Z</time>
      </trkpt>
      <trkpt lat="46.64222" lon="5.90303">
        <ele>770.3</ele>
        <time>2021-05-08T13:20:02Z</time>
      </trkpt>
      <trkpt lat="46.64222" lon="5.90297">
        <ele>770.5</ele>
        <time>2021-05-08T13:20:06Z</time>
      </trkpt>
      <trkpt lat="46.64221" lon="5.9029">
        <ele>770.7</ele>
        <time>2021-05-08T13:20:12Z</time>
      </trkpt>
      <trkpt lat="46.64218" lon="5.90284">
        <ele>771.4</ele>
        <time>2021-05-08T13:20:17Z</time>
      </trkpt>
      <trkpt lat="46.64216" lon="5.90277">
        <ele>772.1</ele>
        <time>2021-05-08T13:20:22Z</time>
      </trkpt>
      <trkpt lat="46.64213" lon="5.9027">
        <ele>772.9</ele>
        <time>2021-05-08T13:20:27Z</time>
      </trkpt>
      <trkpt lat="46.6421" lon="5.90263">
        <ele>773.3</ele>
        <time>2021-05-08T13:20:31Z</time>
      </trkpt>
      <trkpt lat="46.64208" lon="5.90256">
        <ele>773.7</ele>
        <time>2021-05-08T13:20:35Z</time>
      </trkpt>
      <trkpt lat="46.64206" lon="5.9025">
        <ele>774.3</ele>
        <time>2021-05-08T13:20:40Z</time>
      </trkpt>
      <trkpt lat="46.64204" lon="5.90244">
        <ele>774.8</ele>
        <time>2021-05-08T13:20:46Z</time>
      </trkpt>
      <trkpt lat="46.64201" lon="5.90238">
        <ele>775.3</ele>
        <time>2021-05-08T13:20:51Z</time>
      </trkpt>
      <trkpt lat="46.64199" lon="5.90232">
        <ele>775.4</ele>
        <time>2021-05-08T13:20:55Z</time>
      </trkpt>
      <trkpt lat="46.64198" lon="5.90225">
        <ele>775.5</ele>
        <time>2021-05-08T13:20:59Z</time>
      </trkpt>
      <trkpt lat="46.64196" lon="5.90219">
        <ele>775.8</ele>
        <time>2021-05-08T13:21:03Z</time>
      </trkpt>
      <trkpt lat="46.64194" lon="5.90212">
        <ele>775.9</ele>
        <time>2021-05-08T13:21:07Z</time>
      </trkpt>
      <trkpt lat="46.64192" lon="5.90205">
        <ele>775.8</ele>
        <time>2021-05-08T13:21:12Z</time>
      </trkpt>
      <trkpt lat="46.6419" lon="5.90198">
        <ele>775.8</ele>
        <time>2021-05-08T13:21:16Z</time>
      </trkpt>
      <trkpt lat="46.64187" lon="5.90191">
        <ele>776</ele>
        <time>2021-05-08T13:21:21Z</time>
      </trkpt>
      <trkpt lat="46.64185" lon="5.90185">
        <ele>776.1</ele>
        <time>2021-05-08T13:21:26Z</time>
      </trkpt>
      <trkpt lat="46.64184" lon="5.90177">
        <ele>775.9</ele>
        <time>2021-05-08T13:21:31Z</time>
      </trkpt>
      <trkpt lat="46.64181" lon="5.9017">
        <ele>776.1</ele>
        <time>2021-05-08T13:21:36Z</time>
      </trkpt>
      <trkpt lat="46.64179" lon="5.90162">
        <ele>776.6</ele>
        <time>2021-05-08T13:21:40Z</time>
      </trkpt>
      <trkpt lat="46.64179" lon="5.90155">
        <ele>777.3</ele>
        <time>2021-05-08T13:21:44Z</time>
      </trkpt>
      <trkpt lat="46.64178" lon="5.90149">
        <ele>778.1</ele>
        <time>2021-05-08T13:21:49Z</time>
      </trkpt>
      <trkpt lat="46.64177" lon="5.90142">
        <ele>778.3</ele>
        <time>2021-05-08T13:21:54Z</time>
      </trkpt>
      <trkpt lat="46.64175" lon="5.90135">
        <ele>778.4</ele>
        <time>2021-05-08T13:21:58Z</time>
      </trkpt>
      <trkpt lat="46.64174" lon="5.90129">
        <ele>778.6</ele>
        <time>2021-05-08T13:22:02Z</time>
      </trkpt>
      <trkpt lat="46.64174" lon="5.90121">
        <ele>778.8</ele>
        <time>2021-05-08T13:22:07Z</time>
      </trkpt>
      <trkpt lat="46.64172" lon="5.90115">
        <ele>778.9</ele>
        <time>2021-05-08T13:22:12Z</time>
      </trkpt>
      <trkpt lat="46.64171" lon="5.90108">
        <ele>779</ele>
        <time>2021-05-08T13:22:18Z</time>
      </trkpt>
      <trkpt lat="46.64171" lon="5.901">
        <ele>779</ele>
        <time>2021-05-08T13:22:23Z</time>
      </trkpt>
      <trkpt lat="46.6417" lon="5.90093">
        <ele>779.2</ele>
        <time>2021-05-08T13:22:27Z</time>
      </trkpt>
      <trkpt lat="46.64169" lon="5.90087">
        <ele>779.9</ele>
        <time>2021-05-08T13:22:34Z</time>
      </trkpt>
      <trkpt lat="46.64167" lon="5.90081">
        <ele>780.3</ele>
        <time>2021-05-08T13:22:39Z</time>
      </trkpt>
      <trkpt lat="46.64165" lon="5.90073">
        <ele>780.6</ele>
        <time>2021-05-08T13:22:44Z</time>
      </trkpt>
      <trkpt lat="46.64164" lon="5.90066">
        <ele>780.6</ele>
        <time>2021-05-08T13:22:50Z</time>
      </trkpt>
      <trkpt lat="46.64163" lon="5.90058">
        <ele>780.9</ele>
        <time>2021-05-08T13:22:54Z</time>
      </trkpt>
      <trkpt lat="46.64163" lon="5.90051">
        <ele>781.5</ele>
        <time>2021-05-08T13:22:58Z</time>
      </trkpt>
      <trkpt lat="46.64161" lon="5.90044">
        <ele>782.7</ele>
        <time>2021-05-08T13:23:03Z</time>
      </trkpt>
      <trkpt lat="46.64158" lon="5.90038">
        <ele>783.1</ele>
        <time>2021-05-08T13:23:07Z</time>
      </trkpt>
      <trkpt lat="46.64155" lon="5.90033">
        <ele>783.6</ele>
        <time>2021-05-08T13:23:11Z</time>
      </trkpt>
      <trkpt lat="46.64152" lon="5.90027">
        <ele>783.7</ele>
        <time>2021-05-08T13:23:16Z</time>
      </trkpt>
      <trkpt lat="46.64149" lon="5.9002">
        <ele>783.6</ele>
        <time>2021-05-08T13:23:21Z</time>
      </trkpt>
      <trkpt lat="46.64145" lon="5.90015">
        <ele>784</ele>
        <time>2021-05-08T13:23:26Z</time>
      </trkpt>
      <trkpt lat="46.64141" lon="5.9001">
        <ele>784.7</ele>
        <time>2021-05-08T13:23:32Z</time>
      </trkpt>
      <trkpt lat="46.64138" lon="5.90005">
        <ele>784.3</ele>
        <time>2021-05-08T13:23:37Z</time>
      </trkpt>
      <trkpt lat="46.64135" lon="5.9">
        <ele>784.3</ele>
        <time>2021-05-08T13:23:42Z</time>
      </trkpt>
      <trkpt lat="46.64131" lon="5.89995">
        <ele>784.4</ele>
        <time>2021-05-08T13:23:47Z</time>
      </trkpt>
      <trkpt lat="46.64128" lon="5.8999">
        <ele>784.8</ele>
        <time>2021-05-08T13:23:51Z</time>
      </trkpt>
      <trkpt lat="46.64125" lon="5.89984">
        <ele>785.6</ele>
        <time>2021-05-08T13:23:56Z</time>
      </trkpt>
      <trkpt lat="46.64121" lon="5.89979">
        <ele>786.1</ele>
        <time>2021-05-08T13:24:01Z</time>
      </trkpt>
      <trkpt lat="46.64118" lon="5.89974">
        <ele>786.3</ele>
        <time>2021-05-08T13:24:05Z</time>
      </trkpt>
      <trkpt lat="46.64115" lon="5.89968">
        <ele>786.6</ele>
        <time>2021-05-08T13:24:10Z</time>
      </trkpt>
      <trkpt lat="46.64112" lon="5.89962">
        <ele>786.8</ele>
        <time>2021-05-08T13:24:48Z</time>
      </trkpt>
      <trkpt lat="46.64116" lon="5.89964">
        <ele>786.5</ele>
        <time>2021-05-08T13:24:54Z</time>
      </trkpt>
      <trkpt lat="46.64123" lon="5.89966">
        <ele>786.6</ele>
        <time>2021-05-08T13:24:58Z</time>
      </trkpt>
      <trkpt lat="46.64129" lon="5.89967">
        <ele>786.7</ele>
        <time>2021-05-08T13:25:02Z</time>
      </trkpt>
      <trkpt lat="46.64134" lon="5.89968">
        <ele>787.6</ele>
        <time>2021-05-08T13:25:08Z</time>
      </trkpt>
      <trkpt lat="46.64138" lon="5.89963">
        <ele>788.3</ele>
        <time>2021-05-08T13:25:13Z</time>
      </trkpt>
      <trkpt lat="46.64141" lon="5.89958">
        <ele>788.6</ele>
        <time>2021-05-08T13:25:18Z</time>
      </trkpt>
      <trkpt lat="46.64148" lon="5.89962">
        <ele>788.7</ele>
        <time>2021-05-08T13:25:22Z</time>
      </trkpt>
      <trkpt lat="46.64152" lon="5.89965">
        <ele>788.5</ele>
        <time>2021-05-08T13:25:27Z</time>
      </trkpt>
      <trkpt lat="46.64149" lon="5.89978">
        <ele>788.6</ele>
        <time>2021-05-08T13:25:31Z</time>
      </trkpt>
      <trkpt lat="46.64147" lon="5.89985">
        <ele>788</ele>
        <time>2021-05-08T13:25:35Z</time>
      </trkpt>
      <trkpt lat="46.64151" lon="5.89988">
        <ele>788.5</ele>
        <time>2021-05-08T13:25:49Z</time>
      </trkpt>
      <trkpt lat="46.64156" lon="5.8999">
        <ele>789.1</ele>
        <time>2021-05-08T13:25:54Z</time>
      </trkpt>
      <trkpt lat="46.64162" lon="5.89992">
        <ele>789.2</ele>
        <time>2021-05-08T13:25:58Z</time>
      </trkpt>
      <trkpt lat="46.64168" lon="5.89994">
        <ele>788.8</ele>
        <time>2021-05-08T13:26:02Z</time>
      </trkpt>
      <trkpt lat="46.64173" lon="5.89996">
        <ele>788.3</ele>
        <time>2021-05-08T13:26:06Z</time>
      </trkpt>
      <trkpt lat="46.64177" lon="5.89999">
        <ele>788.2</ele>
        <time>2021-05-08T13:26:10Z</time>
      </trkpt>
      <trkpt lat="46.64183" lon="5.90001">
        <ele>788.5</ele>
        <time>2021-05-08T13:26:14Z</time>
      </trkpt>
      <trkpt lat="46.64188" lon="5.90004">
        <ele>789</ele>
        <time>2021-05-08T13:26:18Z</time>
      </trkpt>
      <trkpt lat="46.64192" lon="5.90009">
        <ele>789.4</ele>
        <time>2021-05-08T13:26:24Z</time>
      </trkpt>
      <trkpt lat="46.64194" lon="5.90016">
        <ele>788.9</ele>
        <time>2021-05-08T13:26:29Z</time>
      </trkpt>
      <trkpt lat="46.64198" lon="5.90021">
        <ele>788.8</ele>
        <time>2021-05-08T13:26:33Z</time>
      </trkpt>
      <trkpt lat="46.64201" lon="5.90026">
        <ele>789</ele>
        <time>2021-05-08T13:26:38Z</time>
      </trkpt>
      <trkpt lat="46.64205" lon="5.90032">
        <ele>789.8</ele>
        <time>2021-05-08T13:26:43Z</time>
      </trkpt>
      <trkpt lat="46.64209" lon="5.90036">
        <ele>790.4</ele>
        <time>2021-05-08T13:26:47Z</time>
      </trkpt>
      <trkpt lat="46.64212" lon="5.90042">
        <ele>791</ele>
        <time>2021-05-08T13:26:52Z</time>
      </trkpt>
      <trkpt lat="46.64212" lon="5.90048">
        <ele>789.9</ele>
        <time>2021-05-08T13:26:56Z</time>
      </trkpt>
      <trkpt lat="46.64214" lon="5.90055">
        <ele>789.3</ele>
        <time>2021-05-08T13:27:02Z</time>
      </trkpt>
      <trkpt lat="46.64218" lon="5.9006">
        <ele>788.9</ele>
        <time>2021-05-08T13:27:07Z</time>
      </trkpt>
      <trkpt lat="46.64222" lon="5.90065">
        <ele>788.9</ele>
        <time>2021-05-08T13:27:12Z</time>
      </trkpt>
      <trkpt lat="46.64226" lon="5.9007">
        <ele>789.2</ele>
        <time>2021-05-08T13:27:16Z</time>
      </trkpt>
      <trkpt lat="46.6423" lon="5.90074">
        <ele>789.4</ele>
        <time>2021-05-08T13:27:20Z</time>
      </trkpt>
      <trkpt lat="46.64236" lon="5.90077">
        <ele>790.2</ele>
        <time>2021-05-08T13:27:24Z</time>
      </trkpt>
      <trkpt lat="46.64241" lon="5.90079">
        <ele>791</ele>
        <time>2021-05-08T13:27:29Z</time>
      </trkpt>
      <trkpt lat="46.64245" lon="5.90083">
        <ele>791.3</ele>
        <time>2021-05-08T13:27:34Z</time>
      </trkpt>
      <trkpt lat="46.6425" lon="5.90087">
        <ele>791.2</ele>
        <time>2021-05-08T13:27:39Z</time>
      </trkpt>
      <trkpt lat="46.64254" lon="5.90092">
        <ele>790.8</ele>
        <time>2021-05-08T13:27:44Z</time>
      </trkpt>
      <trkpt lat="46.64258" lon="5.90095">
        <ele>790.7</ele>
        <time>2021-05-08T13:27:49Z</time>
      </trkpt>
      <trkpt lat="46.64261" lon="5.90101">
        <ele>791</ele>
        <time>2021-05-08T13:27:54Z</time>
      </trkpt>
      <trkpt lat="46.64261" lon="5.90108">
        <ele>792.8</ele>
        <time>2021-05-08T13:27:59Z</time>
      </trkpt>
      <trkpt lat="46.64265" lon="5.90112">
        <ele>793.8</ele>
        <time>2021-05-08T13:28:05Z</time>
      </trkpt>
      <trkpt lat="46.64273" lon="5.90114">
        <ele>794.3</ele>
        <time>2021-05-08T13:28:09Z</time>
      </trkpt>
      <trkpt lat="46.64277" lon="5.90116">
        <ele>794.7</ele>
        <time>2021-05-08T13:28:13Z</time>
      </trkpt>
      <trkpt lat="46.64282" lon="5.90118">
        <ele>795.5</ele>
        <time>2021-05-08T13:28:35Z</time>
      </trkpt>
      <trkpt lat="46.64287" lon="5.90117">
        <ele>795.9</ele>
        <time>2021-05-08T13:28:41Z</time>
      </trkpt>
      <trkpt lat="46.64292" lon="5.90118">
        <ele>796.4</ele>
        <time>2021-05-08T13:28:49Z</time>
      </trkpt>
      <trkpt lat="46.64297" lon="5.90116">
        <ele>796.3</ele>
        <time>2021-05-08T13:28:56Z</time>
      </trkpt>
      <trkpt lat="46.64304" lon="5.90115">
        <ele>795.1</ele>
        <time>2021-05-08T13:29:23Z</time>
      </trkpt>
      <trkpt lat="46.64311" lon="5.90118">
        <ele>794.1</ele>
        <time>2021-05-08T13:29:27Z</time>
      </trkpt>
      <trkpt lat="46.64315" lon="5.90122">
        <ele>793.2</ele>
        <time>2021-05-08T13:29:31Z</time>
      </trkpt>
      <trkpt lat="46.64319" lon="5.90126">
        <ele>792.2</ele>
        <time>2021-05-08T13:29:36Z</time>
      </trkpt>
      <trkpt lat="46.64324" lon="5.90129">
        <ele>791.6</ele>
        <time>2021-05-08T13:29:40Z</time>
      </trkpt>
      <trkpt lat="46.64328" lon="5.90133">
        <ele>790.6</ele>
        <time>2021-05-08T13:29:44Z</time>
      </trkpt>
      <trkpt lat="46.64333" lon="5.90136">
        <ele>789.5</ele>
        <time>2021-05-08T13:29:49Z</time>
      </trkpt>
      <trkpt lat="46.64337" lon="5.9014">
        <ele>788</ele>
        <time>2021-05-08T13:29:56Z</time>
      </trkpt>
      <trkpt lat="46.64341" lon="5.90144">
        <ele>786.7</ele>
        <time>2021-05-08T13:30:01Z</time>
      </trkpt>
      <trkpt lat="46.64344" lon="5.90149">
        <ele>785.9</ele>
        <time>2021-05-08T13:30:05Z</time>
      </trkpt>
      <trkpt lat="46.64349" lon="5.90151">
        <ele>785.2</ele>
        <time>2021-05-08T13:30:09Z</time>
      </trkpt>
      <trkpt lat="46.64353" lon="5.90156">
        <ele>784.4</ele>
        <time>2021-05-08T13:30:15Z</time>
      </trkpt>
      <trkpt lat="46.64357" lon="5.90158">
        <ele>784.1</ele>
        <time>2021-05-08T13:30:19Z</time>
      </trkpt>
      <trkpt lat="46.64362" lon="5.90159">
        <ele>784.1</ele>
        <time>2021-05-08T13:30:23Z</time>
      </trkpt>
      <trkpt lat="46.64366" lon="5.90161">
        <ele>784.1</ele>
        <time>2021-05-08T13:30:28Z</time>
      </trkpt>
      <trkpt lat="46.6437" lon="5.90166">
        <ele>784.2</ele>
        <time>2021-05-08T13:30:35Z</time>
      </trkpt>
      <trkpt lat="46.6437" lon="5.90174">
        <ele>787.5</ele>
        <time>2021-05-08T13:30:40Z</time>
      </trkpt>
      <trkpt lat="46.64369" lon="5.90183">
        <ele>790.9</ele>
        <time>2021-05-08T13:30:44Z</time>
      </trkpt>
      <trkpt lat="46.64375" lon="5.90182">
        <ele>795</ele>
        <time>2021-05-08T13:30:53Z</time>
      </trkpt>
      <trkpt lat="46.6438" lon="5.9018">
        <ele>796</ele>
        <time>2021-05-08T13:30:57Z</time>
      </trkpt>
      <trkpt lat="46.64385" lon="5.90178">
        <ele>796.9</ele>
        <time>2021-05-08T13:31:01Z</time>
      </trkpt>
      <trkpt lat="46.64389" lon="5.90175">
        <ele>797.8</ele>
        <time>2021-05-08T13:31:05Z</time>
      </trkpt>
      <trkpt lat="46.64394" lon="5.90168">
        <ele>798.2</ele>
        <time>2021-05-08T13:31:09Z</time>
      </trkpt>
      <trkpt lat="46.64397" lon="5.90163">
        <ele>798.4</ele>
        <time>2021-05-08T13:31:12Z</time>
      </trkpt>
      <trkpt lat="46.644" lon="5.90157">
        <ele>798.4</ele>
        <time>2021-05-08T13:31:27Z</time>
      </trkpt>
      <trkpt lat="46.64404" lon="5.90155">
        <ele>797.3</ele>
        <time>2021-05-08T13:31:34Z</time>
      </trkpt>
      <trkpt lat="46.64409" lon="5.90151">
        <ele>796.8</ele>
        <time>2021-05-08T13:31:39Z</time>
      </trkpt>
      <trkpt lat="46.64414" lon="5.90149">
        <ele>796.4</ele>
        <time>2021-05-08T13:31:43Z</time>
      </trkpt>
      <trkpt lat="46.64418" lon="5.90142">
        <ele>797.6</ele>
        <time>2021-05-08T13:31:47Z</time>
      </trkpt>
      <trkpt lat="46.64422" lon="5.90136">
        <ele>799.4</ele>
        <time>2021-05-08T13:31:51Z</time>
      </trkpt>
      <trkpt lat="46.64426" lon="5.90132">
        <ele>801.5</ele>
        <time>2021-05-08T13:31:55Z</time>
      </trkpt>
      <trkpt lat="46.6443" lon="5.90129">
        <ele>803.3</ele>
        <time>2021-05-08T13:31:59Z</time>
      </trkpt>
      <trkpt lat="46.64435" lon="5.90126">
        <ele>804.7</ele>
        <time>2021-05-08T13:32:03Z</time>
      </trkpt>
      <trkpt lat="46.64439" lon="5.90123">
        <ele>806.6</ele>
        <time>2021-05-08T13:32:09Z</time>
      </trkpt>
      <trkpt lat="46.64444" lon="5.90122">
        <ele>809.3</ele>
        <time>2021-05-08T13:32:16Z</time>
      </trkpt>
      <trkpt lat="46.64449" lon="5.90124">
        <ele>812.2</ele>
        <time>2021-05-08T13:32:22Z</time>
      </trkpt>
      <trkpt lat="46.64453" lon="5.90127">
        <ele>814.3</ele>
        <time>2021-05-08T13:32:27Z</time>
      </trkpt>
      <trkpt lat="46.6446" lon="5.90128">
        <ele>814.8</ele>
        <time>2021-05-08T13:32:31Z</time>
      </trkpt>
      <trkpt lat="46.64465" lon="5.90128">
        <ele>814.6</ele>
        <time>2021-05-08T13:32:35Z</time>
      </trkpt>
      <trkpt lat="46.64471" lon="5.90128">
        <ele>814.2</ele>
        <time>2021-05-08T13:32:39Z</time>
      </trkpt>
      <trkpt lat="46.64475" lon="5.90131">
        <ele>813.9</ele>
        <time>2021-05-08T13:32:43Z</time>
      </trkpt>
      <trkpt lat="46.6448" lon="5.90135">
        <ele>813.2</ele>
        <time>2021-05-08T13:32:48Z</time>
      </trkpt>
      <trkpt lat="46.64485" lon="5.90138">
        <ele>812.5</ele>
        <time>2021-05-08T13:32:53Z</time>
      </trkpt>
      <trkpt lat="46.64489" lon="5.90142">
        <ele>812</ele>
        <time>2021-05-08T13:32:58Z</time>
      </trkpt>
      <trkpt lat="46.6449" lon="5.90149">
        <ele>811.2</ele>
        <time>2021-05-08T13:33:04Z</time>
      </trkpt>
      <trkpt lat="46.64492" lon="5.90155">
        <ele>809</ele>
        <time>2021-05-08T13:33:17Z</time>
      </trkpt>
      <trkpt lat="46.64492" lon="5.90162">
        <ele>807.8</ele>
        <time>2021-05-08T13:33:24Z</time>
      </trkpt>
      <trkpt lat="46.64494" lon="5.90168">
        <ele>806.8</ele>
        <time>2021-05-08T13:33:29Z</time>
      </trkpt>
      <trkpt lat="46.64496" lon="5.90176">
        <ele>805.8</ele>
        <time>2021-05-08T13:33:34Z</time>
      </trkpt>
      <trkpt lat="46.64498" lon="5.90184">
        <ele>804.9</ele>
        <time>2021-05-08T13:33:38Z</time>
      </trkpt>
      <trkpt lat="46.64501" lon="5.90193">
        <ele>804.1</ele>
        <time>2021-05-08T13:33:42Z</time>
      </trkpt>
      <trkpt lat="46.64504" lon="5.90201">
        <ele>803.7</ele>
        <time>2021-05-08T13:33:46Z</time>
      </trkpt>
      <trkpt lat="46.64507" lon="5.90207">
        <ele>803.6</ele>
        <time>2021-05-08T13:33:50Z</time>
      </trkpt>
      <trkpt lat="46.6451" lon="5.90214">
        <ele>804</ele>
        <time>2021-05-08T13:33:54Z</time>
      </trkpt>
      <trkpt lat="46.64514" lon="5.90219">
        <ele>804.5</ele>
        <time>2021-05-08T13:33:58Z</time>
      </trkpt>
      <trkpt lat="46.64517" lon="5.90224">
        <ele>804.7</ele>
        <time>2021-05-08T13:34:02Z</time>
      </trkpt>
      <trkpt lat="46.6452" lon="5.9023">
        <ele>804.8</ele>
        <time>2021-05-08T13:34:07Z</time>
      </trkpt>
      <trkpt lat="46.64522" lon="5.90236">
        <ele>804.4</ele>
        <time>2021-05-08T13:34:13Z</time>
      </trkpt>
      <trkpt lat="46.64524" lon="5.90242">
        <ele>803.5</ele>
        <time>2021-05-08T13:34:18Z</time>
      </trkpt>
      <trkpt lat="46.64526" lon="5.90248">
        <ele>803.2</ele>
        <time>2021-05-08T13:34:22Z</time>
      </trkpt>
      <trkpt lat="46.64528" lon="5.90255">
        <ele>802.9</ele>
        <time>2021-05-08T13:34:27Z</time>
      </trkpt>
      <trkpt lat="46.6453" lon="5.90263">
        <ele>802.8</ele>
        <time>2021-05-08T13:34:31Z</time>
      </trkpt>
      <trkpt lat="46.64532" lon="5.9027">
        <ele>802.7</ele>
        <time>2021-05-08T13:34:35Z</time>
      </trkpt>
      <trkpt lat="46.64533" lon="5.90276">
        <ele>802.3</ele>
        <time>2021-05-08T13:34:41Z</time>
      </trkpt>
      <trkpt lat="46.64539" lon="5.90276">
        <ele>800.6</ele>
        <time>2021-05-08T13:34:57Z</time>
      </trkpt>
      <trkpt lat="46.64535" lon="5.90276">
        <ele>800.5</ele>
        <time>2021-05-08T13:35:27Z</time>
      </trkpt>
      <trkpt lat="46.6454" lon="5.90279">
        <ele>800.8</ele>
        <time>2021-05-08T13:37:04Z</time>
      </trkpt>
      <trkpt lat="46.64543" lon="5.90284">
        <ele>800.8</ele>
        <time>2021-05-08T13:37:10Z</time>
      </trkpt>
      <trkpt lat="46.64545" lon="5.90291">
        <ele>800</ele>
        <time>2021-05-08T13:37:38Z</time>
      </trkpt>
      <trkpt lat="46.64547" lon="5.90298">
        <ele>799.9</ele>
        <time>2021-05-08T13:37:45Z</time>
      </trkpt>
      <trkpt lat="46.64549" lon="5.90304">
        <ele>800.3</ele>
        <time>2021-05-08T13:37:53Z</time>
      </trkpt>
      <trkpt lat="46.64549" lon="5.90312">
        <ele>800.8</ele>
        <time>2021-05-08T13:37:59Z</time>
      </trkpt>
      <trkpt lat="46.6455" lon="5.90318">
        <ele>801</ele>
        <time>2021-05-08T13:38:04Z</time>
      </trkpt>
      <trkpt lat="46.64552" lon="5.90325">
        <ele>800.2</ele>
        <time>2021-05-08T13:38:10Z</time>
      </trkpt>
      <trkpt lat="46.64554" lon="5.90332">
        <ele>799.5</ele>
        <time>2021-05-08T13:38:15Z</time>
      </trkpt>
      <trkpt lat="46.64556" lon="5.90339">
        <ele>798.3</ele>
        <time>2021-05-08T13:38:20Z</time>
      </trkpt>
      <trkpt lat="46.64558" lon="5.90345">
        <ele>796.9</ele>
        <time>2021-05-08T13:38:25Z</time>
      </trkpt>
      <trkpt lat="46.64562" lon="5.9035">
        <ele>795.8</ele>
        <time>2021-05-08T13:38:29Z</time>
      </trkpt>
      <trkpt lat="46.64566" lon="5.90355">
        <ele>794.6</ele>
        <time>2021-05-08T13:38:34Z</time>
      </trkpt>
      <trkpt lat="46.64568" lon="5.90361">
        <ele>793.5</ele>
        <time>2021-05-08T13:38:40Z</time>
      </trkpt>
      <trkpt lat="46.6457" lon="5.90368">
        <ele>793.1</ele>
        <time>2021-05-08T13:38:45Z</time>
      </trkpt>
      <trkpt lat="46.64572" lon="5.90374">
        <ele>793.4</ele>
        <time>2021-05-08T13:38:49Z</time>
      </trkpt>
      <trkpt lat="46.64574" lon="5.90381">
        <ele>793.9</ele>
        <time>2021-05-08T13:38:54Z</time>
      </trkpt>
      <trkpt lat="46.64575" lon="5.90387">
        <ele>794.5</ele>
        <time>2021-05-08T13:38:59Z</time>
      </trkpt>
      <trkpt lat="46.64574" lon="5.90394">
        <ele>795.1</ele>
        <time>2021-05-08T13:39:05Z</time>
      </trkpt>
      <trkpt lat="46.64574" lon="5.90401">
        <ele>795.3</ele>
        <time>2021-05-08T13:39:10Z</time>
      </trkpt>
      <trkpt lat="46.64574" lon="5.90409">
        <ele>795.4</ele>
        <time>2021-05-08T13:39:15Z</time>
      </trkpt>
      <trkpt lat="46.64576" lon="5.90415">
        <ele>795.6</ele>
        <time>2021-05-08T13:39:20Z</time>
      </trkpt>
      <trkpt lat="46.64575" lon="5.90422">
        <ele>795.8</ele>
        <time>2021-05-08T13:39:25Z</time>
      </trkpt>
      <trkpt lat="46.64573" lon="5.90429">
        <ele>796</ele>
        <time>2021-05-08T13:39:30Z</time>
      </trkpt>
      <trkpt lat="46.64571" lon="5.90437">
        <ele>795.8</ele>
        <time>2021-05-08T13:39:35Z</time>
      </trkpt>
      <trkpt lat="46.64569" lon="5.90444">
        <ele>795.8</ele>
        <time>2021-05-08T13:39:40Z</time>
      </trkpt>
      <trkpt lat="46.64568" lon="5.90451">
        <ele>795.9</ele>
        <time>2021-05-08T13:39:44Z</time>
      </trkpt>
      <trkpt lat="46.64567" lon="5.90457">
        <ele>796.1</ele>
        <time>2021-05-08T13:39:48Z</time>
      </trkpt>
      <trkpt lat="46.64568" lon="5.90465">
        <ele>796.1</ele>
        <time>2021-05-08T13:39:52Z</time>
      </trkpt>
      <trkpt lat="46.64569" lon="5.90471">
        <ele>796</ele>
        <time>2021-05-08T13:39:57Z</time>
      </trkpt>
      <trkpt lat="46.64569" lon="5.90478">
        <ele>795.8</ele>
        <time>2021-05-08T13:40:03Z</time>
      </trkpt>
      <trkpt lat="46.6457" lon="5.90485">
        <ele>795.8</ele>
        <time>2021-05-08T13:40:08Z</time>
      </trkpt>
      <trkpt lat="46.64571" lon="5.90492">
        <ele>796.1</ele>
        <time>2021-05-08T13:40:13Z</time>
      </trkpt>
      <trkpt lat="46.64572" lon="5.90499">
        <ele>796.6</ele>
        <time>2021-05-08T13:40:18Z</time>
      </trkpt>
      <trkpt lat="46.64575" lon="5.90505">
        <ele>797.1</ele>
        <time>2021-05-08T13:40:23Z</time>
      </trkpt>
      <trkpt lat="46.64577" lon="5.90511">
        <ele>797.7</ele>
        <time>2021-05-08T13:40:28Z</time>
      </trkpt>
      <trkpt lat="46.64579" lon="5.90517">
        <ele>798.1</ele>
        <time>2021-05-08T13:40:33Z</time>
      </trkpt>
      <trkpt lat="46.6458" lon="5.90524">
        <ele>798.4</ele>
        <time>2021-05-08T13:40:38Z</time>
      </trkpt>
      <trkpt lat="46.64582" lon="5.9053">
        <ele>798.5</ele>
        <time>2021-05-08T13:40:43Z</time>
      </trkpt>
      <trkpt lat="46.64584" lon="5.90537">
        <ele>798.7</ele>
        <time>2021-05-08T13:40:48Z</time>
      </trkpt>
      <trkpt lat="46.64584" lon="5.90545">
        <ele>798.8</ele>
        <time>2021-05-08T13:40:53Z</time>
      </trkpt>
      <trkpt lat="46.64584" lon="5.90552">
        <ele>799.2</ele>
        <time>2021-05-08T13:40:58Z</time>
      </trkpt>
      <trkpt lat="46.64583" lon="5.9056">
        <ele>799.6</ele>
        <time>2021-05-08T13:41:03Z</time>
      </trkpt>
      <trkpt lat="46.64583" lon="5.90567">
        <ele>800.1</ele>
        <time>2021-05-08T13:41:08Z</time>
      </trkpt>
      <trkpt lat="46.64584" lon="5.90574">
        <ele>800.4</ele>
        <time>2021-05-08T13:41:12Z</time>
      </trkpt>
      <trkpt lat="46.64587" lon="5.90579">
        <ele>800.4</ele>
        <time>2021-05-08T13:41:17Z</time>
      </trkpt>
      <trkpt lat="46.64589" lon="5.90585">
        <ele>800.6</ele>
        <time>2021-05-08T13:41:22Z</time>
      </trkpt>
      <trkpt lat="46.64593" lon="5.90599">
        <ele>805.1</ele>
        <time>2021-05-08T13:41:26Z</time>
      </trkpt>
      <trkpt lat="46.64595" lon="5.90606">
        <ele>807.5</ele>
        <time>2021-05-08T13:41:31Z</time>
      </trkpt>
      <trkpt lat="46.64599" lon="5.90611">
        <ele>808.6</ele>
        <time>2021-05-08T13:41:35Z</time>
      </trkpt>
      <trkpt lat="46.64601" lon="5.90617">
        <ele>809</ele>
        <time>2021-05-08T13:41:39Z</time>
      </trkpt>
      <trkpt lat="46.64602" lon="5.90623">
        <ele>809.3</ele>
        <time>2021-05-08T13:41:44Z</time>
      </trkpt>
      <trkpt lat="46.64603" lon="5.90631">
        <ele>809.9</ele>
        <time>2021-05-08T13:41:50Z</time>
      </trkpt>
      <trkpt lat="46.64605" lon="5.90638">
        <ele>810.5</ele>
        <time>2021-05-08T13:41:56Z</time>
      </trkpt>
      <trkpt lat="46.64606" lon="5.90646">
        <ele>810.9</ele>
        <time>2021-05-08T13:42:01Z</time>
      </trkpt>
      <trkpt lat="46.64606" lon="5.90653">
        <ele>811.1</ele>
        <time>2021-05-08T13:42:07Z</time>
      </trkpt>
      <trkpt lat="46.64608" lon="5.90659">
        <ele>811.3</ele>
        <time>2021-05-08T13:42:12Z</time>
      </trkpt>
      <trkpt lat="46.64611" lon="5.90665">
        <ele>811.4</ele>
        <time>2021-05-08T13:42:18Z</time>
      </trkpt>
      <trkpt lat="46.64614" lon="5.90671">
        <ele>811.6</ele>
        <time>2021-05-08T13:42:24Z</time>
      </trkpt>
      <trkpt lat="46.64615" lon="5.90677">
        <ele>812</ele>
        <time>2021-05-08T13:42:30Z</time>
      </trkpt>
      <trkpt lat="46.64618" lon="5.90683">
        <ele>812.3</ele>
        <time>2021-05-08T13:42:36Z</time>
      </trkpt>
      <trkpt lat="46.64621" lon="5.90689">
        <ele>813.3</ele>
        <time>2021-05-08T13:42:44Z</time>
      </trkpt>
      <trkpt lat="46.64621" lon="5.90696">
        <ele>814</ele>
        <time>2021-05-08T13:42:51Z</time>
      </trkpt>
      <trkpt lat="46.64623" lon="5.90702">
        <ele>814.3</ele>
        <time>2021-05-08T13:42:58Z</time>
      </trkpt>
      <trkpt lat="46.64624" lon="5.90709">
        <ele>814.3</ele>
        <time>2021-05-08T13:43:05Z</time>
      </trkpt>
      <trkpt lat="46.64628" lon="5.90713">
        <ele>814</ele>
        <time>2021-05-08T13:43:11Z</time>
      </trkpt>
      <trkpt lat="46.64631" lon="5.90724">
        <ele>816.2</ele>
        <time>2021-05-08T13:43:16Z</time>
      </trkpt>
      <trkpt lat="46.64635" lon="5.90732">
        <ele>818.8</ele>
        <time>2021-05-08T13:43:20Z</time>
      </trkpt>
      <trkpt lat="46.64638" lon="5.90737">
        <ele>821.4</ele>
        <time>2021-05-08T13:43:27Z</time>
      </trkpt>
      <trkpt lat="46.6464" lon="5.90743">
        <ele>822.6</ele>
        <time>2021-05-08T13:43:35Z</time>
      </trkpt>
      <trkpt lat="46.64644" lon="5.90748">
        <ele>823.2</ele>
        <time>2021-05-08T13:43:42Z</time>
      </trkpt>
      <trkpt lat="46.64648" lon="5.90753">
        <ele>823.4</ele>
        <time>2021-05-08T13:43:49Z</time>
      </trkpt>
      <trkpt lat="46.64651" lon="5.90759">
        <ele>823.3</ele>
        <time>2021-05-08T13:43:57Z</time>
      </trkpt>
      <trkpt lat="46.64653" lon="5.90765">
        <ele>823.4</ele>
        <time>2021-05-08T13:44:04Z</time>
      </trkpt>
      <trkpt lat="46.64657" lon="5.9077">
        <ele>823.5</ele>
        <time>2021-05-08T13:44:10Z</time>
      </trkpt>
      <trkpt lat="46.64657" lon="5.90777">
        <ele>823.6</ele>
        <time>2021-05-08T13:44:15Z</time>
      </trkpt>
      <trkpt lat="46.64658" lon="5.90784">
        <ele>823.9</ele>
        <time>2021-05-08T13:44:21Z</time>
      </trkpt>
      <trkpt lat="46.64662" lon="5.90789">
        <ele>824.9</ele>
        <time>2021-05-08T13:44:30Z</time>
      </trkpt>
      <trkpt lat="46.64664" lon="5.90795">
        <ele>826</ele>
        <time>2021-05-08T13:44:36Z</time>
      </trkpt>
      <trkpt lat="46.64665" lon="5.90802">
        <ele>826.6</ele>
        <time>2021-05-08T13:44:42Z</time>
      </trkpt>
      <trkpt lat="46.64666" lon="5.90809">
        <ele>826.6</ele>
        <time>2021-05-08T13:44:48Z</time>
      </trkpt>
      <trkpt lat="46.64668" lon="5.90816">
        <ele>828</ele>
        <time>2021-05-08T13:44:55Z</time>
      </trkpt>
      <trkpt lat="46.6467" lon="5.90823">
        <ele>830.6</ele>
        <time>2021-05-08T13:45:01Z</time>
      </trkpt>
      <trkpt lat="46.64673" lon="5.90829">
        <ele>833</ele>
        <time>2021-05-08T13:45:06Z</time>
      </trkpt>
      <trkpt lat="46.64675" lon="5.90835">
        <ele>834.9</ele>
        <time>2021-05-08T13:45:11Z</time>
      </trkpt>
      <trkpt lat="46.64679" lon="5.90838">
        <ele>837.3</ele>
        <time>2021-05-08T13:45:18Z</time>
      </trkpt>
      <trkpt lat="46.64682" lon="5.90845">
        <ele>839.5</ele>
        <time>2021-05-08T13:45:29Z</time>
      </trkpt>
      <trkpt lat="46.64685" lon="5.90849">
        <ele>840.6</ele>
        <time>2021-05-08T13:45:35Z</time>
      </trkpt>
      <trkpt lat="46.64686" lon="5.90856">
        <ele>841.2</ele>
        <time>2021-05-08T13:45:41Z</time>
      </trkpt>
      <trkpt lat="46.64686" lon="5.90864">
        <ele>842.1</ele>
        <time>2021-05-08T13:46:01Z</time>
      </trkpt>
      <trkpt lat="46.64688" lon="5.90869">
        <ele>842.6</ele>
        <time>2021-05-08T13:46:55Z</time>
      </trkpt>
      <trkpt lat="46.64684" lon="5.90872">
        <ele>845</ele>
        <time>2021-05-08T13:47:09Z</time>
      </trkpt>
      <trkpt lat="46.64689" lon="5.90868">
        <ele>845.5</ele>
        <time>2021-05-08T13:47:38Z</time>
      </trkpt>
      <trkpt lat="46.64693" lon="5.90863">
        <ele>844.4</ele>
        <time>2021-05-08T13:47:43Z</time>
      </trkpt>
      <trkpt lat="46.64694" lon="5.9087">
        <ele>842.4</ele>
        <time>2021-05-08T13:48:01Z</time>
      </trkpt>
      <trkpt lat="46.64697" lon="5.90875">
        <ele>842.8</ele>
        <time>2021-05-08T13:48:07Z</time>
      </trkpt>
      <trkpt lat="46.647" lon="5.90881">
        <ele>843.7</ele>
        <time>2021-05-08T13:48:15Z</time>
      </trkpt>
      <trkpt lat="46.647" lon="5.90888">
        <ele>844.3</ele>
        <time>2021-05-08T13:48:23Z</time>
      </trkpt>
      <trkpt lat="46.64698" lon="5.90902">
        <ele>846.6</ele>
        <time>2021-05-08T13:48:27Z</time>
      </trkpt>
      <trkpt lat="46.64699" lon="5.90909">
        <ele>848.8</ele>
        <time>2021-05-08T13:48:35Z</time>
      </trkpt>
      <trkpt lat="46.64702" lon="5.90914">
        <ele>849.5</ele>
        <time>2021-05-08T13:48:42Z</time>
      </trkpt>
      <trkpt lat="46.64705" lon="5.9092">
        <ele>850</ele>
        <time>2021-05-08T13:48:48Z</time>
      </trkpt>
      <trkpt lat="46.64709" lon="5.90925">
        <ele>850</ele>
        <time>2021-05-08T13:48:53Z</time>
      </trkpt>
      <trkpt lat="46.64711" lon="5.90931">
        <ele>849.7</ele>
        <time>2021-05-08T13:48:58Z</time>
      </trkpt>
      <trkpt lat="46.64714" lon="5.90937">
        <ele>849.4</ele>
        <time>2021-05-08T13:49:03Z</time>
      </trkpt>
      <trkpt lat="46.64716" lon="5.90943">
        <ele>849.3</ele>
        <time>2021-05-08T13:49:08Z</time>
      </trkpt>
      <trkpt lat="46.64718" lon="5.90949">
        <ele>848.9</ele>
        <time>2021-05-08T13:49:13Z</time>
      </trkpt>
      <trkpt lat="46.6472" lon="5.90956">
        <ele>848.1</ele>
        <time>2021-05-08T13:49:20Z</time>
      </trkpt>
      <trkpt lat="46.64722" lon="5.90962">
        <ele>847.5</ele>
        <time>2021-05-08T13:49:26Z</time>
      </trkpt>
      <trkpt lat="46.64722" lon="5.90969">
        <ele>847.7</ele>
        <time>2021-05-08T13:49:31Z</time>
      </trkpt>
      <trkpt lat="46.64723" lon="5.90976">
        <ele>848</ele>
        <time>2021-05-08T13:49:37Z</time>
      </trkpt>
      <trkpt lat="46.64725" lon="5.90983">
        <ele>848.4</ele>
        <time>2021-05-08T13:49:43Z</time>
      </trkpt>
      <trkpt lat="46.64726" lon="5.90989">
        <ele>848.8</ele>
        <time>2021-05-08T13:49:48Z</time>
      </trkpt>
      <trkpt lat="46.64728" lon="5.90997">
        <ele>849.4</ele>
        <time>2021-05-08T13:49:53Z</time>
      </trkpt>
      <trkpt lat="46.64728" lon="5.91004">
        <ele>850.3</ele>
        <time>2021-05-08T13:49:58Z</time>
      </trkpt>
      <trkpt lat="46.64731" lon="5.9101">
        <ele>851.4</ele>
        <time>2021-05-08T13:50:04Z</time>
      </trkpt>
      <trkpt lat="46.64733" lon="5.91017">
        <ele>852.4</ele>
        <time>2021-05-08T13:50:08Z</time>
      </trkpt>
      <trkpt lat="46.64732" lon="5.91025">
        <ele>853.4</ele>
        <time>2021-05-08T13:50:12Z</time>
      </trkpt>
      <trkpt lat="46.64733" lon="5.91032">
        <ele>854.3</ele>
        <time>2021-05-08T13:50:17Z</time>
      </trkpt>
      <trkpt lat="46.64732" lon="5.9104">
        <ele>855.6</ele>
        <time>2021-05-08T13:50:23Z</time>
      </trkpt>
      <trkpt lat="46.64731" lon="5.91046">
        <ele>857.4</ele>
        <time>2021-05-08T13:50:32Z</time>
      </trkpt>
      <trkpt lat="46.64735" lon="5.9105">
        <ele>856.4</ele>
        <time>2021-05-08T13:51:03Z</time>
      </trkpt>
      <trkpt lat="46.64739" lon="5.91054">
        <ele>855</ele>
        <time>2021-05-08T13:51:55Z</time>
      </trkpt>
      <trkpt lat="46.64743" lon="5.91056">
        <ele>854.8</ele>
        <time>2021-05-08T13:52:02Z</time>
      </trkpt>
      <trkpt lat="46.64747" lon="5.91058">
        <ele>854.5</ele>
        <time>2021-05-08T13:52:07Z</time>
      </trkpt>
      <trkpt lat="46.64751" lon="5.91062">
        <ele>854.1</ele>
        <time>2021-05-08T13:52:14Z</time>
      </trkpt>
      <trkpt lat="46.64753" lon="5.91069">
        <ele>853.6</ele>
        <time>2021-05-08T13:52:19Z</time>
      </trkpt>
      <trkpt lat="46.64755" lon="5.91075">
        <ele>853</ele>
        <time>2021-05-08T13:52:24Z</time>
      </trkpt>
      <trkpt lat="46.64757" lon="5.91083">
        <ele>853</ele>
        <time>2021-05-08T13:52:29Z</time>
      </trkpt>
      <trkpt lat="46.64759" lon="5.9109">
        <ele>853</ele>
        <time>2021-05-08T13:52:34Z</time>
      </trkpt>
      <trkpt lat="46.64762" lon="5.91094">
        <ele>852.5</ele>
        <time>2021-05-08T13:52:40Z</time>
      </trkpt>
      <trkpt lat="46.64762" lon="5.91109">
        <ele>857.2</ele>
        <time>2021-05-08T13:52:44Z</time>
      </trkpt>
      <trkpt lat="46.64765" lon="5.91115">
        <ele>859.6</ele>
        <time>2021-05-08T13:52:49Z</time>
      </trkpt>
      <trkpt lat="46.64769" lon="5.91118">
        <ele>860.9</ele>
        <time>2021-05-08T13:52:54Z</time>
      </trkpt>
      <trkpt lat="46.64773" lon="5.91123">
        <ele>861.7</ele>
        <time>2021-05-08T13:53:00Z</time>
      </trkpt>
      <trkpt lat="46.64775" lon="5.9113">
        <ele>862.4</ele>
        <time>2021-05-08T13:53:07Z</time>
      </trkpt>
      <trkpt lat="46.64777" lon="5.91136">
        <ele>862.8</ele>
        <time>2021-05-08T13:53:13Z</time>
      </trkpt>
      <trkpt lat="46.64778" lon="5.91143">
        <ele>863.3</ele>
        <time>2021-05-08T13:53:20Z</time>
      </trkpt>
      <trkpt lat="46.64779" lon="5.9115">
        <ele>863.7</ele>
        <time>2021-05-08T13:53:27Z</time>
      </trkpt>
      <trkpt lat="46.64782" lon="5.91155">
        <ele>864</ele>
        <time>2021-05-08T13:53:33Z</time>
      </trkpt>
      <trkpt lat="46.64782" lon="5.91163">
        <ele>864</ele>
        <time>2021-05-08T13:53:38Z</time>
      </trkpt>
      <trkpt lat="46.64782" lon="5.9117">
        <ele>863.7</ele>
        <time>2021-05-08T13:53:42Z</time>
      </trkpt>
      <trkpt lat="46.64784" lon="5.91176">
        <ele>863.3</ele>
        <time>2021-05-08T13:53:47Z</time>
      </trkpt>
      <trkpt lat="46.64786" lon="5.91189">
        <ele>864.8</ele>
        <time>2021-05-08T13:53:51Z</time>
      </trkpt>
      <trkpt lat="46.64789" lon="5.91195">
        <ele>865.8</ele>
        <time>2021-05-08T13:53:56Z</time>
      </trkpt>
      <trkpt lat="46.64791" lon="5.912">
        <ele>866.4</ele>
        <time>2021-05-08T13:54:02Z</time>
      </trkpt>
      <trkpt lat="46.64793" lon="5.91207">
        <ele>866.8</ele>
        <time>2021-05-08T13:54:08Z</time>
      </trkpt>
      <trkpt lat="46.64795" lon="5.91214">
        <ele>867.1</ele>
        <time>2021-05-08T13:54:13Z</time>
      </trkpt>
      <trkpt lat="46.64798" lon="5.91218">
        <ele>867.3</ele>
        <time>2021-05-08T13:54:18Z</time>
      </trkpt>
      <trkpt lat="46.64802" lon="5.91224">
        <ele>867.4</ele>
        <time>2021-05-08T13:54:23Z</time>
      </trkpt>
      <trkpt lat="46.64806" lon="5.91228">
        <ele>867.1</ele>
        <time>2021-05-08T13:54:29Z</time>
      </trkpt>
      <trkpt lat="46.64809" lon="5.91233">
        <ele>866.5</ele>
        <time>2021-05-08T13:54:34Z</time>
      </trkpt>
      <trkpt lat="46.64811" lon="5.9124">
        <ele>866.2</ele>
        <time>2021-05-08T13:54:39Z</time>
      </trkpt>
      <trkpt lat="46.64813" lon="5.91246">
        <ele>866.2</ele>
        <time>2021-05-08T13:54:44Z</time>
      </trkpt>
      <trkpt lat="46.64816" lon="5.91252">
        <ele>866.5</ele>
        <time>2021-05-08T13:54:50Z</time>
      </trkpt>
      <trkpt lat="46.64819" lon="5.91258">
        <ele>866.8</ele>
        <time>2021-05-08T13:54:55Z</time>
      </trkpt>
      <trkpt lat="46.6482" lon="5.91265">
        <ele>867.1</ele>
        <time>2021-05-08T13:55:00Z</time>
      </trkpt>
      <trkpt lat="46.64822" lon="5.91271">
        <ele>867.3</ele>
        <time>2021-05-08T13:55:05Z</time>
      </trkpt>
      <trkpt lat="46.64825" lon="5.91277">
        <ele>867.4</ele>
        <time>2021-05-08T13:55:10Z</time>
      </trkpt>
      <trkpt lat="46.64827" lon="5.91283">
        <ele>867.3</ele>
        <time>2021-05-08T13:55:15Z</time>
      </trkpt>
      <trkpt lat="46.64829" lon="5.91289">
        <ele>867.1</ele>
        <time>2021-05-08T13:55:23Z</time>
      </trkpt>
      <trkpt lat="46.6483" lon="5.91296">
        <ele>866.2</ele>
        <time>2021-05-08T13:55:31Z</time>
      </trkpt>
      <trkpt lat="46.64831" lon="5.91302">
        <ele>865.3</ele>
        <time>2021-05-08T13:55:38Z</time>
      </trkpt>
      <trkpt lat="46.64833" lon="5.91308">
        <ele>863.9</ele>
        <time>2021-05-08T13:55:46Z</time>
      </trkpt>
      <trkpt lat="46.64835" lon="5.91314">
        <ele>862.7</ele>
        <time>2021-05-08T13:55:52Z</time>
      </trkpt>
      <trkpt lat="46.64839" lon="5.91319">
        <ele>861.4</ele>
        <time>2021-05-08T13:55:58Z</time>
      </trkpt>
      <trkpt lat="46.64842" lon="5.91326">
        <ele>860.5</ele>
        <time>2021-05-08T13:56:03Z</time>
      </trkpt>
      <trkpt lat="46.64844" lon="5.91333">
        <ele>859.7</ele>
        <time>2021-05-08T13:56:08Z</time>
      </trkpt>
      <trkpt lat="46.64846" lon="5.9134">
        <ele>859.1</ele>
        <time>2021-05-08T13:56:13Z</time>
      </trkpt>
      <trkpt lat="46.6485" lon="5.91345">
        <ele>858.5</ele>
        <time>2021-05-08T13:56:18Z</time>
      </trkpt>
      <trkpt lat="46.64853" lon="5.9135">
        <ele>858.2</ele>
        <time>2021-05-08T13:56:24Z</time>
      </trkpt>
      <trkpt lat="46.64857" lon="5.91355">
        <ele>857.4</ele>
        <time>2021-05-08T13:56:30Z</time>
      </trkpt>
      <trkpt lat="46.64858" lon="5.91363">
        <ele>856.5</ele>
        <time>2021-05-08T13:56:36Z</time>
      </trkpt>
      <trkpt lat="46.64858" lon="5.9137">
        <ele>855.8</ele>
        <time>2021-05-08T13:56:42Z</time>
      </trkpt>
      <trkpt lat="46.64861" lon="5.91375">
        <ele>855.1</ele>
        <time>2021-05-08T13:56:47Z</time>
      </trkpt>
      <trkpt lat="46.64864" lon="5.9138">
        <ele>854.5</ele>
        <time>2021-05-08T13:56:53Z</time>
      </trkpt>
      <trkpt lat="46.64867" lon="5.91386">
        <ele>854</ele>
        <time>2021-05-08T13:56:59Z</time>
      </trkpt>
      <trkpt lat="46.64868" lon="5.91394">
        <ele>853.6</ele>
        <time>2021-05-08T13:57:05Z</time>
      </trkpt>
      <trkpt lat="46.6487" lon="5.914">
        <ele>853.6</ele>
        <time>2021-05-08T13:57:10Z</time>
      </trkpt>
      <trkpt lat="46.64878" lon="5.91422">
        <ele>861.3</ele>
        <time>2021-05-08T13:57:14Z</time>
      </trkpt>
      <trkpt lat="46.64882" lon="5.91431">
        <ele>867.6</ele>
        <time>2021-05-08T13:57:18Z</time>
      </trkpt>
      <trkpt lat="46.64887" lon="5.91436">
        <ele>872.3</ele>
        <time>2021-05-08T13:57:24Z</time>
      </trkpt>
      <trkpt lat="46.64892" lon="5.91441">
        <ele>874.1</ele>
        <time>2021-05-08T13:57:29Z</time>
      </trkpt>
      <trkpt lat="46.64896" lon="5.91445">
        <ele>874.4</ele>
        <time>2021-05-08T13:57:33Z</time>
      </trkpt>
      <trkpt lat="46.64892" lon="5.91449">
        <ele>874.8</ele>
        <time>2021-05-08T13:57:44Z</time>
      </trkpt>
      <trkpt lat="46.64895" lon="5.91454">
        <ele>875.4</ele>
        <time>2021-05-08T13:58:00Z</time>
      </trkpt>
      <trkpt lat="46.64899" lon="5.91458">
        <ele>874.3</ele>
        <time>2021-05-08T13:58:08Z</time>
      </trkpt>
      <trkpt lat="46.64902" lon="5.91464">
        <ele>873.5</ele>
        <time>2021-05-08T13:58:13Z</time>
      </trkpt>
      <trkpt lat="46.64905" lon="5.9147">
        <ele>872.7</ele>
        <time>2021-05-08T13:58:18Z</time>
      </trkpt>
      <trkpt lat="46.64906" lon="5.91477">
        <ele>871.4</ele>
        <time>2021-05-08T13:58:24Z</time>
      </trkpt>
      <trkpt lat="46.64907" lon="5.91487">
        <ele>869.5</ele>
        <time>2021-05-08T13:58:28Z</time>
      </trkpt>
      <trkpt lat="46.64905" lon="5.91496">
        <ele>867.6</ele>
        <time>2021-05-08T13:58:32Z</time>
      </trkpt>
      <trkpt lat="46.64905" lon="5.91506">
        <ele>867.3</ele>
        <time>2021-05-08T13:58:36Z</time>
      </trkpt>
      <trkpt lat="46.64905" lon="5.91513">
        <ele>867.7</ele>
        <time>2021-05-08T13:58:41Z</time>
      </trkpt>
      <trkpt lat="46.64907" lon="5.91519">
        <ele>868.3</ele>
        <time>2021-05-08T13:58:46Z</time>
      </trkpt>
      <trkpt lat="46.64909" lon="5.91526">
        <ele>869</ele>
        <time>2021-05-08T13:58:50Z</time>
      </trkpt>
      <trkpt lat="46.6491" lon="5.91532">
        <ele>869.8</ele>
        <time>2021-05-08T13:58:54Z</time>
      </trkpt>
      <trkpt lat="46.64911" lon="5.91539">
        <ele>869.6</ele>
        <time>2021-05-08T13:59:00Z</time>
      </trkpt>
      <trkpt lat="46.64912" lon="5.91546">
        <ele>869.6</ele>
        <time>2021-05-08T13:59:07Z</time>
      </trkpt>
      <trkpt lat="46.64914" lon="5.91552">
        <ele>870.3</ele>
        <time>2021-05-08T13:59:16Z</time>
      </trkpt>
      <trkpt lat="46.64918" lon="5.91555">
        <ele>870.7</ele>
        <time>2021-05-08T13:59:20Z</time>
      </trkpt>
      <trkpt lat="46.64921" lon="5.91561">
        <ele>871.2</ele>
        <time>2021-05-08T13:59:25Z</time>
      </trkpt>
      <trkpt lat="46.64924" lon="5.91568">
        <ele>871.4</ele>
        <time>2021-05-08T13:59:29Z</time>
      </trkpt>
      <trkpt lat="46.64925" lon="5.91577">
        <ele>871.9</ele>
        <time>2021-05-08T13:59:33Z</time>
      </trkpt>
      <trkpt lat="46.64927" lon="5.91584">
        <ele>871.5</ele>
        <time>2021-05-08T13:59:37Z</time>
      </trkpt>
      <trkpt lat="46.6493" lon="5.9159">
        <ele>871.3</ele>
        <time>2021-05-08T13:59:43Z</time>
      </trkpt>
      <trkpt lat="46.64932" lon="5.91596">
        <ele>870.8</ele>
        <time>2021-05-08T13:59:49Z</time>
      </trkpt>
      <trkpt lat="46.64933" lon="5.91603">
        <ele>870</ele>
        <time>2021-05-08T13:59:54Z</time>
      </trkpt>
      <trkpt lat="46.64935" lon="5.91609">
        <ele>869.4</ele>
        <time>2021-05-08T13:59:59Z</time>
      </trkpt>
      <trkpt lat="46.64937" lon="5.91615">
        <ele>869.5</ele>
        <time>2021-05-08T14:00:04Z</time>
      </trkpt>
      <trkpt lat="46.64938" lon="5.91622">
        <ele>870.4</ele>
        <time>2021-05-08T14:00:10Z</time>
      </trkpt>
      <trkpt lat="46.64941" lon="5.91627">
        <ele>871.2</ele>
        <time>2021-05-08T14:00:22Z</time>
      </trkpt>
      <trkpt lat="46.64945" lon="5.91633">
        <ele>870.1</ele>
        <time>2021-05-08T14:00:28Z</time>
      </trkpt>
      <trkpt lat="46.6495" lon="5.91644">
        <ele>866.1</ele>
        <time>2021-05-08T14:00:32Z</time>
      </trkpt>
      <trkpt lat="46.64952" lon="5.91651">
        <ele>862.8</ele>
        <time>2021-05-08T14:00:36Z</time>
      </trkpt>
      <trkpt lat="46.64954" lon="5.91658">
        <ele>860.1</ele>
        <time>2021-05-08T14:00:41Z</time>
      </trkpt>
      <trkpt lat="46.64957" lon="5.91662">
        <ele>857.9</ele>
        <time>2021-05-08T14:00:47Z</time>
      </trkpt>
      <trkpt lat="46.64961" lon="5.91667">
        <ele>856.6</ele>
        <time>2021-05-08T14:00:52Z</time>
      </trkpt>
      <trkpt lat="46.64965" lon="5.91671">
        <ele>855.6</ele>
        <time>2021-05-08T14:00:59Z</time>
      </trkpt>
      <trkpt lat="46.64963" lon="5.91677">
        <ele>854.5</ele>
        <time>2021-05-08T14:01:14Z</time>
      </trkpt>
      <trkpt lat="46.6496" lon="5.91684">
        <ele>853.1</ele>
        <time>2021-05-08T14:01:22Z</time>
      </trkpt>
      <trkpt lat="46.64955" lon="5.91692">
        <ele>853.5</ele>
        <time>2021-05-08T14:01:26Z</time>
      </trkpt>
      <trkpt lat="46.64953" lon="5.91699">
        <ele>853.5</ele>
        <time>2021-05-08T14:01:30Z</time>
      </trkpt>
      <trkpt lat="46.64952" lon="5.91705">
        <ele>853.6</ele>
        <time>2021-05-08T14:01:35Z</time>
      </trkpt>
      <trkpt lat="46.6495" lon="5.91698">
        <ele>857.6</ele>
        <time>2021-05-08T14:02:13Z</time>
      </trkpt>
      <trkpt lat="46.6495" lon="5.91692">
        <ele>857.3</ele>
        <time>2021-05-08T14:02:17Z</time>
      </trkpt>
      <trkpt lat="46.64952" lon="5.91684">
        <ele>856.2</ele>
        <time>2021-05-08T14:02:23Z</time>
      </trkpt>
      <trkpt lat="46.64955" lon="5.91679">
        <ele>854.8</ele>
        <time>2021-05-08T14:02:29Z</time>
      </trkpt>
      <trkpt lat="46.64958" lon="5.91673">
        <ele>855.1</ele>
        <time>2021-05-08T14:02:36Z</time>
      </trkpt>
      <trkpt lat="46.64963" lon="5.91671">
        <ele>855.9</ele>
        <time>2021-05-08T14:02:53Z</time>
      </trkpt>
      <trkpt lat="46.64967" lon="5.91669">
        <ele>854.6</ele>
        <time>2021-05-08T14:02:59Z</time>
      </trkpt>
      <trkpt lat="46.64972" lon="5.9167">
        <ele>854.4</ele>
        <time>2021-05-08T14:03:06Z</time>
      </trkpt>
      <trkpt lat="46.64975" lon="5.91676">
        <ele>856.2</ele>
        <time>2021-05-08T14:03:14Z</time>
      </trkpt>
      <trkpt lat="46.64976" lon="5.91682">
        <ele>856.3</ele>
        <time>2021-05-08T14:03:19Z</time>
      </trkpt>
      <trkpt lat="46.64979" lon="5.91688">
        <ele>855.4</ele>
        <time>2021-05-08T14:03:29Z</time>
      </trkpt>
      <trkpt lat="46.64981" lon="5.91694">
        <ele>855.4</ele>
        <time>2021-05-08T14:03:44Z</time>
      </trkpt>
      <trkpt lat="46.64981" lon="5.91701">
        <ele>855.1</ele>
        <time>2021-05-08T14:03:49Z</time>
      </trkpt>
      <trkpt lat="46.6498" lon="5.91711">
        <ele>857.7</ele>
        <time>2021-05-08T14:03:53Z</time>
      </trkpt>
      <trkpt lat="46.64982" lon="5.91717">
        <ele>859.6</ele>
        <time>2021-05-08T14:04:00Z</time>
      </trkpt>
      <trkpt lat="46.64987" lon="5.9172">
        <ele>860.4</ele>
        <time>2021-05-08T14:04:06Z</time>
      </trkpt>
      <trkpt lat="46.64989" lon="5.91727">
        <ele>860.9</ele>
        <time>2021-05-08T14:04:10Z</time>
      </trkpt>
      <trkpt lat="46.64988" lon="5.91733">
        <ele>862.1</ele>
        <time>2021-05-08T14:04:17Z</time>
      </trkpt>
      <trkpt lat="46.64984" lon="5.91736">
        <ele>862.9</ele>
        <time>2021-05-08T14:04:26Z</time>
      </trkpt>
      <trkpt lat="46.64981" lon="5.91743">
        <ele>863.3</ele>
        <time>2021-05-08T14:04:31Z</time>
      </trkpt>
      <trkpt lat="46.64976" lon="5.91741">
        <ele>864.6</ele>
        <time>2021-05-08T14:04:47Z</time>
      </trkpt>
      <trkpt lat="46.6498" lon="5.91736">
        <ele>867.2</ele>
        <time>2021-05-08T14:05:26Z</time>
      </trkpt>
      <trkpt lat="46.64984" lon="5.9174">
        <ele>866.7</ele>
        <time>2021-05-08T14:05:42Z</time>
      </trkpt>
      <trkpt lat="46.64987" lon="5.91746">
        <ele>865.5</ele>
        <time>2021-05-08T14:05:50Z</time>
      </trkpt>
      <trkpt lat="46.64989" lon="5.91753">
        <ele>865</ele>
        <time>2021-05-08T14:05:57Z</time>
      </trkpt>
      <trkpt lat="46.64992" lon="5.91759">
        <ele>865.2</ele>
        <time>2021-05-08T14:06:03Z</time>
      </trkpt>
      <trkpt lat="46.64996" lon="5.91763">
        <ele>865.7</ele>
        <time>2021-05-08T14:06:09Z</time>
      </trkpt>
      <trkpt lat="46.65" lon="5.9177">
        <ele>866</ele>
        <time>2021-05-08T14:06:13Z</time>
      </trkpt>
      <trkpt lat="46.65003" lon="5.91776">
        <ele>866</ele>
        <time>2021-05-08T14:06:18Z</time>
      </trkpt>
      <trkpt lat="46.65007" lon="5.91781">
        <ele>865.6</ele>
        <time>2021-05-08T14:06:24Z</time>
      </trkpt>
      <trkpt lat="46.65008" lon="5.91788">
        <ele>864.7</ele>
        <time>2021-05-08T14:06:34Z</time>
      </trkpt>
      <trkpt lat="46.65012" lon="5.91792">
        <ele>866</ele>
        <time>2021-05-08T14:06:42Z</time>
      </trkpt>
      <trkpt lat="46.65016" lon="5.91794">
        <ele>867.2</ele>
        <time>2021-05-08T14:06:53Z</time>
      </trkpt>
      <trkpt lat="46.65021" lon="5.91794">
        <ele>867.9</ele>
        <time>2021-05-08T14:07:06Z</time>
      </trkpt>
      <trkpt lat="46.65026" lon="5.91796">
        <ele>869.2</ele>
        <time>2021-05-08T14:07:20Z</time>
      </trkpt>
      <trkpt lat="46.65031" lon="5.91797">
        <ele>869.7</ele>
        <time>2021-05-08T14:07:26Z</time>
      </trkpt>
      <trkpt lat="46.65035" lon="5.91795">
        <ele>872.2</ele>
        <time>2021-05-08T14:07:36Z</time>
      </trkpt>
      <trkpt lat="46.6504" lon="5.91794">
        <ele>873.5</ele>
        <time>2021-05-08T14:07:48Z</time>
      </trkpt>
      <trkpt lat="46.65046" lon="5.91792">
        <ele>873.9</ele>
        <time>2021-05-08T14:07:54Z</time>
      </trkpt>
      <trkpt lat="46.65051" lon="5.91793">
        <ele>874.6</ele>
        <time>2021-05-08T14:07:59Z</time>
      </trkpt>
      <trkpt lat="46.65056" lon="5.91792">
        <ele>875.1</ele>
        <time>2021-05-08T14:08:03Z</time>
      </trkpt>
      <trkpt lat="46.65061" lon="5.91793">
        <ele>875.1</ele>
        <time>2021-05-08T14:08:07Z</time>
      </trkpt>
      <trkpt lat="46.65065" lon="5.9179">
        <ele>874.7</ele>
        <time>2021-05-08T14:08:13Z</time>
      </trkpt>
      <trkpt lat="46.6507" lon="5.91792">
        <ele>873.8</ele>
        <time>2021-05-08T14:08:20Z</time>
      </trkpt>
      <trkpt lat="46.65073" lon="5.91797">
        <ele>871.9</ele>
        <time>2021-05-08T14:08:29Z</time>
      </trkpt>
      <trkpt lat="46.65077" lon="5.91796">
        <ele>870.4</ele>
        <time>2021-05-08T14:08:35Z</time>
      </trkpt>
      <trkpt lat="46.65082" lon="5.91796">
        <ele>867.8</ele>
        <time>2021-05-08T14:08:45Z</time>
      </trkpt>
      <trkpt lat="46.65086" lon="5.918">
        <ele>865.5</ele>
        <time>2021-05-08T14:09:08Z</time>
      </trkpt>
      <trkpt lat="46.6509" lon="5.918">
        <ele>864.8</ele>
        <time>2021-05-08T14:09:16Z</time>
      </trkpt>
      <trkpt lat="46.65094" lon="5.91796">
        <ele>864.3</ele>
        <time>2021-05-08T14:09:23Z</time>
      </trkpt>
      <trkpt lat="46.65099" lon="5.91793">
        <ele>864.2</ele>
        <time>2021-05-08T14:09:28Z</time>
      </trkpt>
      <trkpt lat="46.65104" lon="5.91792">
        <ele>864.3</ele>
        <time>2021-05-08T14:09:32Z</time>
      </trkpt>
      <trkpt lat="46.65108" lon="5.91793">
        <ele>864.4</ele>
        <time>2021-05-08T14:09:40Z</time>
      </trkpt>
      <trkpt lat="46.65114" lon="5.91791">
        <ele>864.3</ele>
        <time>2021-05-08T14:09:47Z</time>
      </trkpt>
      <trkpt lat="46.65122" lon="5.91788">
        <ele>863.9</ele>
        <time>2021-05-08T14:09:51Z</time>
      </trkpt>
      <trkpt lat="46.65122" lon="5.91801">
        <ele>866.6</ele>
        <time>2021-05-08T14:10:16Z</time>
      </trkpt>
      <trkpt lat="46.65121" lon="5.91813">
        <ele>870.3</ele>
        <time>2021-05-08T14:10:20Z</time>
      </trkpt>
      <trkpt lat="46.65121" lon="5.91806">
        <ele>875.8</ele>
        <time>2021-05-08T14:10:43Z</time>
      </trkpt>
      <trkpt lat="46.65124" lon="5.918">
        <ele>875.2</ele>
        <time>2021-05-08T14:10:47Z</time>
      </trkpt>
      <trkpt lat="46.65127" lon="5.91795">
        <ele>874.3</ele>
        <time>2021-05-08T14:10:55Z</time>
      </trkpt>
      <trkpt lat="46.6513" lon="5.9179">
        <ele>873.7</ele>
        <time>2021-05-08T14:11:06Z</time>
      </trkpt>
      <trkpt lat="46.65135" lon="5.91787">
        <ele>871.7</ele>
        <time>2021-05-08T14:11:26Z</time>
      </trkpt>
      <trkpt lat="46.65139" lon="5.91782">
        <ele>869.6</ele>
        <time>2021-05-08T14:11:30Z</time>
      </trkpt>
      <trkpt lat="46.65144" lon="5.91777">
        <ele>867.3</ele>
        <time>2021-05-08T14:11:34Z</time>
      </trkpt>
      <trkpt lat="46.65143" lon="5.91768">
        <ele>863.6</ele>
        <time>2021-05-08T14:11:38Z</time>
      </trkpt>
      <trkpt lat="46.65148" lon="5.91766">
        <ele>858.3</ele>
        <time>2021-05-08T14:12:01Z</time>
      </trkpt>
      <trkpt lat="46.65153" lon="5.91764">
        <ele>857.8</ele>
        <time>2021-05-08T14:12:07Z</time>
      </trkpt>
      <trkpt lat="46.65158" lon="5.91767">
        <ele>855.3</ele>
        <time>2021-05-08T14:12:24Z</time>
      </trkpt>
      <trkpt lat="46.65163" lon="5.91767">
        <ele>854.9</ele>
        <time>2021-05-08T14:12:28Z</time>
      </trkpt>
      <trkpt lat="46.65167" lon="5.91767">
        <ele>854.7</ele>
        <time>2021-05-08T14:12:33Z</time>
      </trkpt>
      <trkpt lat="46.65172" lon="5.91767">
        <ele>855.5</ele>
        <time>2021-05-08T14:12:39Z</time>
      </trkpt>
      <trkpt lat="46.65176" lon="5.91772">
        <ele>852.7</ele>
        <time>2021-05-08T14:13:12Z</time>
      </trkpt>
      <trkpt lat="46.6518" lon="5.91774">
        <ele>850.2</ele>
        <time>2021-05-08T14:13:21Z</time>
      </trkpt>
      <trkpt lat="46.65185" lon="5.91775">
        <ele>848.9</ele>
        <time>2021-05-08T14:13:32Z</time>
      </trkpt>
      <trkpt lat="46.65189" lon="5.91773">
        <ele>849.2</ele>
        <time>2021-05-08T14:13:39Z</time>
      </trkpt>
      <trkpt lat="46.65194" lon="5.91774">
        <ele>849.3</ele>
        <time>2021-05-08T14:13:44Z</time>
      </trkpt>
      <trkpt lat="46.65203" lon="5.91772">
        <ele>853.4</ele>
        <time>2021-05-08T14:13:48Z</time>
      </trkpt>
      <trkpt lat="46.6521" lon="5.91769">
        <ele>857.2</ele>
        <time>2021-05-08T14:13:52Z</time>
      </trkpt>
      <trkpt lat="46.65215" lon="5.91773">
        <ele>862.3</ele>
        <time>2021-05-08T14:14:10Z</time>
      </trkpt>
      <trkpt lat="46.65218" lon="5.91769">
        <ele>861.1</ele>
        <time>2021-05-08T14:14:18Z</time>
      </trkpt>
      <trkpt lat="46.65222" lon="5.91763">
        <ele>859.8</ele>
        <time>2021-05-08T14:14:25Z</time>
      </trkpt>
      <trkpt lat="46.65226" lon="5.9176">
        <ele>858.6</ele>
        <time>2021-05-08T14:14:31Z</time>
      </trkpt>
      <trkpt lat="46.65231" lon="5.9176">
        <ele>856.5</ele>
        <time>2021-05-08T14:14:40Z</time>
      </trkpt>
      <trkpt lat="46.65235" lon="5.91763">
        <ele>851.8</ele>
        <time>2021-05-08T14:15:19Z</time>
      </trkpt>
      <trkpt lat="46.65239" lon="5.9176">
        <ele>851</ele>
        <time>2021-05-08T14:15:26Z</time>
      </trkpt>
      <trkpt lat="46.65242" lon="5.91754">
        <ele>850.3</ele>
        <time>2021-05-08T14:15:36Z</time>
      </trkpt>
      <trkpt lat="46.65245" lon="5.91749">
        <ele>849.6</ele>
        <time>2021-05-08T14:15:43Z</time>
      </trkpt>
      <trkpt lat="46.65248" lon="5.91743">
        <ele>849.2</ele>
        <time>2021-05-08T14:15:49Z</time>
      </trkpt>
      <trkpt lat="46.65248" lon="5.91734">
        <ele>848.9</ele>
        <time>2021-05-08T14:15:53Z</time>
      </trkpt>
      <trkpt lat="46.65248" lon="5.91727">
        <ele>848.8</ele>
        <time>2021-05-08T14:15:58Z</time>
      </trkpt>
      <trkpt lat="46.65252" lon="5.91724">
        <ele>848.2</ele>
        <time>2021-05-08T14:16:09Z</time>
      </trkpt>
      <trkpt lat="46.65255" lon="5.91719">
        <ele>848.1</ele>
        <time>2021-05-08T14:16:14Z</time>
      </trkpt>
      <trkpt lat="46.65259" lon="5.91714">
        <ele>847.5</ele>
        <time>2021-05-08T14:16:18Z</time>
      </trkpt>
      <trkpt lat="46.65263" lon="5.91712">
        <ele>847.1</ele>
        <time>2021-05-08T14:16:29Z</time>
      </trkpt>
      <trkpt lat="46.65261" lon="5.9172">
        <ele>846.5</ele>
        <time>2021-05-08T14:16:48Z</time>
      </trkpt>
      <trkpt lat="46.65257" lon="5.91724">
        <ele>846.2</ele>
        <time>2021-05-08T14:16:52Z</time>
      </trkpt>
      <trkpt lat="46.65252" lon="5.91726">
        <ele>846.1</ele>
        <time>2021-05-08T14:16:58Z</time>
      </trkpt>
      <trkpt lat="46.65248" lon="5.9173">
        <ele>846.1</ele>
        <time>2021-05-08T14:17:04Z</time>
      </trkpt>
      <trkpt lat="46.65251" lon="5.91726">
        <ele>845.4</ele>
        <time>2021-05-08T14:17:27Z</time>
      </trkpt>
      <trkpt lat="46.65257" lon="5.91725">
        <ele>843.8</ele>
        <time>2021-05-08T14:17:48Z</time>
      </trkpt>
      <trkpt lat="46.65261" lon="5.91728">
        <ele>842.8</ele>
        <time>2021-05-08T14:17:53Z</time>
      </trkpt>
      <trkpt lat="46.65266" lon="5.9173">
        <ele>840.2</ele>
        <time>2021-05-08T14:18:19Z</time>
      </trkpt>
      <trkpt lat="46.65269" lon="5.91724">
        <ele>838.7</ele>
        <time>2021-05-08T14:19:16Z</time>
      </trkpt>
      <trkpt lat="46.65271" lon="5.91718">
        <ele>839.2</ele>
        <time>2021-05-08T14:19:23Z</time>
      </trkpt>
      <trkpt lat="46.65275" lon="5.91715">
        <ele>839.3</ele>
        <time>2021-05-08T14:19:29Z</time>
      </trkpt>
      <trkpt lat="46.65279" lon="5.91709">
        <ele>839</ele>
        <time>2021-05-08T14:19:35Z</time>
      </trkpt>
      <trkpt lat="46.65283" lon="5.91705">
        <ele>838.5</ele>
        <time>2021-05-08T14:19:41Z</time>
      </trkpt>
      <trkpt lat="46.6528" lon="5.91694">
        <ele>843.2</ele>
        <time>2021-05-08T14:19:46Z</time>
      </trkpt>
      <trkpt lat="46.65277" lon="5.91684">
        <ele>848.5</ele>
        <time>2021-05-08T14:19:50Z</time>
      </trkpt>
      <trkpt lat="46.65276" lon="5.91678">
        <ele>854.3</ele>
        <time>2021-05-08T14:19:58Z</time>
      </trkpt>
      <trkpt lat="46.65275" lon="5.9167">
        <ele>855.2</ele>
        <time>2021-05-08T14:20:10Z</time>
      </trkpt>
      <trkpt lat="46.65274" lon="5.91664">
        <ele>854.2</ele>
        <time>2021-05-08T14:20:16Z</time>
      </trkpt>
      <trkpt lat="46.65276" lon="5.91657">
        <ele>852.7</ele>
        <time>2021-05-08T14:20:23Z</time>
      </trkpt>
      <trkpt lat="46.65278" lon="5.9165">
        <ele>851.3</ele>
        <time>2021-05-08T14:20:30Z</time>
      </trkpt>
      <trkpt lat="46.65281" lon="5.91639">
        <ele>851.6</ele>
        <time>2021-05-08T14:20:34Z</time>
      </trkpt>
      <trkpt lat="46.65284" lon="5.91631">
        <ele>852.2</ele>
        <time>2021-05-08T14:20:38Z</time>
      </trkpt>
      <trkpt lat="46.65288" lon="5.91626">
        <ele>849.4</ele>
        <time>2021-05-08T14:21:04Z</time>
      </trkpt>
      <trkpt lat="46.65292" lon="5.91623">
        <ele>848.2</ele>
        <time>2021-05-08T14:21:10Z</time>
      </trkpt>
      <trkpt lat="46.65297" lon="5.91619">
        <ele>846.9</ele>
        <time>2021-05-08T14:21:15Z</time>
      </trkpt>
      <trkpt lat="46.653" lon="5.91615">
        <ele>845.6</ele>
        <time>2021-05-08T14:21:20Z</time>
      </trkpt>
      <trkpt lat="46.65305" lon="5.9161">
        <ele>845</ele>
        <time>2021-05-08T14:21:25Z</time>
      </trkpt>
      <trkpt lat="46.65309" lon="5.91606">
        <ele>845.1</ele>
        <time>2021-05-08T14:21:30Z</time>
      </trkpt>
      <trkpt lat="46.65313" lon="5.91605">
        <ele>845.4</ele>
        <time>2021-05-08T14:21:35Z</time>
      </trkpt>
      <trkpt lat="46.65317" lon="5.916">
        <ele>845.8</ele>
        <time>2021-05-08T14:21:39Z</time>
      </trkpt>
      <trkpt lat="46.65321" lon="5.91596">
        <ele>846.2</ele>
        <time>2021-05-08T14:21:44Z</time>
      </trkpt>
      <trkpt lat="46.65324" lon="5.9159">
        <ele>846.8</ele>
        <time>2021-05-08T14:21:50Z</time>
      </trkpt>
      <trkpt lat="46.65328" lon="5.91586">
        <ele>847.4</ele>
        <time>2021-05-08T14:21:55Z</time>
      </trkpt>
      <trkpt lat="46.65333" lon="5.91584">
        <ele>848.6</ele>
        <time>2021-05-08T14:22:02Z</time>
      </trkpt>
      <trkpt lat="46.65338" lon="5.91582">
        <ele>849.6</ele>
        <time>2021-05-08T14:22:08Z</time>
      </trkpt>
      <trkpt lat="46.65342" lon="5.91579">
        <ele>850.8</ele>
        <time>2021-05-08T14:22:15Z</time>
      </trkpt>
      <trkpt lat="46.65346" lon="5.91574">
        <ele>851.4</ele>
        <time>2021-05-08T14:22:22Z</time>
      </trkpt>
      <trkpt lat="46.6535" lon="5.91572">
        <ele>851.9</ele>
        <time>2021-05-08T14:22:28Z</time>
      </trkpt>
      <trkpt lat="46.65354" lon="5.91567">
        <ele>853.5</ele>
        <time>2021-05-08T14:22:37Z</time>
      </trkpt>
      <trkpt lat="46.65359" lon="5.91563">
        <ele>854.6</ele>
        <time>2021-05-08T14:22:45Z</time>
      </trkpt>
      <trkpt lat="46.65364" lon="5.9156">
        <ele>854.7</ele>
        <time>2021-05-08T14:22:53Z</time>
      </trkpt>
      <trkpt lat="46.65369" lon="5.91558">
        <ele>854</ele>
        <time>2021-05-08T14:22:59Z</time>
      </trkpt>
      <trkpt lat="46.65372" lon="5.91552">
        <ele>853</ele>
        <time>2021-05-08T14:23:04Z</time>
      </trkpt>
      <trkpt lat="46.65372" lon="5.91529">
        <ele>850.6</ele>
        <time>2021-05-08T14:23:08Z</time>
      </trkpt>
      <trkpt lat="46.65373" lon="5.91521">
        <ele>848.9</ele>
        <time>2021-05-08T14:23:12Z</time>
      </trkpt>
      <trkpt lat="46.65374" lon="5.91515">
        <ele>847.5</ele>
        <time>2021-05-08T14:23:21Z</time>
      </trkpt>
      <trkpt lat="46.65375" lon="5.91509">
        <ele>847.4</ele>
        <time>2021-05-08T14:23:28Z</time>
      </trkpt>
      <trkpt lat="46.6538" lon="5.91507">
        <ele>846.7</ele>
        <time>2021-05-08T14:23:35Z</time>
      </trkpt>
      <trkpt lat="46.65382" lon="5.91499">
        <ele>846.9</ele>
        <time>2021-05-08T14:23:58Z</time>
      </trkpt>
      <trkpt lat="46.65386" lon="5.91493">
        <ele>846.6</ele>
        <time>2021-05-08T14:24:03Z</time>
      </trkpt>
      <trkpt lat="46.65389" lon="5.91488">
        <ele>846.3</ele>
        <time>2021-05-08T14:24:07Z</time>
      </trkpt>
      <trkpt lat="46.65393" lon="5.91484">
        <ele>846</ele>
        <time>2021-05-08T14:24:11Z</time>
      </trkpt>
      <trkpt lat="46.65396" lon="5.91478">
        <ele>845.7</ele>
        <time>2021-05-08T14:24:15Z</time>
      </trkpt>
      <trkpt lat="46.65399" lon="5.91472">
        <ele>845.4</ele>
        <time>2021-05-08T14:24:20Z</time>
      </trkpt>
      <trkpt lat="46.654" lon="5.91464">
        <ele>845.2</ele>
        <time>2021-05-08T14:24:24Z</time>
      </trkpt>
      <trkpt lat="46.654" lon="5.91458">
        <ele>844.7</ele>
        <time>2021-05-08T14:24:30Z</time>
      </trkpt>
      <trkpt lat="46.65403" lon="5.91451">
        <ele>844.4</ele>
        <time>2021-05-08T14:24:36Z</time>
      </trkpt>
      <trkpt lat="46.65406" lon="5.91442">
        <ele>844.5</ele>
        <time>2021-05-08T14:24:40Z</time>
      </trkpt>
      <trkpt lat="46.65407" lon="5.91435">
        <ele>844.6</ele>
        <time>2021-05-08T14:24:45Z</time>
      </trkpt>
      <trkpt lat="46.6541" lon="5.91429">
        <ele>844.4</ele>
        <time>2021-05-08T14:24:56Z</time>
      </trkpt>
      <trkpt lat="46.65412" lon="5.91417">
        <ele>844.9</ele>
        <time>2021-05-08T14:25:01Z</time>
      </trkpt>
      <trkpt lat="46.65415" lon="5.91401">
        <ele>845.7</ele>
        <time>2021-05-08T14:25:05Z</time>
      </trkpt>
      <trkpt lat="46.65418" lon="5.91393">
        <ele>846.4</ele>
        <time>2021-05-08T14:25:09Z</time>
      </trkpt>
      <trkpt lat="46.65417" lon="5.914">
        <ele>848</ele>
        <time>2021-05-08T14:26:17Z</time>
      </trkpt>
      <trkpt lat="46.65422" lon="5.91403">
        <ele>848.4</ele>
        <time>2021-05-08T14:26:24Z</time>
      </trkpt>
      <trkpt lat="46.65426" lon="5.91405">
        <ele>848.3</ele>
        <time>2021-05-08T14:26:29Z</time>
      </trkpt>
      <trkpt lat="46.65431" lon="5.91408">
        <ele>848.1</ele>
        <time>2021-05-08T14:26:35Z</time>
      </trkpt>
      <trkpt lat="46.65436" lon="5.91409">
        <ele>847.8</ele>
        <time>2021-05-08T14:26:42Z</time>
      </trkpt>
      <trkpt lat="46.6544" lon="5.91409">
        <ele>847.6</ele>
        <time>2021-05-08T14:26:47Z</time>
      </trkpt>
      <trkpt lat="46.65445" lon="5.91411">
        <ele>847.4</ele>
        <time>2021-05-08T14:26:52Z</time>
      </trkpt>
      <trkpt lat="46.6545" lon="5.91414">
        <ele>847</ele>
        <time>2021-05-08T14:26:56Z</time>
      </trkpt>
      <trkpt lat="46.65454" lon="5.91418">
        <ele>846.8</ele>
        <time>2021-05-08T14:27:00Z</time>
      </trkpt>
      <trkpt lat="46.65458" lon="5.91423">
        <ele>846.8</ele>
        <time>2021-05-08T14:27:04Z</time>
      </trkpt>
      <trkpt lat="46.65462" lon="5.91427">
        <ele>846.8</ele>
        <time>2021-05-08T14:27:08Z</time>
      </trkpt>
      <trkpt lat="46.65467" lon="5.9143">
        <ele>847.1</ele>
        <time>2021-05-08T14:27:12Z</time>
      </trkpt>
      <trkpt lat="46.65471" lon="5.91434">
        <ele>847</ele>
        <time>2021-05-08T14:27:16Z</time>
      </trkpt>
      <trkpt lat="46.65476" lon="5.91439">
        <ele>847</ele>
        <time>2021-05-08T14:27:22Z</time>
      </trkpt>
      <trkpt lat="46.65481" lon="5.91441">
        <ele>846.9</ele>
        <time>2021-05-08T14:27:26Z</time>
      </trkpt>
      <trkpt lat="46.65486" lon="5.91443">
        <ele>846.9</ele>
        <time>2021-05-08T14:27:30Z</time>
      </trkpt>
      <trkpt lat="46.65491" lon="5.91444">
        <ele>846.7</ele>
        <time>2021-05-08T14:27:35Z</time>
      </trkpt>
      <trkpt lat="46.65496" lon="5.91447">
        <ele>846.3</ele>
        <time>2021-05-08T14:27:40Z</time>
      </trkpt>
      <trkpt lat="46.65501" lon="5.91448">
        <ele>846.1</ele>
        <time>2021-05-08T14:27:47Z</time>
      </trkpt>
      <trkpt lat="46.65506" lon="5.91449">
        <ele>846</ele>
        <time>2021-05-08T14:27:53Z</time>
      </trkpt>
      <trkpt lat="46.65511" lon="5.9145">
        <ele>845.9</ele>
        <time>2021-05-08T14:27:58Z</time>
      </trkpt>
      <trkpt lat="46.65515" lon="5.9145">
        <ele>845.9</ele>
        <time>2021-05-08T14:28:02Z</time>
      </trkpt>
      <trkpt lat="46.6552" lon="5.91448">
        <ele>845.8</ele>
        <time>2021-05-08T14:28:07Z</time>
      </trkpt>
      <trkpt lat="46.65525" lon="5.91449">
        <ele>845.7</ele>
        <time>2021-05-08T14:28:12Z</time>
      </trkpt>
      <trkpt lat="46.6553" lon="5.91449">
        <ele>845.4</ele>
        <time>2021-05-08T14:28:18Z</time>
      </trkpt>
      <trkpt lat="46.65535" lon="5.91449">
        <ele>845.2</ele>
        <time>2021-05-08T14:28:23Z</time>
      </trkpt>
      <trkpt lat="46.6554" lon="5.9145">
        <ele>844.8</ele>
        <time>2021-05-08T14:28:28Z</time>
      </trkpt>
      <trkpt lat="46.65544" lon="5.91455">
        <ele>844.4</ele>
        <time>2021-05-08T14:28:33Z</time>
      </trkpt>
      <trkpt lat="46.65552" lon="5.91464">
        <ele>844.2</ele>
        <time>2021-05-08T14:28:37Z</time>
      </trkpt>
      <trkpt lat="46.65559" lon="5.91472">
        <ele>843.8</ele>
        <time>2021-05-08T14:28:41Z</time>
      </trkpt>
      <trkpt lat="46.65562" lon="5.91477">
        <ele>843.3</ele>
        <time>2021-05-08T14:28:47Z</time>
      </trkpt>
      <trkpt lat="46.65564" lon="5.91483">
        <ele>842.8</ele>
        <time>2021-05-08T14:28:54Z</time>
      </trkpt>
      <trkpt lat="46.65569" lon="5.91489">
        <ele>843.3</ele>
        <time>2021-05-08T14:28:58Z</time>
      </trkpt>
      <trkpt lat="46.65574" lon="5.91494">
        <ele>843.8</ele>
        <time>2021-05-08T14:29:02Z</time>
      </trkpt>
      <trkpt lat="46.65578" lon="5.91497">
        <ele>844.7</ele>
        <time>2021-05-08T14:29:07Z</time>
      </trkpt>
      <trkpt lat="46.65582" lon="5.915">
        <ele>846.5</ele>
        <time>2021-05-08T14:29:15Z</time>
      </trkpt>
      <trkpt lat="46.65587" lon="5.91504">
        <ele>847.4</ele>
        <time>2021-05-08T14:29:20Z</time>
      </trkpt>
      <trkpt lat="46.6559" lon="5.91508">
        <ele>847.9</ele>
        <time>2021-05-08T14:29:29Z</time>
      </trkpt>
      <trkpt lat="46.65595" lon="5.91512">
        <ele>847.2</ele>
        <time>2021-05-08T14:29:39Z</time>
      </trkpt>
      <trkpt lat="46.656" lon="5.91513">
        <ele>847</ele>
        <time>2021-05-08T14:29:44Z</time>
      </trkpt>
      <trkpt lat="46.65604" lon="5.91515">
        <ele>847.4</ele>
        <time>2021-05-08T14:29:49Z</time>
      </trkpt>
      <trkpt lat="46.65608" lon="5.91519">
        <ele>848.3</ele>
        <time>2021-05-08T14:29:55Z</time>
      </trkpt>
      <trkpt lat="46.65613" lon="5.91522">
        <ele>849</ele>
        <time>2021-05-08T14:30:01Z</time>
      </trkpt>
      <trkpt lat="46.65619" lon="5.91526">
        <ele>849.1</ele>
        <time>2021-05-08T14:30:05Z</time>
      </trkpt>
      <trkpt lat="46.65624" lon="5.9153">
        <ele>848.7</ele>
        <time>2021-05-08T14:30:09Z</time>
      </trkpt>
      <trkpt lat="46.65626" lon="5.91536">
        <ele>847.2</ele>
        <time>2021-05-08T14:30:16Z</time>
      </trkpt>
      <trkpt lat="46.65628" lon="5.91543">
        <ele>845.9</ele>
        <time>2021-05-08T14:30:23Z</time>
      </trkpt>
      <trkpt lat="46.6563" lon="5.91549">
        <ele>845.2</ele>
        <time>2021-05-08T14:30:27Z</time>
      </trkpt>
      <trkpt lat="46.65637" lon="5.91554">
        <ele>844.8</ele>
        <time>2021-05-08T14:30:31Z</time>
      </trkpt>
      <trkpt lat="46.65641" lon="5.91559">
        <ele>844.7</ele>
        <time>2021-05-08T14:30:35Z</time>
      </trkpt>
      <trkpt lat="46.65648" lon="5.91564">
        <ele>844.8</ele>
        <time>2021-05-08T14:30:39Z</time>
      </trkpt>
      <trkpt lat="46.65653" lon="5.91567">
        <ele>845.3</ele>
        <time>2021-05-08T14:30:43Z</time>
      </trkpt>
      <trkpt lat="46.65657" lon="5.91572">
        <ele>846.4</ele>
        <time>2021-05-08T14:30:49Z</time>
      </trkpt>
      <trkpt lat="46.6566" lon="5.91576">
        <ele>847.5</ele>
        <time>2021-05-08T14:30:54Z</time>
      </trkpt>
      <trkpt lat="46.65664" lon="5.91581">
        <ele>848.1</ele>
        <time>2021-05-08T14:30:58Z</time>
      </trkpt>
      <trkpt lat="46.65669" lon="5.91586">
        <ele>848.2</ele>
        <time>2021-05-08T14:31:02Z</time>
      </trkpt>
      <trkpt lat="46.65673" lon="5.91594">
        <ele>848.4</ele>
        <time>2021-05-08T14:31:06Z</time>
      </trkpt>
      <trkpt lat="46.65676" lon="5.91602">
        <ele>848.9</ele>
        <time>2021-05-08T14:31:10Z</time>
      </trkpt>
      <trkpt lat="46.65681" lon="5.91602">
        <ele>847.6</ele>
        <time>2021-05-08T14:31:20Z</time>
      </trkpt>
      <trkpt lat="46.65683" lon="5.91607">
        <ele>844</ele>
        <time>2021-05-08T14:31:26Z</time>
      </trkpt>
      <trkpt lat="46.65683" lon="5.91615">
        <ele>839.7</ele>
        <time>2021-05-08T14:31:32Z</time>
      </trkpt>
      <trkpt lat="46.65682" lon="5.91621">
        <ele>837</ele>
        <time>2021-05-08T14:31:36Z</time>
      </trkpt>
      <trkpt lat="46.65683" lon="5.91628">
        <ele>834.9</ele>
        <time>2021-05-08T14:31:41Z</time>
      </trkpt>
      <trkpt lat="46.65685" lon="5.91635">
        <ele>833.7</ele>
        <time>2021-05-08T14:31:45Z</time>
      </trkpt>
      <trkpt lat="46.65685" lon="5.91642">
        <ele>832.7</ele>
        <time>2021-05-08T14:31:51Z</time>
      </trkpt>
      <trkpt lat="46.65684" lon="5.91649">
        <ele>831.6</ele>
        <time>2021-05-08T14:31:56Z</time>
      </trkpt>
      <trkpt lat="46.65696" lon="5.91659">
        <ele>834.5</ele>
        <time>2021-05-08T14:32:00Z</time>
      </trkpt>
      <trkpt lat="46.65703" lon="5.91666">
        <ele>836.4</ele>
        <time>2021-05-08T14:32:04Z</time>
      </trkpt>
      <trkpt lat="46.65707" lon="5.9167">
        <ele>837.6</ele>
        <time>2021-05-08T14:32:08Z</time>
      </trkpt>
      <trkpt lat="46.65711" lon="5.91673">
        <ele>838.5</ele>
        <time>2021-05-08T14:32:12Z</time>
      </trkpt>
      <trkpt lat="46.65715" lon="5.91678">
        <ele>839.5</ele>
        <time>2021-05-08T14:32:17Z</time>
      </trkpt>
      <trkpt lat="46.65719" lon="5.91682">
        <ele>840.1</ele>
        <time>2021-05-08T14:32:21Z</time>
      </trkpt>
      <trkpt lat="46.65723" lon="5.91686">
        <ele>839.9</ele>
        <time>2021-05-08T14:32:26Z</time>
      </trkpt>
      <trkpt lat="46.65727" lon="5.91691">
        <ele>839.1</ele>
        <time>2021-05-08T14:32:31Z</time>
      </trkpt>
      <trkpt lat="46.65729" lon="5.91697">
        <ele>838.6</ele>
        <time>2021-05-08T14:32:36Z</time>
      </trkpt>
      <trkpt lat="46.65734" lon="5.91701">
        <ele>838.4</ele>
        <time>2021-05-08T14:32:40Z</time>
      </trkpt>
      <trkpt lat="46.65739" lon="5.91704">
        <ele>838.2</ele>
        <time>2021-05-08T14:32:45Z</time>
      </trkpt>
      <trkpt lat="46.65743" lon="5.9171">
        <ele>838.4</ele>
        <time>2021-05-08T14:32:50Z</time>
      </trkpt>
      <trkpt lat="46.65747" lon="5.91715">
        <ele>839</ele>
        <time>2021-05-08T14:32:54Z</time>
      </trkpt>
      <trkpt lat="46.65752" lon="5.91719">
        <ele>839.6</ele>
        <time>2021-05-08T14:32:59Z</time>
      </trkpt>
      <trkpt lat="46.65755" lon="5.91724">
        <ele>839.9</ele>
        <time>2021-05-08T14:33:03Z</time>
      </trkpt>
      <trkpt lat="46.65758" lon="5.9173">
        <ele>840.4</ele>
        <time>2021-05-08T14:33:08Z</time>
      </trkpt>
      <trkpt lat="46.6576" lon="5.91736">
        <ele>840.5</ele>
        <time>2021-05-08T14:33:13Z</time>
      </trkpt>
      <trkpt lat="46.65762" lon="5.91743">
        <ele>840.4</ele>
        <time>2021-05-08T14:33:17Z</time>
      </trkpt>
      <trkpt lat="46.65763" lon="5.91749">
        <ele>840.2</ele>
        <time>2021-05-08T14:33:21Z</time>
      </trkpt>
      <trkpt lat="46.65766" lon="5.91756">
        <ele>839.7</ele>
        <time>2021-05-08T14:33:26Z</time>
      </trkpt>
      <trkpt lat="46.6577" lon="5.91759">
        <ele>839.2</ele>
        <time>2021-05-08T14:33:31Z</time>
      </trkpt>
      <trkpt lat="46.65774" lon="5.91762">
        <ele>839</ele>
        <time>2021-05-08T14:33:36Z</time>
      </trkpt>
      <trkpt lat="46.65777" lon="5.91766">
        <ele>838.7</ele>
        <time>2021-05-08T14:33:41Z</time>
      </trkpt>
      <trkpt lat="46.6578" lon="5.91773">
        <ele>838.5</ele>
        <time>2021-05-08T14:33:46Z</time>
      </trkpt>
      <trkpt lat="46.65782" lon="5.9178">
        <ele>838.9</ele>
        <time>2021-05-08T14:33:50Z</time>
      </trkpt>
      <trkpt lat="46.65784" lon="5.91787">
        <ele>839.3</ele>
        <time>2021-05-08T14:33:55Z</time>
      </trkpt>
      <trkpt lat="46.65784" lon="5.91794">
        <ele>839.4</ele>
        <time>2021-05-08T14:33:59Z</time>
      </trkpt>
      <trkpt lat="46.65783" lon="5.91803">
        <ele>839.6</ele>
        <time>2021-05-08T14:34:03Z</time>
      </trkpt>
      <trkpt lat="46.65785" lon="5.91811">
        <ele>839.1</ele>
        <time>2021-05-08T14:34:09Z</time>
      </trkpt>
      <trkpt lat="46.65786" lon="5.91818">
        <ele>837.9</ele>
        <time>2021-05-08T14:34:14Z</time>
      </trkpt>
      <trkpt lat="46.65787" lon="5.91825">
        <ele>837.4</ele>
        <time>2021-05-08T14:34:18Z</time>
      </trkpt>
      <trkpt lat="46.65789" lon="5.91831">
        <ele>837.1</ele>
        <time>2021-05-08T14:34:23Z</time>
      </trkpt>
      <trkpt lat="46.65793" lon="5.91835">
        <ele>836.9</ele>
        <time>2021-05-08T14:34:30Z</time>
      </trkpt>
      <trkpt lat="46.65798" lon="5.9184">
        <ele>836.3</ele>
        <time>2021-05-08T14:34:35Z</time>
      </trkpt>
      <trkpt lat="46.65803" lon="5.91843">
        <ele>835</ele>
        <time>2021-05-08T14:34:40Z</time>
      </trkpt>
      <trkpt lat="46.65808" lon="5.91845">
        <ele>834.2</ele>
        <time>2021-05-08T14:34:44Z</time>
      </trkpt>
      <trkpt lat="46.65812" lon="5.91846">
        <ele>833.5</ele>
        <time>2021-05-08T14:34:48Z</time>
      </trkpt>
      <trkpt lat="46.65816" lon="5.9185">
        <ele>833.5</ele>
        <time>2021-05-08T14:34:54Z</time>
      </trkpt>
      <trkpt lat="46.6582" lon="5.91845">
        <ele>835.2</ele>
        <time>2021-05-08T14:35:02Z</time>
      </trkpt>
      <trkpt lat="46.65825" lon="5.91845">
        <ele>837.6</ele>
        <time>2021-05-08T14:35:09Z</time>
      </trkpt>
      <trkpt lat="46.6583" lon="5.91847">
        <ele>839.3</ele>
        <time>2021-05-08T14:35:15Z</time>
      </trkpt>
      <trkpt lat="46.65829" lon="5.91853">
        <ele>841.5</ele>
        <time>2021-05-08T14:35:25Z</time>
      </trkpt>
      <trkpt lat="46.65831" lon="5.91859">
        <ele>843.6</ele>
        <time>2021-05-08T14:35:33Z</time>
      </trkpt>
      <trkpt lat="46.65835" lon="5.91864">
        <ele>844.5</ele>
        <time>2021-05-08T14:35:38Z</time>
      </trkpt>
      <trkpt lat="46.65839" lon="5.91868">
        <ele>845.4</ele>
        <time>2021-05-08T14:35:44Z</time>
      </trkpt>
      <trkpt lat="46.65842" lon="5.91874">
        <ele>846.2</ele>
        <time>2021-05-08T14:35:49Z</time>
      </trkpt>
      <trkpt lat="46.65844" lon="5.91879">
        <ele>847.1</ele>
        <time>2021-05-08T14:35:54Z</time>
      </trkpt>
      <trkpt lat="46.65847" lon="5.91885">
        <ele>847.2</ele>
        <time>2021-05-08T14:36:00Z</time>
      </trkpt>
      <trkpt lat="46.65851" lon="5.9189">
        <ele>846.5</ele>
        <time>2021-05-08T14:36:06Z</time>
      </trkpt>
      <trkpt lat="46.65856" lon="5.91892">
        <ele>845.9</ele>
        <time>2021-05-08T14:36:10Z</time>
      </trkpt>
      <trkpt lat="46.65861" lon="5.91896">
        <ele>845.5</ele>
        <time>2021-05-08T14:36:14Z</time>
      </trkpt>
      <trkpt lat="46.65864" lon="5.919">
        <ele>845.5</ele>
        <time>2021-05-08T14:36:18Z</time>
      </trkpt>
      <trkpt lat="46.65867" lon="5.91905">
        <ele>845.8</ele>
        <time>2021-05-08T14:36:25Z</time>
      </trkpt>
      <trkpt lat="46.65871" lon="5.91912">
        <ele>845.8</ele>
        <time>2021-05-08T14:36:30Z</time>
      </trkpt>
      <trkpt lat="46.65876" lon="5.91917">
        <ele>846</ele>
        <time>2021-05-08T14:36:34Z</time>
      </trkpt>
      <trkpt lat="46.6588" lon="5.91921">
        <ele>845.9</ele>
        <time>2021-05-08T14:36:38Z</time>
      </trkpt>
      <trkpt lat="46.65883" lon="5.91926">
        <ele>845.5</ele>
        <time>2021-05-08T14:36:44Z</time>
      </trkpt>
      <trkpt lat="46.65887" lon="5.91931">
        <ele>844.6</ele>
        <time>2021-05-08T14:36:50Z</time>
      </trkpt>
      <trkpt lat="46.65891" lon="5.91935">
        <ele>844.1</ele>
        <time>2021-05-08T14:36:55Z</time>
      </trkpt>
      <trkpt lat="46.65894" lon="5.91939">
        <ele>844</ele>
        <time>2021-05-08T14:37:00Z</time>
      </trkpt>
      <trkpt lat="46.65897" lon="5.91947">
        <ele>844.2</ele>
        <time>2021-05-08T14:37:05Z</time>
      </trkpt>
      <trkpt lat="46.65899" lon="5.91953">
        <ele>844.4</ele>
        <time>2021-05-08T14:37:10Z</time>
      </trkpt>
      <trkpt lat="46.65902" lon="5.91958">
        <ele>844.7</ele>
        <time>2021-05-08T14:37:17Z</time>
      </trkpt>
      <trkpt lat="46.65903" lon="5.91966">
        <ele>844.8</ele>
        <time>2021-05-08T14:37:26Z</time>
      </trkpt>
      <trkpt lat="46.65903" lon="5.91973">
        <ele>844.8</ele>
        <time>2021-05-08T14:37:32Z</time>
      </trkpt>
      <trkpt lat="46.65902" lon="5.91981">
        <ele>844.7</ele>
        <time>2021-05-08T14:37:37Z</time>
      </trkpt>
      <trkpt lat="46.65898" lon="5.92002">
        <ele>842.7</ele>
        <time>2021-05-08T14:37:41Z</time>
      </trkpt>
      <trkpt lat="46.65897" lon="5.92011">
        <ele>841.4</ele>
        <time>2021-05-08T14:37:45Z</time>
      </trkpt>
      <trkpt lat="46.65898" lon="5.92019">
        <ele>840.5</ele>
        <time>2021-05-08T14:37:50Z</time>
      </trkpt>
      <trkpt lat="46.65898" lon="5.92027">
        <ele>839.8</ele>
        <time>2021-05-08T14:37:57Z</time>
      </trkpt>
      <trkpt lat="46.65899" lon="5.92035">
        <ele>839.4</ele>
        <time>2021-05-08T14:38:03Z</time>
      </trkpt>
      <trkpt lat="46.659" lon="5.92043">
        <ele>839.4</ele>
        <time>2021-05-08T14:38:07Z</time>
      </trkpt>
      <trkpt lat="46.65901" lon="5.9205">
        <ele>839.6</ele>
        <time>2021-05-08T14:38:12Z</time>
      </trkpt>
      <trkpt lat="46.65901" lon="5.92058">
        <ele>840.2</ele>
        <time>2021-05-08T14:38:18Z</time>
      </trkpt>
      <trkpt lat="46.65901" lon="5.92065">
        <ele>840.8</ele>
        <time>2021-05-08T14:38:23Z</time>
      </trkpt>
      <trkpt lat="46.65903" lon="5.92072">
        <ele>840.9</ele>
        <time>2021-05-08T14:38:27Z</time>
      </trkpt>
      <trkpt lat="46.65903" lon="5.92079">
        <ele>840.6</ele>
        <time>2021-05-08T14:38:33Z</time>
      </trkpt>
      <trkpt lat="46.65902" lon="5.92087">
        <ele>839.9</ele>
        <time>2021-05-08T14:38:38Z</time>
      </trkpt>
      <trkpt lat="46.65903" lon="5.92094">
        <ele>840.7</ele>
        <time>2021-05-08T14:38:42Z</time>
      </trkpt>
      <trkpt lat="46.65903" lon="5.92102">
        <ele>842.2</ele>
        <time>2021-05-08T14:38:47Z</time>
      </trkpt>
      <trkpt lat="46.65902" lon="5.92109">
        <ele>842.6</ele>
        <time>2021-05-08T14:38:51Z</time>
      </trkpt>
      <trkpt lat="46.65901" lon="5.92116">
        <ele>843</ele>
        <time>2021-05-08T14:38:56Z</time>
      </trkpt>
      <trkpt lat="46.659" lon="5.92123">
        <ele>843.5</ele>
        <time>2021-05-08T14:39:03Z</time>
      </trkpt>
      <trkpt lat="46.65898" lon="5.9213">
        <ele>843.6</ele>
        <time>2021-05-08T14:39:09Z</time>
      </trkpt>
      <trkpt lat="46.65896" lon="5.92137">
        <ele>843.7</ele>
        <time>2021-05-08T14:39:13Z</time>
      </trkpt>
      <trkpt lat="46.65895" lon="5.92143">
        <ele>843.7</ele>
        <time>2021-05-08T14:39:17Z</time>
      </trkpt>
      <trkpt lat="46.65894" lon="5.9215">
        <ele>843.6</ele>
        <time>2021-05-08T14:39:22Z</time>
      </trkpt>
      <trkpt lat="46.65894" lon="5.92157">
        <ele>843.7</ele>
        <time>2021-05-08T14:39:26Z</time>
      </trkpt>
      <trkpt lat="46.65893" lon="5.92165">
        <ele>843.2</ele>
        <time>2021-05-08T14:39:32Z</time>
      </trkpt>
      <trkpt lat="46.65891" lon="5.92172">
        <ele>842.6</ele>
        <time>2021-05-08T14:39:37Z</time>
      </trkpt>
      <trkpt lat="46.65889" lon="5.92179">
        <ele>842.2</ele>
        <time>2021-05-08T14:39:41Z</time>
      </trkpt>
      <trkpt lat="46.65888" lon="5.92186">
        <ele>841.7</ele>
        <time>2021-05-08T14:39:46Z</time>
      </trkpt>
      <trkpt lat="46.65888" lon="5.92193">
        <ele>840.7</ele>
        <time>2021-05-08T14:39:53Z</time>
      </trkpt>
      <trkpt lat="46.65887" lon="5.922">
        <ele>840.1</ele>
        <time>2021-05-08T14:39:59Z</time>
      </trkpt>
      <trkpt lat="46.65885" lon="5.92206">
        <ele>839.9</ele>
        <time>2021-05-08T14:40:04Z</time>
      </trkpt>
      <trkpt lat="46.65883" lon="5.92212">
        <ele>839.5</ele>
        <time>2021-05-08T14:40:08Z</time>
      </trkpt>
      <trkpt lat="46.65879" lon="5.92228">
        <ele>838</ele>
        <time>2021-05-08T14:40:12Z</time>
      </trkpt>
      <trkpt lat="46.65879" lon="5.92235">
        <ele>836.4</ele>
        <time>2021-05-08T14:40:18Z</time>
      </trkpt>
      <trkpt lat="46.65879" lon="5.92242">
        <ele>835.7</ele>
        <time>2021-05-08T14:40:24Z</time>
      </trkpt>
      <trkpt lat="46.65879" lon="5.92249">
        <ele>835.7</ele>
        <time>2021-05-08T14:40:32Z</time>
      </trkpt>
      <trkpt lat="46.65876" lon="5.92256">
        <ele>835.8</ele>
        <time>2021-05-08T14:40:38Z</time>
      </trkpt>
      <trkpt lat="46.65874" lon="5.92262">
        <ele>835.9</ele>
        <time>2021-05-08T14:40:42Z</time>
      </trkpt>
      <trkpt lat="46.65871" lon="5.92269">
        <ele>836</ele>
        <time>2021-05-08T14:40:47Z</time>
      </trkpt>
      <trkpt lat="46.65868" lon="5.92275">
        <ele>836.1</ele>
        <time>2021-05-08T14:40:52Z</time>
      </trkpt>
      <trkpt lat="46.65865" lon="5.9228">
        <ele>836.1</ele>
        <time>2021-05-08T14:40:56Z</time>
      </trkpt>
      <trkpt lat="46.65862" lon="5.92286">
        <ele>835.9</ele>
        <time>2021-05-08T14:41:02Z</time>
      </trkpt>
      <trkpt lat="46.65861" lon="5.92293">
        <ele>836</ele>
        <time>2021-05-08T14:41:06Z</time>
      </trkpt>
      <trkpt lat="46.65859" lon="5.923">
        <ele>836.4</ele>
        <time>2021-05-08T14:41:11Z</time>
      </trkpt>
      <trkpt lat="46.65856" lon="5.92306">
        <ele>836.7</ele>
        <time>2021-05-08T14:41:16Z</time>
      </trkpt>
      <trkpt lat="46.65851" lon="5.92318">
        <ele>836.3</ele>
        <time>2021-05-08T14:41:20Z</time>
      </trkpt>
      <trkpt lat="46.65848" lon="5.92327">
        <ele>835.5</ele>
        <time>2021-05-08T14:41:24Z</time>
      </trkpt>
      <trkpt lat="46.65846" lon="5.92333">
        <ele>834.1</ele>
        <time>2021-05-08T14:41:30Z</time>
      </trkpt>
      <trkpt lat="46.65842" lon="5.92338">
        <ele>833.2</ele>
        <time>2021-05-08T14:41:37Z</time>
      </trkpt>
      <trkpt lat="46.65838" lon="5.92341">
        <ele>833.1</ele>
        <time>2021-05-08T14:41:43Z</time>
      </trkpt>
      <trkpt lat="46.65832" lon="5.92343">
        <ele>832.4</ele>
        <time>2021-05-08T14:41:52Z</time>
      </trkpt>
      <trkpt lat="46.65829" lon="5.92347">
        <ele>831.8</ele>
        <time>2021-05-08T14:41:56Z</time>
      </trkpt>
      <trkpt lat="46.65824" lon="5.9235">
        <ele>831.5</ele>
        <time>2021-05-08T14:42:01Z</time>
      </trkpt>
      <trkpt lat="46.6582" lon="5.92352">
        <ele>831.4</ele>
        <time>2021-05-08T14:42:06Z</time>
      </trkpt>
      <trkpt lat="46.65815" lon="5.92355">
        <ele>830.9</ele>
        <time>2021-05-08T14:42:11Z</time>
      </trkpt>
      <trkpt lat="46.6581" lon="5.92354">
        <ele>829.6</ele>
        <time>2021-05-08T14:42:19Z</time>
      </trkpt>
      <trkpt lat="46.65806" lon="5.92358">
        <ele>829.3</ele>
        <time>2021-05-08T14:42:24Z</time>
      </trkpt>
      <trkpt lat="46.65802" lon="5.92362">
        <ele>828.9</ele>
        <time>2021-05-08T14:42:30Z</time>
      </trkpt>
      <trkpt lat="46.65797" lon="5.92363">
        <ele>828.7</ele>
        <time>2021-05-08T14:42:37Z</time>
      </trkpt>
      <trkpt lat="46.65792" lon="5.92365">
        <ele>828.6</ele>
        <time>2021-05-08T14:42:43Z</time>
      </trkpt>
      <trkpt lat="46.65789" lon="5.9237">
        <ele>828.6</ele>
        <time>2021-05-08T14:42:49Z</time>
      </trkpt>
      <trkpt lat="46.65785" lon="5.92376">
        <ele>828.4</ele>
        <time>2021-05-08T14:42:54Z</time>
      </trkpt>
      <trkpt lat="46.65781" lon="5.9238">
        <ele>828.4</ele>
        <time>2021-05-08T14:42:58Z</time>
      </trkpt>
      <trkpt lat="46.65778" lon="5.92385">
        <ele>828.5</ele>
        <time>2021-05-08T14:43:02Z</time>
      </trkpt>
      <trkpt lat="46.65774" lon="5.9239">
        <ele>828.7</ele>
        <time>2021-05-08T14:43:06Z</time>
      </trkpt>
      <trkpt lat="46.65769" lon="5.92393">
        <ele>828.7</ele>
        <time>2021-05-08T14:43:10Z</time>
      </trkpt>
      <trkpt lat="46.65765" lon="5.92397">
        <ele>828.8</ele>
        <time>2021-05-08T14:43:14Z</time>
      </trkpt>
      <trkpt lat="46.6576" lon="5.924">
        <ele>829</ele>
        <time>2021-05-08T14:43:18Z</time>
      </trkpt>
      <trkpt lat="46.65756" lon="5.92403">
        <ele>829.3</ele>
        <time>2021-05-08T14:43:23Z</time>
      </trkpt>
      <trkpt lat="46.65755" lon="5.9241">
        <ele>829.3</ele>
        <time>2021-05-08T14:43:30Z</time>
      </trkpt>
      <trkpt lat="46.65755" lon="5.92417">
        <ele>829.5</ele>
        <time>2021-05-08T14:43:34Z</time>
      </trkpt>
      <trkpt lat="46.65755" lon="5.92426">
        <ele>830.4</ele>
        <time>2021-05-08T14:43:38Z</time>
      </trkpt>
      <trkpt lat="46.65753" lon="5.92433">
        <ele>831.6</ele>
        <time>2021-05-08T14:43:44Z</time>
      </trkpt>
      <trkpt lat="46.65753" lon="5.92441">
        <ele>832.2</ele>
        <time>2021-05-08T14:43:51Z</time>
      </trkpt>
      <trkpt lat="46.65752" lon="5.92448">
        <ele>832.8</ele>
        <time>2021-05-08T14:43:56Z</time>
      </trkpt>
      <trkpt lat="46.6575" lon="5.92453">
        <ele>833</ele>
        <time>2021-05-08T14:44:00Z</time>
      </trkpt>
      <trkpt lat="46.65749" lon="5.92462">
        <ele>833.1</ele>
        <time>2021-05-08T14:44:04Z</time>
      </trkpt>
      <trkpt lat="46.65744" lon="5.92477">
        <ele>833.5</ele>
        <time>2021-05-08T14:44:08Z</time>
      </trkpt>
      <trkpt lat="46.65741" lon="5.92489">
        <ele>835</ele>
        <time>2021-05-08T14:44:12Z</time>
      </trkpt>
      <trkpt lat="46.65738" lon="5.92495">
        <ele>837.2</ele>
        <time>2021-05-08T14:44:18Z</time>
      </trkpt>
      <trkpt lat="46.65735" lon="5.925">
        <ele>839</ele>
        <time>2021-05-08T14:44:24Z</time>
      </trkpt>
      <trkpt lat="46.65731" lon="5.92504">
        <ele>839.9</ele>
        <time>2021-05-08T14:44:30Z</time>
      </trkpt>
      <trkpt lat="46.65726" lon="5.92505">
        <ele>840</ele>
        <time>2021-05-08T14:44:35Z</time>
      </trkpt>
      <trkpt lat="46.6572" lon="5.92506">
        <ele>839.3</ele>
        <time>2021-05-08T14:44:41Z</time>
      </trkpt>
      <trkpt lat="46.65715" lon="5.92508">
        <ele>838.1</ele>
        <time>2021-05-08T14:44:45Z</time>
      </trkpt>
      <trkpt lat="46.6571" lon="5.92508">
        <ele>837.5</ele>
        <time>2021-05-08T14:44:50Z</time>
      </trkpt>
      <trkpt lat="46.65705" lon="5.92508">
        <ele>838.7</ele>
        <time>2021-05-08T14:44:54Z</time>
      </trkpt>
      <trkpt lat="46.657" lon="5.92507">
        <ele>839.8</ele>
        <time>2021-05-08T14:44:58Z</time>
      </trkpt>
      <trkpt lat="46.65695" lon="5.92506">
        <ele>841.5</ele>
        <time>2021-05-08T14:45:03Z</time>
      </trkpt>
      <trkpt lat="46.65691" lon="5.92502">
        <ele>842.6</ele>
        <time>2021-05-08T14:45:08Z</time>
      </trkpt>
      <trkpt lat="46.65686" lon="5.92499">
        <ele>842.9</ele>
        <time>2021-05-08T14:45:13Z</time>
      </trkpt>
      <trkpt lat="46.65682" lon="5.92496">
        <ele>843.5</ele>
        <time>2021-05-08T14:45:17Z</time>
      </trkpt>
      <trkpt lat="46.65679" lon="5.92491">
        <ele>844.4</ele>
        <time>2021-05-08T14:45:22Z</time>
      </trkpt>
      <trkpt lat="46.65675" lon="5.92486">
        <ele>844.4</ele>
        <time>2021-05-08T14:45:27Z</time>
      </trkpt>
      <trkpt lat="46.65676" lon="5.92493">
        <ele>844.1</ele>
        <time>2021-05-08T14:46:17Z</time>
      </trkpt>
      <trkpt lat="46.65682" lon="5.92494">
        <ele>844.1</ele>
        <time>2021-05-08T14:46:22Z</time>
      </trkpt>
      <trkpt lat="46.65687" lon="5.92497">
        <ele>844.1</ele>
        <time>2021-05-08T14:46:26Z</time>
      </trkpt>
      <trkpt lat="46.65693" lon="5.925">
        <ele>843.2</ele>
        <time>2021-05-08T14:46:32Z</time>
      </trkpt>
      <trkpt lat="46.65697" lon="5.92503">
        <ele>842.7</ele>
        <time>2021-05-08T14:46:37Z</time>
      </trkpt>
      <trkpt lat="46.65701" lon="5.92507">
        <ele>842.2</ele>
        <time>2021-05-08T14:46:42Z</time>
      </trkpt>
      <trkpt lat="46.65706" lon="5.92511">
        <ele>841.8</ele>
        <time>2021-05-08T14:46:47Z</time>
      </trkpt>
      <trkpt lat="46.6571" lon="5.92513">
        <ele>841.5</ele>
        <time>2021-05-08T14:46:53Z</time>
      </trkpt>
      <trkpt lat="46.65715" lon="5.92512">
        <ele>841.5</ele>
        <time>2021-05-08T14:46:59Z</time>
      </trkpt>
      <trkpt lat="46.6572" lon="5.92511">
        <ele>841.7</ele>
        <time>2021-05-08T14:47:03Z</time>
      </trkpt>
      <trkpt lat="46.65725" lon="5.92508">
        <ele>841.7</ele>
        <time>2021-05-08T14:47:07Z</time>
      </trkpt>
      <trkpt lat="46.6573" lon="5.92504">
        <ele>841.7</ele>
        <time>2021-05-08T14:47:11Z</time>
      </trkpt>
      <trkpt lat="46.65735" lon="5.92499">
        <ele>841.7</ele>
        <time>2021-05-08T14:47:15Z</time>
      </trkpt>
      <trkpt lat="46.65737" lon="5.92493">
        <ele>840.8</ele>
        <time>2021-05-08T14:47:20Z</time>
      </trkpt>
      <trkpt lat="46.6574" lon="5.92498">
        <ele>839.5</ele>
        <time>2021-05-08T14:47:28Z</time>
      </trkpt>
      <trkpt lat="46.65739" lon="5.92506">
        <ele>840.6</ele>
        <time>2021-05-08T14:47:34Z</time>
      </trkpt>
      <trkpt lat="46.65736" lon="5.92511">
        <ele>841.8</ele>
        <time>2021-05-08T14:47:39Z</time>
      </trkpt>
      <trkpt lat="46.65733" lon="5.92516">
        <ele>843.6</ele>
        <time>2021-05-08T14:47:44Z</time>
      </trkpt>
      <trkpt lat="46.65729" lon="5.92522">
        <ele>845.2</ele>
        <time>2021-05-08T14:47:49Z</time>
      </trkpt>
      <trkpt lat="46.65726" lon="5.92528">
        <ele>846.3</ele>
        <time>2021-05-08T14:47:54Z</time>
      </trkpt>
      <trkpt lat="46.65725" lon="5.92535">
        <ele>847.1</ele>
        <time>2021-05-08T14:47:59Z</time>
      </trkpt>
      <trkpt lat="46.65725" lon="5.92542">
        <ele>847.7</ele>
        <time>2021-05-08T14:48:05Z</time>
      </trkpt>
      <trkpt lat="46.65725" lon="5.92549">
        <ele>847.6</ele>
        <time>2021-05-08T14:48:10Z</time>
      </trkpt>
      <trkpt lat="46.65723" lon="5.92555">
        <ele>845</ele>
        <time>2021-05-08T14:48:18Z</time>
      </trkpt>
      <trkpt lat="46.65721" lon="5.92563">
        <ele>843.2</ele>
        <time>2021-05-08T14:48:24Z</time>
      </trkpt>
      <trkpt lat="46.65722" lon="5.9257">
        <ele>841.4</ele>
        <time>2021-05-08T14:48:30Z</time>
      </trkpt>
      <trkpt lat="46.65722" lon="5.92577">
        <ele>839.4</ele>
        <time>2021-05-08T14:48:38Z</time>
      </trkpt>
      <trkpt lat="46.6572" lon="5.92583">
        <ele>838.5</ele>
        <time>2021-05-08T14:48:44Z</time>
      </trkpt>
      <trkpt lat="46.65717" lon="5.92589">
        <ele>837.8</ele>
        <time>2021-05-08T14:48:48Z</time>
      </trkpt>
      <trkpt lat="46.65714" lon="5.92594">
        <ele>836.9</ele>
        <time>2021-05-08T14:48:52Z</time>
      </trkpt>
      <trkpt lat="46.65711" lon="5.92601">
        <ele>836</ele>
        <time>2021-05-08T14:48:57Z</time>
      </trkpt>
      <trkpt lat="46.65709" lon="5.92607">
        <ele>835.1</ele>
        <time>2021-05-08T14:49:02Z</time>
      </trkpt>
      <trkpt lat="46.65705" lon="5.92611">
        <ele>834</ele>
        <time>2021-05-08T14:49:06Z</time>
      </trkpt>
      <trkpt lat="46.657" lon="5.92614">
        <ele>830.9</ele>
        <time>2021-05-08T14:49:19Z</time>
      </trkpt>
      <trkpt lat="46.65691" lon="5.92624">
        <ele>837.1</ele>
        <time>2021-05-08T14:49:24Z</time>
      </trkpt>
      <trkpt lat="46.65685" lon="5.9263">
        <ele>843.7</ele>
        <time>2021-05-08T14:49:28Z</time>
      </trkpt>
      <trkpt lat="46.65679" lon="5.92632">
        <ele>849.6</ele>
        <time>2021-05-08T14:49:35Z</time>
      </trkpt>
      <trkpt lat="46.65674" lon="5.92637">
        <ele>851.3</ele>
        <time>2021-05-08T14:49:39Z</time>
      </trkpt>
      <trkpt lat="46.6567" lon="5.92641">
        <ele>852.6</ele>
        <time>2021-05-08T14:49:43Z</time>
      </trkpt>
      <trkpt lat="46.65666" lon="5.92641">
        <ele>854.1</ele>
        <time>2021-05-08T14:49:51Z</time>
      </trkpt>
      <trkpt lat="46.65661" lon="5.92645">
        <ele>855.6</ele>
        <time>2021-05-08T14:49:59Z</time>
      </trkpt>
      <trkpt lat="46.65658" lon="5.9265">
        <ele>856</ele>
        <time>2021-05-08T14:50:03Z</time>
      </trkpt>
      <trkpt lat="46.65653" lon="5.92654">
        <ele>856.4</ele>
        <time>2021-05-08T14:50:10Z</time>
      </trkpt>
      <trkpt lat="46.65648" lon="5.92655">
        <ele>857.3</ele>
        <time>2021-05-08T14:50:21Z</time>
      </trkpt>
      <trkpt lat="46.65643" lon="5.92657">
        <ele>857.3</ele>
        <time>2021-05-08T14:50:26Z</time>
      </trkpt>
      <trkpt lat="46.65634" lon="5.92661">
        <ele>853.6</ele>
        <time>2021-05-08T14:50:32Z</time>
      </trkpt>
      <trkpt lat="46.65626" lon="5.92666">
        <ele>849.4</ele>
        <time>2021-05-08T14:50:36Z</time>
      </trkpt>
      <trkpt lat="46.65622" lon="5.92669">
        <ele>845.3</ele>
        <time>2021-05-08T14:50:42Z</time>
      </trkpt>
      <trkpt lat="46.65619" lon="5.92674">
        <ele>842.9</ele>
        <time>2021-05-08T14:50:51Z</time>
      </trkpt>
      <trkpt lat="46.65618" lon="5.92681">
        <ele>841.8</ele>
        <time>2021-05-08T14:50:57Z</time>
      </trkpt>
      <trkpt lat="46.65617" lon="5.92687">
        <ele>840.9</ele>
        <time>2021-05-08T14:51:03Z</time>
      </trkpt>
      <trkpt lat="46.65617" lon="5.92695">
        <ele>839.8</ele>
        <time>2021-05-08T14:51:10Z</time>
      </trkpt>
      <trkpt lat="46.65617" lon="5.92702">
        <ele>839.2</ele>
        <time>2021-05-08T14:51:15Z</time>
      </trkpt>
      <trkpt lat="46.65612" lon="5.92707">
        <ele>835.9</ele>
        <time>2021-05-08T14:51:30Z</time>
      </trkpt>
      <trkpt lat="46.65607" lon="5.9271">
        <ele>833.4</ele>
        <time>2021-05-08T14:51:37Z</time>
      </trkpt>
      <trkpt lat="46.65603" lon="5.92714">
        <ele>828.3</ele>
        <time>2021-05-08T14:51:48Z</time>
      </trkpt>
      <trkpt lat="46.656" lon="5.92719">
        <ele>825.9</ele>
        <time>2021-05-08T14:51:54Z</time>
      </trkpt>
      <trkpt lat="46.65597" lon="5.92725">
        <ele>823.8</ele>
        <time>2021-05-08T14:52:01Z</time>
      </trkpt>
      <trkpt lat="46.65593" lon="5.92728">
        <ele>822</ele>
        <time>2021-05-08T14:52:08Z</time>
      </trkpt>
      <trkpt lat="46.65588" lon="5.9273">
        <ele>820.6</ele>
        <time>2021-05-08T14:52:13Z</time>
      </trkpt>
      <trkpt lat="46.65582" lon="5.92732">
        <ele>818.8</ele>
        <time>2021-05-08T14:52:17Z</time>
      </trkpt>
      <trkpt lat="46.65576" lon="5.92734">
        <ele>817.2</ele>
        <time>2021-05-08T14:52:22Z</time>
      </trkpt>
      <trkpt lat="46.65572" lon="5.92737">
        <ele>815.9</ele>
        <time>2021-05-08T14:52:28Z</time>
      </trkpt>
      <trkpt lat="46.65575" lon="5.92743">
        <ele>814.8</ele>
        <time>2021-05-08T14:52:39Z</time>
      </trkpt>
      <trkpt lat="46.6557" lon="5.92745">
        <ele>814.4</ele>
        <time>2021-05-08T14:52:56Z</time>
      </trkpt>
      <trkpt lat="46.65567" lon="5.92749">
        <ele>813.9</ele>
        <time>2021-05-08T14:53:10Z</time>
      </trkpt>
      <trkpt lat="46.65567" lon="5.92756">
        <ele>812.5</ele>
        <time>2021-05-08T14:53:17Z</time>
      </trkpt>
      <trkpt lat="46.65566" lon="5.92763">
        <ele>809.7</ele>
        <time>2021-05-08T14:53:26Z</time>
      </trkpt>
      <trkpt lat="46.65566" lon="5.9277">
        <ele>807.9</ele>
        <time>2021-05-08T14:53:31Z</time>
      </trkpt>
      <trkpt lat="46.65565" lon="5.92777">
        <ele>806.5</ele>
        <time>2021-05-08T14:53:38Z</time>
      </trkpt>
      <trkpt lat="46.65563" lon="5.92782">
        <ele>805</ele>
        <time>2021-05-08T14:53:46Z</time>
      </trkpt>
      <trkpt lat="46.65563" lon="5.92789">
        <ele>804.3</ele>
        <time>2021-05-08T14:53:53Z</time>
      </trkpt>
      <trkpt lat="46.65566" lon="5.92795">
        <ele>804.7</ele>
        <time>2021-05-08T14:53:58Z</time>
      </trkpt>
      <trkpt lat="46.65565" lon="5.92802">
        <ele>805.4</ele>
        <time>2021-05-08T14:54:05Z</time>
      </trkpt>
      <trkpt lat="46.65564" lon="5.92809">
        <ele>805.2</ele>
        <time>2021-05-08T14:54:14Z</time>
      </trkpt>
      <trkpt lat="46.65566" lon="5.92817">
        <ele>805.5</ele>
        <time>2021-05-08T14:54:21Z</time>
      </trkpt>
      <trkpt lat="46.65567" lon="5.92824">
        <ele>805.9</ele>
        <time>2021-05-08T14:54:26Z</time>
      </trkpt>
      <trkpt lat="46.65569" lon="5.92831">
        <ele>806.2</ele>
        <time>2021-05-08T14:54:31Z</time>
      </trkpt>
      <trkpt lat="46.65569" lon="5.92838">
        <ele>806.5</ele>
        <time>2021-05-08T14:54:35Z</time>
      </trkpt>
      <trkpt lat="46.65569" lon="5.92845">
        <ele>806.4</ele>
        <time>2021-05-08T14:54:40Z</time>
      </trkpt>
      <trkpt lat="46.65571" lon="5.92852">
        <ele>803.9</ele>
        <time>2021-05-08T14:54:46Z</time>
      </trkpt>
      <trkpt lat="46.65575" lon="5.92857">
        <ele>800.8</ele>
        <time>2021-05-08T14:54:51Z</time>
      </trkpt>
      <trkpt lat="46.65576" lon="5.92863">
        <ele>797.5</ele>
        <time>2021-05-08T14:54:59Z</time>
      </trkpt>
      <trkpt lat="46.65571" lon="5.92866">
        <ele>797.8</ele>
        <time>2021-05-08T14:55:18Z</time>
      </trkpt>
      <trkpt lat="46.65575" lon="5.9287">
        <ele>798.6</ele>
        <time>2021-05-08T14:55:31Z</time>
      </trkpt>
      <trkpt lat="46.65579" lon="5.92875">
        <ele>797.9</ele>
        <time>2021-05-08T14:55:37Z</time>
      </trkpt>
      <trkpt lat="46.65583" lon="5.92879">
        <ele>797.7</ele>
        <time>2021-05-08T14:55:43Z</time>
      </trkpt>
      <trkpt lat="46.65588" lon="5.92879">
        <ele>797.2</ele>
        <time>2021-05-08T14:55:49Z</time>
      </trkpt>
      <trkpt lat="46.65592" lon="5.92882">
        <ele>797.4</ele>
        <time>2021-05-08T14:55:53Z</time>
      </trkpt>
      <trkpt lat="46.65597" lon="5.92884">
        <ele>797.8</ele>
        <time>2021-05-08T14:55:57Z</time>
      </trkpt>
      <trkpt lat="46.65601" lon="5.92886">
        <ele>798.4</ele>
        <time>2021-05-08T14:56:02Z</time>
      </trkpt>
      <trkpt lat="46.65607" lon="5.92887">
        <ele>799.4</ele>
        <time>2021-05-08T14:56:07Z</time>
      </trkpt>
      <trkpt lat="46.65618" lon="5.92885">
        <ele>797.3</ele>
        <time>2021-05-08T14:56:11Z</time>
      </trkpt>
      <trkpt lat="46.65622" lon="5.92886">
        <ele>796.7</ele>
        <time>2021-05-08T14:56:15Z</time>
      </trkpt>
      <trkpt lat="46.65626" lon="5.92889">
        <ele>796.1</ele>
        <time>2021-05-08T14:56:28Z</time>
      </trkpt>
      <trkpt lat="46.65631" lon="5.92894">
        <ele>794.9</ele>
        <time>2021-05-08T14:56:54Z</time>
      </trkpt>
      <trkpt lat="46.65634" lon="5.92888">
        <ele>788.8</ele>
        <time>2021-05-08T14:57:45Z</time>
      </trkpt>
      <trkpt lat="46.65639" lon="5.92891">
        <ele>787</ele>
        <time>2021-05-08T14:58:12Z</time>
      </trkpt>
      <trkpt lat="46.65643" lon="5.92895">
        <ele>787</ele>
        <time>2021-05-08T14:58:16Z</time>
      </trkpt>
      <trkpt lat="46.65647" lon="5.92896">
        <ele>787.3</ele>
        <time>2021-05-08T14:58:24Z</time>
      </trkpt>
      <trkpt lat="46.65652" lon="5.92896">
        <ele>787.9</ele>
        <time>2021-05-08T14:58:30Z</time>
      </trkpt>
      <trkpt lat="46.65657" lon="5.92897">
        <ele>789.3</ele>
        <time>2021-05-08T14:58:36Z</time>
      </trkpt>
      <trkpt lat="46.65662" lon="5.92898">
        <ele>789.9</ele>
        <time>2021-05-08T14:58:45Z</time>
      </trkpt>
      <trkpt lat="46.65667" lon="5.92899">
        <ele>789.7</ele>
        <time>2021-05-08T14:58:51Z</time>
      </trkpt>
      <trkpt lat="46.65672" lon="5.92901">
        <ele>789.3</ele>
        <time>2021-05-08T14:58:55Z</time>
      </trkpt>
      <trkpt lat="46.65677" lon="5.92901">
        <ele>788.8</ele>
        <time>2021-05-08T14:59:00Z</time>
      </trkpt>
      <trkpt lat="46.65682" lon="5.92901">
        <ele>788.2</ele>
        <time>2021-05-08T14:59:04Z</time>
      </trkpt>
      <trkpt lat="46.65687" lon="5.929">
        <ele>787.9</ele>
        <time>2021-05-08T14:59:09Z</time>
      </trkpt>
      <trkpt lat="46.65692" lon="5.92897">
        <ele>788.3</ele>
        <time>2021-05-08T14:59:15Z</time>
      </trkpt>
      <trkpt lat="46.65697" lon="5.92895">
        <ele>788.6</ele>
        <time>2021-05-08T14:59:19Z</time>
      </trkpt>
      <trkpt lat="46.65701" lon="5.92898">
        <ele>790.2</ele>
        <time>2021-05-08T14:59:30Z</time>
      </trkpt>
      <trkpt lat="46.65706" lon="5.92896">
        <ele>791.6</ele>
        <time>2021-05-08T15:00:30Z</time>
      </trkpt>
      <trkpt lat="46.65711" lon="5.92892">
        <ele>791.4</ele>
        <time>2021-05-08T15:00:35Z</time>
      </trkpt>
      <trkpt lat="46.65714" lon="5.92886">
        <ele>791.4</ele>
        <time>2021-05-08T15:00:40Z</time>
      </trkpt>
      <trkpt lat="46.65718" lon="5.92883">
        <ele>792.4</ele>
        <time>2021-05-08T15:00:48Z</time>
      </trkpt>
      <trkpt lat="46.65722" lon="5.92879">
        <ele>796.5</ele>
        <time>2021-05-08T15:01:00Z</time>
      </trkpt>
      <trkpt lat="46.65725" lon="5.92873">
        <ele>798.5</ele>
        <time>2021-05-08T15:01:09Z</time>
      </trkpt>
      <trkpt lat="46.65729" lon="5.9287">
        <ele>800.3</ele>
        <time>2021-05-08T15:01:18Z</time>
      </trkpt>
      <trkpt lat="46.65733" lon="5.92873">
        <ele>801.3</ele>
        <time>2021-05-08T15:01:26Z</time>
      </trkpt>
      <trkpt lat="46.65738" lon="5.92873">
        <ele>803</ele>
        <time>2021-05-08T15:01:42Z</time>
      </trkpt>
      <trkpt lat="46.65743" lon="5.92872">
        <ele>804.9</ele>
        <time>2021-05-08T15:01:49Z</time>
      </trkpt>
      <trkpt lat="46.65742" lon="5.92865">
        <ele>808.1</ele>
        <time>2021-05-08T15:01:58Z</time>
      </trkpt>
      <trkpt lat="46.65743" lon="5.92858">
        <ele>810.5</ele>
        <time>2021-05-08T15:02:10Z</time>
      </trkpt>
      <trkpt lat="46.65747" lon="5.92854">
        <ele>810.3</ele>
        <time>2021-05-08T15:02:21Z</time>
      </trkpt>
      <trkpt lat="46.65751" lon="5.92851">
        <ele>810.1</ele>
        <time>2021-05-08T15:02:25Z</time>
      </trkpt>
      <trkpt lat="46.65756" lon="5.92851">
        <ele>809.9</ele>
        <time>2021-05-08T15:02:34Z</time>
      </trkpt>
      <trkpt lat="46.65751" lon="5.92855">
        <ele>810.5</ele>
        <time>2021-05-08T15:02:41Z</time>
      </trkpt>
      <trkpt lat="46.65746" lon="5.92857">
        <ele>811.1</ele>
        <time>2021-05-08T15:02:48Z</time>
      </trkpt>
      <trkpt lat="46.65746" lon="5.92851">
        <ele>812.5</ele>
        <time>2021-05-08T15:03:28Z</time>
      </trkpt>
      <trkpt lat="46.65744" lon="5.92844">
        <ele>812.7</ele>
        <time>2021-05-08T15:03:45Z</time>
      </trkpt>
      <trkpt lat="46.65744" lon="5.92837">
        <ele>813.4</ele>
        <time>2021-05-08T15:03:56Z</time>
      </trkpt>
      <trkpt lat="46.65739" lon="5.92835">
        <ele>815.9</ele>
        <time>2021-05-08T15:04:07Z</time>
      </trkpt>
      <trkpt lat="46.65735" lon="5.92836">
        <ele>819.1</ele>
        <time>2021-05-08T15:04:34Z</time>
      </trkpt>
      <trkpt lat="46.65732" lon="5.9283">
        <ele>819.7</ele>
        <time>2021-05-08T15:04:51Z</time>
      </trkpt>
      <trkpt lat="46.65734" lon="5.92824">
        <ele>819.4</ele>
        <time>2021-05-08T15:05:05Z</time>
      </trkpt>
      <trkpt lat="46.65737" lon="5.92817">
        <ele>818.8</ele>
        <time>2021-05-08T15:05:22Z</time>
      </trkpt>
      <trkpt lat="46.65735" lon="5.92811">
        <ele>817.9</ele>
        <time>2021-05-08T15:05:56Z</time>
      </trkpt>
      <trkpt lat="46.65739" lon="5.92806">
        <ele>817.6</ele>
        <time>2021-05-08T15:06:06Z</time>
      </trkpt>
      <trkpt lat="46.65743" lon="5.92803">
        <ele>817.7</ele>
        <time>2021-05-08T15:06:11Z</time>
      </trkpt>
      <trkpt lat="46.65741" lon="5.92809">
        <ele>816.7</ele>
        <time>2021-05-08T15:06:35Z</time>
      </trkpt>
      <trkpt lat="46.65746" lon="5.92804">
        <ele>816.4</ele>
        <time>2021-05-08T15:07:06Z</time>
      </trkpt>
      <trkpt lat="46.65749" lon="5.92798">
        <ele>816.6</ele>
        <time>2021-05-08T15:07:10Z</time>
      </trkpt>
      <trkpt lat="46.65754" lon="5.92797">
        <ele>816.9</ele>
        <time>2021-05-08T15:07:20Z</time>
      </trkpt>
      <trkpt lat="46.65753" lon="5.9279">
        <ele>818.3</ele>
        <time>2021-05-08T15:08:25Z</time>
      </trkpt>
      <trkpt lat="46.65757" lon="5.92785">
        <ele>822.3</ele>
        <time>2021-05-08T15:09:00Z</time>
      </trkpt>
      <trkpt lat="46.65761" lon="5.92782">
        <ele>823</ele>
        <time>2021-05-08T15:09:05Z</time>
      </trkpt>
      <trkpt lat="46.65766" lon="5.92782">
        <ele>823.3</ele>
        <time>2021-05-08T15:09:13Z</time>
      </trkpt>
      <trkpt lat="46.65771" lon="5.92783">
        <ele>824.6</ele>
        <time>2021-05-08T15:09:19Z</time>
      </trkpt>
      <trkpt lat="46.65774" lon="5.92788">
        <ele>827.5</ele>
        <time>2021-05-08T15:09:27Z</time>
      </trkpt>
      <trkpt lat="46.65778" lon="5.9279">
        <ele>830.5</ele>
        <time>2021-05-08T15:09:35Z</time>
      </trkpt>
      <trkpt lat="46.65781" lon="5.92785">
        <ele>832.4</ele>
        <time>2021-05-08T15:10:07Z</time>
      </trkpt>
      <trkpt lat="46.65785" lon="5.92786">
        <ele>832.2</ele>
        <time>2021-05-08T15:10:14Z</time>
      </trkpt>
      <trkpt lat="46.65791" lon="5.92786">
        <ele>832.1</ele>
        <time>2021-05-08T15:10:20Z</time>
      </trkpt>
      <trkpt lat="46.65795" lon="5.92786">
        <ele>831.8</ele>
        <time>2021-05-08T15:10:28Z</time>
      </trkpt>
      <trkpt lat="46.658" lon="5.92786">
        <ele>832.3</ele>
        <time>2021-05-08T15:10:42Z</time>
      </trkpt>
      <trkpt lat="46.65799" lon="5.92779">
        <ele>832.9</ele>
        <time>2021-05-08T15:11:16Z</time>
      </trkpt>
      <trkpt lat="46.65801" lon="5.92771">
        <ele>833.3</ele>
        <time>2021-05-08T15:11:21Z</time>
      </trkpt>
      <trkpt lat="46.65798" lon="5.92766">
        <ele>832.1</ele>
        <time>2021-05-08T15:11:57Z</time>
      </trkpt>
      <trkpt lat="46.65796" lon="5.9276">
        <ele>831.5</ele>
        <time>2021-05-08T15:12:06Z</time>
      </trkpt>
      <trkpt lat="46.65791" lon="5.92762">
        <ele>831.7</ele>
        <time>2021-05-08T15:12:14Z</time>
      </trkpt>
      <trkpt lat="46.65788" lon="5.92768">
        <ele>831.9</ele>
        <time>2021-05-08T15:12:23Z</time>
      </trkpt>
      <trkpt lat="46.65789" lon="5.92761">
        <ele>832.6</ele>
        <time>2021-05-08T15:12:46Z</time>
      </trkpt>
      <trkpt lat="46.65788" lon="5.92753">
        <ele>832.7</ele>
        <time>2021-05-08T15:12:56Z</time>
      </trkpt>
      <trkpt lat="46.65785" lon="5.92743">
        <ele>833.4</ele>
        <time>2021-05-08T15:13:16Z</time>
      </trkpt>
      <trkpt lat="46.65782" lon="5.92736">
        <ele>833.9</ele>
        <time>2021-05-08T15:13:20Z</time>
      </trkpt>
      <trkpt lat="46.65781" lon="5.92729">
        <ele>836.1</ele>
        <time>2021-05-08T15:13:33Z</time>
      </trkpt>
      <trkpt lat="46.65785" lon="5.92724">
        <ele>839</ele>
        <time>2021-05-08T15:14:08Z</time>
      </trkpt>
      <trkpt lat="46.6579" lon="5.92726">
        <ele>841.5</ele>
        <time>2021-05-08T15:15:15Z</time>
      </trkpt>
      <trkpt lat="46.65792" lon="5.92732">
        <ele>841.9</ele>
        <time>2021-05-08T15:15:21Z</time>
      </trkpt>
      <trkpt lat="46.65797" lon="5.92735">
        <ele>843.4</ele>
        <time>2021-05-08T15:15:31Z</time>
      </trkpt>
      <trkpt lat="46.65801" lon="5.92738">
        <ele>844.1</ele>
        <time>2021-05-08T15:15:38Z</time>
      </trkpt>
      <trkpt lat="46.65807" lon="5.92741">
        <ele>848.3</ele>
        <time>2021-05-08T15:15:43Z</time>
      </trkpt>
      <trkpt lat="46.65811" lon="5.92745">
        <ele>852.3</ele>
        <time>2021-05-08T15:15:47Z</time>
      </trkpt>
      <trkpt lat="46.65817" lon="5.92744">
        <ele>855.9</ele>
        <time>2021-05-08T15:16:07Z</time>
      </trkpt>
      <trkpt lat="46.65821" lon="5.92742">
        <ele>855.5</ele>
        <time>2021-05-08T15:16:13Z</time>
      </trkpt>
      <trkpt lat="46.65826" lon="5.92738">
        <ele>854.7</ele>
        <time>2021-05-08T15:16:21Z</time>
      </trkpt>
      <trkpt lat="46.65829" lon="5.92744">
        <ele>848.3</ele>
        <time>2021-05-08T15:18:21Z</time>
      </trkpt>
      <trkpt lat="46.65823" lon="5.92745">
        <ele>845.3</ele>
        <time>2021-05-08T15:19:09Z</time>
      </trkpt>
      <trkpt lat="46.65823" lon="5.92738">
        <ele>845.7</ele>
        <time>2021-05-08T15:19:33Z</time>
      </trkpt>
      <trkpt lat="46.65818" lon="5.92738">
        <ele>843.4</ele>
        <time>2021-05-08T15:25:16Z</time>
      </trkpt>
      <trkpt lat="46.65813" lon="5.92738">
        <ele>842</ele>
        <time>2021-05-08T15:25:25Z</time>
      </trkpt>
      <trkpt lat="46.65806" lon="5.92737">
        <ele>842.2</ele>
        <time>2021-05-08T15:26:30Z</time>
      </trkpt>
      <trkpt lat="46.65801" lon="5.92735">
        <ele>844.6</ele>
        <time>2021-05-08T15:26:34Z</time>
      </trkpt>
      <trkpt lat="46.65799" lon="5.92728">
        <ele>847.3</ele>
        <time>2021-05-08T15:26:43Z</time>
      </trkpt>
      <trkpt lat="46.65797" lon="5.92723">
        <ele>848.4</ele>
        <time>2021-05-08T15:26:52Z</time>
      </trkpt>
      <trkpt lat="46.65791" lon="5.92723">
        <ele>848.6</ele>
        <time>2021-05-08T15:26:56Z</time>
      </trkpt>
      <trkpt lat="46.65787" lon="5.92722">
        <ele>848.8</ele>
        <time>2021-05-08T15:27:04Z</time>
      </trkpt>
      <trkpt lat="46.65789" lon="5.92716">
        <ele>848.4</ele>
        <time>2021-05-08T15:27:20Z</time>
      </trkpt>
      <trkpt lat="46.65794" lon="5.92714">
        <ele>847.5</ele>
        <time>2021-05-08T15:27:29Z</time>
      </trkpt>
      <trkpt lat="46.6579" lon="5.92718">
        <ele>846.2</ele>
        <time>2021-05-08T15:27:52Z</time>
      </trkpt>
      <trkpt lat="46.65786" lon="5.9273">
        <ele>845.4</ele>
        <time>2021-05-08T15:28:02Z</time>
      </trkpt>
      <trkpt lat="46.65782" lon="5.92738">
        <ele>844.9</ele>
        <time>2021-05-08T15:28:06Z</time>
      </trkpt>
      <trkpt lat="46.65781" lon="5.92751">
        <ele>845.5</ele>
        <time>2021-05-08T15:28:35Z</time>
      </trkpt>
      <trkpt lat="46.65783" lon="5.9276">
        <ele>847.6</ele>
        <time>2021-05-08T15:28:39Z</time>
      </trkpt>
      <trkpt lat="46.65786" lon="5.92765">
        <ele>849.1</ele>
        <time>2021-05-08T15:28:47Z</time>
      </trkpt>
      <trkpt lat="46.65791" lon="5.92768">
        <ele>844.9</ele>
        <time>2021-05-08T15:29:35Z</time>
      </trkpt>
      <trkpt lat="46.65792" lon="5.92775">
        <ele>839.9</ele>
        <time>2021-05-08T15:31:07Z</time>
      </trkpt>
      <trkpt lat="46.65788" lon="5.9278">
        <ele>831.9</ele>
        <time>2021-05-08T15:31:57Z</time>
      </trkpt>
      <trkpt lat="46.65785" lon="5.92785">
        <ele>830.9</ele>
        <time>2021-05-08T15:32:05Z</time>
      </trkpt>
      <trkpt lat="46.65782" lon="5.92789">
        <ele>830.3</ele>
        <time>2021-05-08T15:32:12Z</time>
      </trkpt>
      <trkpt lat="46.65777" lon="5.9279">
        <ele>829.7</ele>
        <time>2021-05-08T15:32:18Z</time>
      </trkpt>
      <trkpt lat="46.65772" lon="5.92788">
        <ele>829.2</ele>
        <time>2021-05-08T15:32:24Z</time>
      </trkpt>
      <trkpt lat="46.65767" lon="5.92786">
        <ele>828.6</ele>
        <time>2021-05-08T15:32:31Z</time>
      </trkpt>
      <trkpt lat="46.65759" lon="5.9279">
        <ele>828.2</ele>
        <time>2021-05-08T15:32:39Z</time>
      </trkpt>
      <trkpt lat="46.65753" lon="5.92795">
        <ele>828.3</ele>
        <time>2021-05-08T15:32:43Z</time>
      </trkpt>
      <trkpt lat="46.65749" lon="5.92796">
        <ele>828.1</ele>
        <time>2021-05-08T15:32:51Z</time>
      </trkpt>
      <trkpt lat="46.65744" lon="5.92794">
        <ele>827.9</ele>
        <time>2021-05-08T15:32:56Z</time>
      </trkpt>
      <trkpt lat="46.6574" lon="5.92791">
        <ele>827.7</ele>
        <time>2021-05-08T15:33:03Z</time>
      </trkpt>
      <trkpt lat="46.65736" lon="5.92787">
        <ele>827.3</ele>
        <time>2021-05-08T15:33:12Z</time>
      </trkpt>
      <trkpt lat="46.65731" lon="5.92786">
        <ele>827</ele>
        <time>2021-05-08T15:33:17Z</time>
      </trkpt>
      <trkpt lat="46.65727" lon="5.92782">
        <ele>826.7</ele>
        <time>2021-05-08T15:33:23Z</time>
      </trkpt>
      <trkpt lat="46.65723" lon="5.92779">
        <ele>826.4</ele>
        <time>2021-05-08T15:33:30Z</time>
      </trkpt>
      <trkpt lat="46.65721" lon="5.92772">
        <ele>824.2</ele>
        <time>2021-05-08T15:33:44Z</time>
      </trkpt>
      <trkpt lat="46.65716" lon="5.92769">
        <ele>822.3</ele>
        <time>2021-05-08T15:33:50Z</time>
      </trkpt>
      <trkpt lat="46.65712" lon="5.9277">
        <ele>819.7</ele>
        <time>2021-05-08T15:33:58Z</time>
      </trkpt>
      <trkpt lat="46.65707" lon="5.92773">
        <ele>818.3</ele>
        <time>2021-05-08T15:34:07Z</time>
      </trkpt>
      <trkpt lat="46.65702" lon="5.92775">
        <ele>817.8</ele>
        <time>2021-05-08T15:34:18Z</time>
      </trkpt>
      <trkpt lat="46.65684" lon="5.92785">
        <ele>824.1</ele>
        <time>2021-05-08T15:34:22Z</time>
      </trkpt>
      <trkpt lat="46.65678" lon="5.92787">
        <ele>828.3</ele>
        <time>2021-05-08T15:34:26Z</time>
      </trkpt>
      <trkpt lat="46.65674" lon="5.92787">
        <ele>832.7</ele>
        <time>2021-05-08T15:34:35Z</time>
      </trkpt>
      <trkpt lat="46.65669" lon="5.92789">
        <ele>834.1</ele>
        <time>2021-05-08T15:34:41Z</time>
      </trkpt>
      <trkpt lat="46.65664" lon="5.92789">
        <ele>834.7</ele>
        <time>2021-05-08T15:34:47Z</time>
      </trkpt>
      <trkpt lat="46.6566" lon="5.92785">
        <ele>832.5</ele>
        <time>2021-05-08T15:34:56Z</time>
      </trkpt>
      <trkpt lat="46.65656" lon="5.92784">
        <ele>829.3</ele>
        <time>2021-05-08T15:35:04Z</time>
      </trkpt>
      <trkpt lat="46.65652" lon="5.92779">
        <ele>826.9</ele>
        <time>2021-05-08T15:35:10Z</time>
      </trkpt>
      <trkpt lat="46.6565" lon="5.92773">
        <ele>825.3</ele>
        <time>2021-05-08T15:35:14Z</time>
      </trkpt>
      <trkpt lat="46.65646" lon="5.92768">
        <ele>822.4</ele>
        <time>2021-05-08T15:35:23Z</time>
      </trkpt>
      <trkpt lat="46.65641" lon="5.92757">
        <ele>823.3</ele>
        <time>2021-05-08T15:35:30Z</time>
      </trkpt>
      <trkpt lat="46.65637" lon="5.92748">
        <ele>825</ele>
        <time>2021-05-08T15:35:34Z</time>
      </trkpt>
      <trkpt lat="46.65636" lon="5.92741">
        <ele>826.4</ele>
        <time>2021-05-08T15:35:43Z</time>
      </trkpt>
      <trkpt lat="46.65632" lon="5.92733">
        <ele>827.2</ele>
        <time>2021-05-08T15:35:49Z</time>
      </trkpt>
      <trkpt lat="46.65627" lon="5.92725">
        <ele>828</ele>
        <time>2021-05-08T15:35:53Z</time>
      </trkpt>
      <trkpt lat="46.65623" lon="5.92721">
        <ele>828.8</ele>
        <time>2021-05-08T15:35:59Z</time>
      </trkpt>
      <trkpt lat="46.65621" lon="5.92715">
        <ele>829.1</ele>
        <time>2021-05-08T15:36:11Z</time>
      </trkpt>
      <trkpt lat="46.65618" lon="5.92708">
        <ele>828.9</ele>
        <time>2021-05-08T15:36:20Z</time>
      </trkpt>
      <trkpt lat="46.65615" lon="5.92703">
        <ele>828.6</ele>
        <time>2021-05-08T15:36:25Z</time>
      </trkpt>
      <trkpt lat="46.6561" lon="5.92706">
        <ele>827.5</ele>
        <time>2021-05-08T15:36:41Z</time>
      </trkpt>
      <trkpt lat="46.65606" lon="5.92708">
        <ele>826.9</ele>
        <time>2021-05-08T15:36:45Z</time>
      </trkpt>
      <trkpt lat="46.65604" lon="5.92714">
        <ele>821.6</ele>
        <time>2021-05-08T15:37:05Z</time>
      </trkpt>
      <trkpt lat="46.65599" lon="5.92715">
        <ele>819.5</ele>
        <time>2021-05-08T15:37:17Z</time>
      </trkpt>
      <trkpt lat="46.65596" lon="5.92722">
        <ele>818</ele>
        <time>2021-05-08T15:37:23Z</time>
      </trkpt>
      <trkpt lat="46.65591" lon="5.92728">
        <ele>816.8</ele>
        <time>2021-05-08T15:37:27Z</time>
      </trkpt>
      <trkpt lat="46.65581" lon="5.92741">
        <ele>815.1</ele>
        <time>2021-05-08T15:37:31Z</time>
      </trkpt>
      <trkpt lat="46.65576" lon="5.92746">
        <ele>814.1</ele>
        <time>2021-05-08T15:37:35Z</time>
      </trkpt>
      <trkpt lat="46.65572" lon="5.9275">
        <ele>813.4</ele>
        <time>2021-05-08T15:37:40Z</time>
      </trkpt>
      <trkpt lat="46.65567" lon="5.9275">
        <ele>811.6</ele>
        <time>2021-05-08T15:38:00Z</time>
      </trkpt>
      <trkpt lat="46.65565" lon="5.92756">
        <ele>811.4</ele>
        <time>2021-05-08T15:38:05Z</time>
      </trkpt>
      <trkpt lat="46.65564" lon="5.92763">
        <ele>811.2</ele>
        <time>2021-05-08T15:38:11Z</time>
      </trkpt>
      <trkpt lat="46.65565" lon="5.9277">
        <ele>809.9</ele>
        <time>2021-05-08T15:38:19Z</time>
      </trkpt>
      <trkpt lat="46.65565" lon="5.92777">
        <ele>807.2</ele>
        <time>2021-05-08T15:38:28Z</time>
      </trkpt>
      <trkpt lat="46.65567" lon="5.92783">
        <ele>806.2</ele>
        <time>2021-05-08T15:38:34Z</time>
      </trkpt>
      <trkpt lat="46.65569" lon="5.9279">
        <ele>805.4</ele>
        <time>2021-05-08T15:38:41Z</time>
      </trkpt>
      <trkpt lat="46.6557" lon="5.92802">
        <ele>803.8</ele>
        <time>2021-05-08T15:38:45Z</time>
      </trkpt>
      <trkpt lat="46.65571" lon="5.92809">
        <ele>802.6</ele>
        <time>2021-05-08T15:38:49Z</time>
      </trkpt>
      <trkpt lat="46.65573" lon="5.92816">
        <ele>801.7</ele>
        <time>2021-05-08T15:38:53Z</time>
      </trkpt>
      <trkpt lat="46.65574" lon="5.92823">
        <ele>800.8</ele>
        <time>2021-05-08T15:38:58Z</time>
      </trkpt>
      <trkpt lat="46.65573" lon="5.9283">
        <ele>800</ele>
        <time>2021-05-08T15:39:04Z</time>
      </trkpt>
      <trkpt lat="46.65571" lon="5.92836">
        <ele>799.1</ele>
        <time>2021-05-08T15:39:11Z</time>
      </trkpt>
      <trkpt lat="46.65568" lon="5.92842">
        <ele>798.5</ele>
        <time>2021-05-08T15:39:17Z</time>
      </trkpt>
      <trkpt lat="46.65567" lon="5.92849">
        <ele>797.4</ele>
        <time>2021-05-08T15:39:24Z</time>
      </trkpt>
      <trkpt lat="46.65569" lon="5.92856">
        <ele>795.8</ele>
        <time>2021-05-08T15:39:31Z</time>
      </trkpt>
      <trkpt lat="46.65571" lon="5.92863">
        <ele>794.3</ele>
        <time>2021-05-08T15:39:38Z</time>
      </trkpt>
      <trkpt lat="46.65572" lon="5.92869">
        <ele>793.2</ele>
        <time>2021-05-08T15:39:43Z</time>
      </trkpt>
      <trkpt lat="46.65576" lon="5.92873">
        <ele>791.1</ele>
        <time>2021-05-08T15:39:54Z</time>
      </trkpt>
      <trkpt lat="46.65579" lon="5.92878">
        <ele>790.7</ele>
        <time>2021-05-08T15:40:06Z</time>
      </trkpt>
      <trkpt lat="46.65584" lon="5.92882">
        <ele>790.6</ele>
        <time>2021-05-08T15:40:12Z</time>
      </trkpt>
      <trkpt lat="46.65588" lon="5.92885">
        <ele>790</ele>
        <time>2021-05-08T15:40:19Z</time>
      </trkpt>
      <trkpt lat="46.65599" lon="5.9289">
        <ele>789.9</ele>
        <time>2021-05-08T15:40:28Z</time>
      </trkpt>
      <trkpt lat="46.65606" lon="5.92891">
        <ele>790.7</ele>
        <time>2021-05-08T15:40:32Z</time>
      </trkpt>
      <trkpt lat="46.65611" lon="5.92893">
        <ele>791.7</ele>
        <time>2021-05-08T15:40:39Z</time>
      </trkpt>
      <trkpt lat="46.65619" lon="5.92896">
        <ele>792.6</ele>
        <time>2021-05-08T15:40:43Z</time>
      </trkpt>
      <trkpt lat="46.65623" lon="5.92898">
        <ele>794</ele>
        <time>2021-05-08T15:40:47Z</time>
      </trkpt>
      <trkpt lat="46.65627" lon="5.92903">
        <ele>795.8</ele>
        <time>2021-05-08T15:40:59Z</time>
      </trkpt>
      <trkpt lat="46.65632" lon="5.92903">
        <ele>796.8</ele>
        <time>2021-05-08T15:41:05Z</time>
      </trkpt>
      <trkpt lat="46.65637" lon="5.92902">
        <ele>797.3</ele>
        <time>2021-05-08T15:41:09Z</time>
      </trkpt>
      <trkpt lat="46.65642" lon="5.929">
        <ele>797.6</ele>
        <time>2021-05-08T15:41:14Z</time>
      </trkpt>
      <trkpt lat="46.6565" lon="5.92894">
        <ele>801.3</ele>
        <time>2021-05-08T15:41:18Z</time>
      </trkpt>
      <trkpt lat="46.65655" lon="5.92892">
        <ele>804.3</ele>
        <time>2021-05-08T15:41:23Z</time>
      </trkpt>
      <trkpt lat="46.65659" lon="5.92895">
        <ele>806.5</ele>
        <time>2021-05-08T15:41:30Z</time>
      </trkpt>
      <trkpt lat="46.65664" lon="5.92898">
        <ele>807</ele>
        <time>2021-05-08T15:41:35Z</time>
      </trkpt>
      <trkpt lat="46.65668" lon="5.92903">
        <ele>807</ele>
        <time>2021-05-08T15:41:45Z</time>
      </trkpt>
      <trkpt lat="46.6567" lon="5.92909">
        <ele>805.9</ele>
        <time>2021-05-08T15:41:53Z</time>
      </trkpt>
      <trkpt lat="46.65672" lon="5.92915">
        <ele>804.3</ele>
        <time>2021-05-08T15:41:59Z</time>
      </trkpt>
      <trkpt lat="46.65674" lon="5.92922">
        <ele>801.3</ele>
        <time>2021-05-08T15:42:07Z</time>
      </trkpt>
      <trkpt lat="46.6567" lon="5.92926">
        <ele>799.3</ele>
        <time>2021-05-08T15:42:13Z</time>
      </trkpt>
      <trkpt lat="46.65666" lon="5.92929">
        <ele>797.7</ele>
        <time>2021-05-08T15:42:18Z</time>
      </trkpt>
      <trkpt lat="46.65661" lon="5.92935">
        <ele>794.4</ele>
        <time>2021-05-08T15:42:30Z</time>
      </trkpt>
      <trkpt lat="46.65657" lon="5.92939">
        <ele>793</ele>
        <time>2021-05-08T15:42:34Z</time>
      </trkpt>
      <trkpt lat="46.65654" lon="5.92946">
        <ele>791.3</ele>
        <time>2021-05-08T15:42:42Z</time>
      </trkpt>
      <trkpt lat="46.65655" lon="5.92954">
        <ele>790.2</ele>
        <time>2021-05-08T15:42:48Z</time>
      </trkpt>
      <trkpt lat="46.65655" lon="5.9296">
        <ele>789.4</ele>
        <time>2021-05-08T15:42:54Z</time>
      </trkpt>
      <trkpt lat="46.65656" lon="5.92967">
        <ele>788.7</ele>
        <time>2021-05-08T15:42:59Z</time>
      </trkpt>
      <trkpt lat="46.65655" lon="5.92974">
        <ele>788.1</ele>
        <time>2021-05-08T15:43:04Z</time>
      </trkpt>
      <trkpt lat="46.65652" lon="5.92979">
        <ele>787.8</ele>
        <time>2021-05-08T15:43:09Z</time>
      </trkpt>
      <trkpt lat="46.65648" lon="5.92985">
        <ele>788</ele>
        <time>2021-05-08T15:43:14Z</time>
      </trkpt>
      <trkpt lat="46.65645" lon="5.9299">
        <ele>788.5</ele>
        <time>2021-05-08T15:43:19Z</time>
      </trkpt>
      <trkpt lat="46.65642" lon="5.92996">
        <ele>788.9</ele>
        <time>2021-05-08T15:43:24Z</time>
      </trkpt>
      <trkpt lat="46.65641" lon="5.93003">
        <ele>789</ele>
        <time>2021-05-08T15:43:29Z</time>
      </trkpt>
      <trkpt lat="46.65638" lon="5.9301">
        <ele>788.5</ele>
        <time>2021-05-08T15:43:33Z</time>
      </trkpt>
      <trkpt lat="46.65635" lon="5.93016">
        <ele>787.6</ele>
        <time>2021-05-08T15:43:37Z</time>
      </trkpt>
      <trkpt lat="46.65635" lon="5.93023">
        <ele>784.5</ele>
        <time>2021-05-08T15:43:48Z</time>
      </trkpt>
      <trkpt lat="46.65636" lon="5.9303">
        <ele>781.1</ele>
        <time>2021-05-08T15:43:54Z</time>
      </trkpt>
      <trkpt lat="46.65639" lon="5.93036">
        <ele>778.5</ele>
        <time>2021-05-08T15:43:59Z</time>
      </trkpt>
      <trkpt lat="46.65642" lon="5.93041">
        <ele>776.6</ele>
        <time>2021-05-08T15:44:03Z</time>
      </trkpt>
      <trkpt lat="46.65646" lon="5.93048">
        <ele>776</ele>
        <time>2021-05-08T15:44:07Z</time>
      </trkpt>
      <trkpt lat="46.65649" lon="5.93055">
        <ele>775.8</ele>
        <time>2021-05-08T15:44:11Z</time>
      </trkpt>
      <trkpt lat="46.65652" lon="5.93063">
        <ele>776.6</ele>
        <time>2021-05-08T15:44:15Z</time>
      </trkpt>
      <trkpt lat="46.65656" lon="5.93069">
        <ele>777.5</ele>
        <time>2021-05-08T15:44:19Z</time>
      </trkpt>
      <trkpt lat="46.6566" lon="5.93074">
        <ele>778.5</ele>
        <time>2021-05-08T15:44:24Z</time>
      </trkpt>
      <trkpt lat="46.65664" lon="5.93078">
        <ele>779</ele>
        <time>2021-05-08T15:44:29Z</time>
      </trkpt>
      <trkpt lat="46.65669" lon="5.93082">
        <ele>779</ele>
        <time>2021-05-08T15:44:35Z</time>
      </trkpt>
      <trkpt lat="46.65674" lon="5.93084">
        <ele>778.9</ele>
        <time>2021-05-08T15:44:41Z</time>
      </trkpt>
      <trkpt lat="46.65678" lon="5.93088">
        <ele>779.1</ele>
        <time>2021-05-08T15:44:47Z</time>
      </trkpt>
      <trkpt lat="46.65683" lon="5.9309">
        <ele>778.9</ele>
        <time>2021-05-08T15:44:52Z</time>
      </trkpt>
      <trkpt lat="46.65687" lon="5.93094">
        <ele>779.1</ele>
        <time>2021-05-08T15:44:58Z</time>
      </trkpt>
      <trkpt lat="46.65691" lon="5.93098">
        <ele>779.4</ele>
        <time>2021-05-08T15:45:04Z</time>
      </trkpt>
      <trkpt lat="46.65695" lon="5.93103">
        <ele>779.2</ele>
        <time>2021-05-08T15:45:09Z</time>
      </trkpt>
      <trkpt lat="46.65701" lon="5.93105">
        <ele>779</ele>
        <time>2021-05-08T15:45:14Z</time>
      </trkpt>
      <trkpt lat="46.65705" lon="5.93107">
        <ele>779.1</ele>
        <time>2021-05-08T15:45:19Z</time>
      </trkpt>
      <trkpt lat="46.65709" lon="5.93111">
        <ele>779</ele>
        <time>2021-05-08T15:45:24Z</time>
      </trkpt>
      <trkpt lat="46.65714" lon="5.93113">
        <ele>779</ele>
        <time>2021-05-08T15:45:28Z</time>
      </trkpt>
      <trkpt lat="46.65718" lon="5.93118">
        <ele>778.6</ele>
        <time>2021-05-08T15:45:34Z</time>
      </trkpt>
      <trkpt lat="46.65722" lon="5.93121">
        <ele>778.3</ele>
        <time>2021-05-08T15:45:38Z</time>
      </trkpt>
      <trkpt lat="46.65727" lon="5.93124">
        <ele>778</ele>
        <time>2021-05-08T15:45:42Z</time>
      </trkpt>
      <trkpt lat="46.65733" lon="5.93125">
        <ele>777.4</ele>
        <time>2021-05-08T15:45:47Z</time>
      </trkpt>
      <trkpt lat="46.65739" lon="5.93127">
        <ele>777.2</ele>
        <time>2021-05-08T15:45:51Z</time>
      </trkpt>
      <trkpt lat="46.65744" lon="5.9313">
        <ele>777</ele>
        <time>2021-05-08T15:45:55Z</time>
      </trkpt>
      <trkpt lat="46.65748" lon="5.93134">
        <ele>776.5</ele>
        <time>2021-05-08T15:46:00Z</time>
      </trkpt>
      <trkpt lat="46.65751" lon="5.9314">
        <ele>775.4</ele>
        <time>2021-05-08T15:46:06Z</time>
      </trkpt>
      <trkpt lat="46.65754" lon="5.93146">
        <ele>774.9</ele>
        <time>2021-05-08T15:46:10Z</time>
      </trkpt>
      <trkpt lat="46.65759" lon="5.9315">
        <ele>774.8</ele>
        <time>2021-05-08T15:46:15Z</time>
      </trkpt>
      <trkpt lat="46.65763" lon="5.93154">
        <ele>774.2</ele>
        <time>2021-05-08T15:46:20Z</time>
      </trkpt>
      <trkpt lat="46.65767" lon="5.93157">
        <ele>773.4</ele>
        <time>2021-05-08T15:46:26Z</time>
      </trkpt>
      <trkpt lat="46.65771" lon="5.9316">
        <ele>772.5</ele>
        <time>2021-05-08T15:46:31Z</time>
      </trkpt>
      <trkpt lat="46.65775" lon="5.93166">
        <ele>771.2</ele>
        <time>2021-05-08T15:46:36Z</time>
      </trkpt>
      <trkpt lat="46.65778" lon="5.93171">
        <ele>770.3</ele>
        <time>2021-05-08T15:46:40Z</time>
      </trkpt>
      <trkpt lat="46.65783" lon="5.93171">
        <ele>768.9</ele>
        <time>2021-05-08T15:46:47Z</time>
      </trkpt>
      <trkpt lat="46.65787" lon="5.93174">
        <ele>767.6</ele>
        <time>2021-05-08T15:46:56Z</time>
      </trkpt>
      <trkpt lat="46.65788" lon="5.93181">
        <ele>766.5</ele>
        <time>2021-05-08T15:47:02Z</time>
      </trkpt>
      <trkpt lat="46.65792" lon="5.93186">
        <ele>765.6</ele>
        <time>2021-05-08T15:47:07Z</time>
      </trkpt>
      <trkpt lat="46.65796" lon="5.93189">
        <ele>764.9</ele>
        <time>2021-05-08T15:47:12Z</time>
      </trkpt>
      <trkpt lat="46.65799" lon="5.93195">
        <ele>764.6</ele>
        <time>2021-05-08T15:47:16Z</time>
      </trkpt>
      <trkpt lat="46.65802" lon="5.932">
        <ele>764.2</ele>
        <time>2021-05-08T15:47:21Z</time>
      </trkpt>
      <trkpt lat="46.65805" lon="5.93206">
        <ele>764.6</ele>
        <time>2021-05-08T15:47:26Z</time>
      </trkpt>
      <trkpt lat="46.6581" lon="5.93208">
        <ele>764.5</ele>
        <time>2021-05-08T15:47:30Z</time>
      </trkpt>
      <trkpt lat="46.65815" lon="5.9321">
        <ele>764.6</ele>
        <time>2021-05-08T15:47:34Z</time>
      </trkpt>
      <trkpt lat="46.6582" lon="5.93214">
        <ele>764.6</ele>
        <time>2021-05-08T15:47:39Z</time>
      </trkpt>
      <trkpt lat="46.65823" lon="5.93219">
        <ele>764.1</ele>
        <time>2021-05-08T15:47:44Z</time>
      </trkpt>
      <trkpt lat="46.65827" lon="5.93223">
        <ele>763.6</ele>
        <time>2021-05-08T15:47:48Z</time>
      </trkpt>
      <trkpt lat="46.65831" lon="5.93226">
        <ele>762.8</ele>
        <time>2021-05-08T15:47:52Z</time>
      </trkpt>
      <trkpt lat="46.65836" lon="5.93229">
        <ele>761.8</ele>
        <time>2021-05-08T15:47:57Z</time>
      </trkpt>
      <trkpt lat="46.65841" lon="5.93233">
        <ele>761.3</ele>
        <time>2021-05-08T15:48:02Z</time>
      </trkpt>
      <trkpt lat="46.65844" lon="5.93237">
        <ele>760.7</ele>
        <time>2021-05-08T15:48:07Z</time>
      </trkpt>
      <trkpt lat="46.65848" lon="5.93242">
        <ele>759.7</ele>
        <time>2021-05-08T15:48:12Z</time>
      </trkpt>
      <trkpt lat="46.6585" lon="5.93248">
        <ele>758</ele>
        <time>2021-05-08T15:48:21Z</time>
      </trkpt>
      <trkpt lat="46.65854" lon="5.93261">
        <ele>763.8</ele>
        <time>2021-05-08T15:48:25Z</time>
      </trkpt>
      <trkpt lat="46.65858" lon="5.93272">
        <ele>770</ele>
        <time>2021-05-08T15:48:29Z</time>
      </trkpt>
      <trkpt lat="46.6586" lon="5.93278">
        <ele>774</ele>
        <time>2021-05-08T15:48:33Z</time>
      </trkpt>
      <trkpt lat="46.65864" lon="5.93282">
        <ele>776.1</ele>
        <time>2021-05-08T15:48:38Z</time>
      </trkpt>
      <trkpt lat="46.65867" lon="5.93287">
        <ele>774.2</ele>
        <time>2021-05-08T15:48:46Z</time>
      </trkpt>
      <trkpt lat="46.65872" lon="5.93291">
        <ele>770</ele>
        <time>2021-05-08T15:48:56Z</time>
      </trkpt>
      <trkpt lat="46.65867" lon="5.93294">
        <ele>768.7</ele>
        <time>2021-05-08T15:49:05Z</time>
      </trkpt>
      <trkpt lat="46.65862" lon="5.93294">
        <ele>769.3</ele>
        <time>2021-05-08T15:49:10Z</time>
      </trkpt>
      <trkpt lat="46.65858" lon="5.93293">
        <ele>768.3</ele>
        <time>2021-05-08T15:49:17Z</time>
      </trkpt>
      <trkpt lat="46.65853" lon="5.93291">
        <ele>767.2</ele>
        <time>2021-05-08T15:49:22Z</time>
      </trkpt>
      <trkpt lat="46.65849" lon="5.93289">
        <ele>766.4</ele>
        <time>2021-05-08T15:49:26Z</time>
      </trkpt>
      <trkpt lat="46.65843" lon="5.93287">
        <ele>765.3</ele>
        <time>2021-05-08T15:49:31Z</time>
      </trkpt>
      <trkpt lat="46.65838" lon="5.93285">
        <ele>764.7</ele>
        <time>2021-05-08T15:49:35Z</time>
      </trkpt>
      <trkpt lat="46.65833" lon="5.93283">
        <ele>764.9</ele>
        <time>2021-05-08T15:49:39Z</time>
      </trkpt>
      <trkpt lat="46.65829" lon="5.9328">
        <ele>765.3</ele>
        <time>2021-05-08T15:49:44Z</time>
      </trkpt>
      <trkpt lat="46.65825" lon="5.93276">
        <ele>765.6</ele>
        <time>2021-05-08T15:49:50Z</time>
      </trkpt>
      <trkpt lat="46.65821" lon="5.93272">
        <ele>765.6</ele>
        <time>2021-05-08T15:49:56Z</time>
      </trkpt>
      <trkpt lat="46.65817" lon="5.93267">
        <ele>764.9</ele>
        <time>2021-05-08T15:50:03Z</time>
      </trkpt>
      <trkpt lat="46.65813" lon="5.93265">
        <ele>763.6</ele>
        <time>2021-05-08T15:50:09Z</time>
      </trkpt>
      <trkpt lat="46.65808" lon="5.93263">
        <ele>762.9</ele>
        <time>2021-05-08T15:50:14Z</time>
      </trkpt>
      <trkpt lat="46.65803" lon="5.93264">
        <ele>761.5</ele>
        <time>2021-05-08T15:50:21Z</time>
      </trkpt>
      <trkpt lat="46.65801" lon="5.93271">
        <ele>760.9</ele>
        <time>2021-05-08T15:50:29Z</time>
      </trkpt>
      <trkpt lat="46.65802" lon="5.93278">
        <ele>759.9</ele>
        <time>2021-05-08T15:50:36Z</time>
      </trkpt>
      <trkpt lat="46.65801" lon="5.93285">
        <ele>759.3</ele>
        <time>2021-05-08T15:50:43Z</time>
      </trkpt>
      <trkpt lat="46.65802" lon="5.93293">
        <ele>758.9</ele>
        <time>2021-05-08T15:50:48Z</time>
      </trkpt>
      <trkpt lat="46.65801" lon="5.933">
        <ele>758.4</ele>
        <time>2021-05-08T15:50:53Z</time>
      </trkpt>
      <trkpt lat="46.658" lon="5.93307">
        <ele>757.8</ele>
        <time>2021-05-08T15:50:58Z</time>
      </trkpt>
      <trkpt lat="46.65802" lon="5.93314">
        <ele>757.3</ele>
        <time>2021-05-08T15:51:04Z</time>
      </trkpt>
      <trkpt lat="46.65804" lon="5.93321">
        <ele>756.7</ele>
        <time>2021-05-08T15:51:08Z</time>
      </trkpt>
      <trkpt lat="46.65806" lon="5.93326">
        <ele>755.9</ele>
        <time>2021-05-08T15:51:13Z</time>
      </trkpt>
      <trkpt lat="46.65815" lon="5.93337">
        <ele>756</ele>
        <time>2021-05-08T15:51:18Z</time>
      </trkpt>
      <trkpt lat="46.65822" lon="5.93345">
        <ele>756.3</ele>
        <time>2021-05-08T15:51:22Z</time>
      </trkpt>
      <trkpt lat="46.65824" lon="5.93353">
        <ele>756.3</ele>
        <time>2021-05-08T15:51:27Z</time>
      </trkpt>
      <trkpt lat="46.65825" lon="5.93359">
        <ele>755.4</ele>
        <time>2021-05-08T15:51:35Z</time>
      </trkpt>
      <trkpt lat="46.65827" lon="5.93366">
        <ele>753.6</ele>
        <time>2021-05-08T15:51:44Z</time>
      </trkpt>
      <trkpt lat="46.65825" lon="5.93372">
        <ele>752.5</ele>
        <time>2021-05-08T15:51:50Z</time>
      </trkpt>
      <trkpt lat="46.65823" lon="5.93379">
        <ele>750.9</ele>
        <time>2021-05-08T15:51:57Z</time>
      </trkpt>
      <trkpt lat="46.65821" lon="5.93386">
        <ele>749.8</ele>
        <time>2021-05-08T15:52:02Z</time>
      </trkpt>
      <trkpt lat="46.65819" lon="5.93392">
        <ele>748.9</ele>
        <time>2021-05-08T15:52:07Z</time>
      </trkpt>
      <trkpt lat="46.65819" lon="5.93399">
        <ele>748.4</ele>
        <time>2021-05-08T15:52:14Z</time>
      </trkpt>
      <trkpt lat="46.65815" lon="5.9341">
        <ele>752.2</ele>
        <time>2021-05-08T15:52:18Z</time>
      </trkpt>
      <trkpt lat="46.65813" lon="5.93424">
        <ele>756.9</ele>
        <time>2021-05-08T15:52:22Z</time>
      </trkpt>
      <trkpt lat="46.65814" lon="5.93433">
        <ele>761.6</ele>
        <time>2021-05-08T15:52:26Z</time>
      </trkpt>
      <trkpt lat="46.65811" lon="5.93438">
        <ele>766.1</ele>
        <time>2021-05-08T15:52:30Z</time>
      </trkpt>
      <trkpt lat="46.65807" lon="5.93443">
        <ele>769.8</ele>
        <time>2021-05-08T15:52:34Z</time>
      </trkpt>
      <trkpt lat="46.65804" lon="5.93448">
        <ele>773.8</ele>
        <time>2021-05-08T15:52:39Z</time>
      </trkpt>
      <trkpt lat="46.65804" lon="5.93455">
        <ele>779.9</ele>
        <time>2021-05-08T15:52:49Z</time>
      </trkpt>
      <trkpt lat="46.65799" lon="5.93458">
        <ele>781.1</ele>
        <time>2021-05-08T15:52:57Z</time>
      </trkpt>
      <trkpt lat="46.65795" lon="5.93463">
        <ele>779.5</ele>
        <time>2021-05-08T15:53:09Z</time>
      </trkpt>
      <trkpt lat="46.65791" lon="5.93466">
        <ele>777.9</ele>
        <time>2021-05-08T15:53:15Z</time>
      </trkpt>
      <trkpt lat="46.65788" lon="5.93475">
        <ele>772.7</ele>
        <time>2021-05-08T15:53:20Z</time>
      </trkpt>
      <trkpt lat="46.65785" lon="5.93484">
        <ele>767.6</ele>
        <time>2021-05-08T15:53:24Z</time>
      </trkpt>
      <trkpt lat="46.65785" lon="5.93491">
        <ele>762.2</ele>
        <time>2021-05-08T15:53:30Z</time>
      </trkpt>
      <trkpt lat="46.65783" lon="5.93498">
        <ele>757.9</ele>
        <time>2021-05-08T15:53:37Z</time>
      </trkpt>
      <trkpt lat="46.65779" lon="5.93503">
        <ele>755.8</ele>
        <time>2021-05-08T15:53:42Z</time>
      </trkpt>
      <trkpt lat="46.65774" lon="5.93514">
        <ele>757.6</ele>
        <time>2021-05-08T15:53:50Z</time>
      </trkpt>
      <trkpt lat="46.65773" lon="5.93523">
        <ele>762.1</ele>
        <time>2021-05-08T15:53:54Z</time>
      </trkpt>
      <trkpt lat="46.65771" lon="5.9353">
        <ele>767.5</ele>
        <time>2021-05-08T15:54:01Z</time>
      </trkpt>
      <trkpt lat="46.65768" lon="5.93525">
        <ele>768.6</ele>
        <time>2021-05-08T15:54:24Z</time>
      </trkpt>
      <trkpt lat="46.65763" lon="5.93526">
        <ele>767</ele>
        <time>2021-05-08T15:54:31Z</time>
      </trkpt>
      <trkpt lat="46.65758" lon="5.93526">
        <ele>766.1</ele>
        <time>2021-05-08T15:54:35Z</time>
      </trkpt>
      <trkpt lat="46.65753" lon="5.93529">
        <ele>764.5</ele>
        <time>2021-05-08T15:54:40Z</time>
      </trkpt>
      <trkpt lat="46.65748" lon="5.9353">
        <ele>763.5</ele>
        <time>2021-05-08T15:54:44Z</time>
      </trkpt>
      <trkpt lat="46.65743" lon="5.93529">
        <ele>761.6</ele>
        <time>2021-05-08T15:54:55Z</time>
      </trkpt>
      <trkpt lat="46.65738" lon="5.93528">
        <ele>761.2</ele>
        <time>2021-05-08T15:55:02Z</time>
      </trkpt>
      <trkpt lat="46.65736" lon="5.93522">
        <ele>761.9</ele>
        <time>2021-05-08T15:55:23Z</time>
      </trkpt>
      <trkpt lat="46.65741" lon="5.93518">
        <ele>762</ele>
        <time>2021-05-08T15:55:36Z</time>
      </trkpt>
      <trkpt lat="46.65736" lon="5.93522">
        <ele>761.7</ele>
        <time>2021-05-08T15:55:48Z</time>
      </trkpt>
      <trkpt lat="46.65731" lon="5.93522">
        <ele>761.9</ele>
        <time>2021-05-08T15:55:52Z</time>
      </trkpt>
      <trkpt lat="46.65727" lon="5.93523">
        <ele>762.2</ele>
        <time>2021-05-08T15:55:56Z</time>
      </trkpt>
      <trkpt lat="46.65721" lon="5.93524">
        <ele>763.4</ele>
        <time>2021-05-08T15:56:01Z</time>
      </trkpt>
      <trkpt lat="46.65707" lon="5.93535">
        <ele>772.7</ele>
        <time>2021-05-08T15:56:05Z</time>
      </trkpt>
      <trkpt lat="46.657" lon="5.9354">
        <ele>779.6</ele>
        <time>2021-05-08T15:56:09Z</time>
      </trkpt>
      <trkpt lat="46.65696" lon="5.93544">
        <ele>784.1</ele>
        <time>2021-05-08T15:56:13Z</time>
      </trkpt>
      <trkpt lat="46.65693" lon="5.9355">
        <ele>788.2</ele>
        <time>2021-05-08T15:56:19Z</time>
      </trkpt>
      <trkpt lat="46.65691" lon="5.93556">
        <ele>790.4</ele>
        <time>2021-05-08T15:56:24Z</time>
      </trkpt>
      <trkpt lat="46.65692" lon="5.93563">
        <ele>792.1</ele>
        <time>2021-05-08T15:56:29Z</time>
      </trkpt>
      <trkpt lat="46.65689" lon="5.93568">
        <ele>794.3</ele>
        <time>2021-05-08T15:56:36Z</time>
      </trkpt>
      <trkpt lat="46.65685" lon="5.9357">
        <ele>795.6</ele>
        <time>2021-05-08T15:56:41Z</time>
      </trkpt>
      <trkpt lat="46.6568" lon="5.93575">
        <ele>796.8</ele>
        <time>2021-05-08T15:56:47Z</time>
      </trkpt>
      <trkpt lat="46.65677" lon="5.9358">
        <ele>797.7</ele>
        <time>2021-05-08T15:56:52Z</time>
      </trkpt>
      <trkpt lat="46.65676" lon="5.93587">
        <ele>798</ele>
        <time>2021-05-08T15:56:57Z</time>
      </trkpt>
      <trkpt lat="46.65676" lon="5.93594">
        <ele>797.4</ele>
        <time>2021-05-08T15:57:03Z</time>
      </trkpt>
      <trkpt lat="46.65676" lon="5.93601">
        <ele>796.5</ele>
        <time>2021-05-08T15:57:08Z</time>
      </trkpt>
      <trkpt lat="46.65674" lon="5.93608">
        <ele>795.5</ele>
        <time>2021-05-08T15:57:13Z</time>
      </trkpt>
      <trkpt lat="46.65673" lon="5.93616">
        <ele>794.2</ele>
        <time>2021-05-08T15:57:18Z</time>
      </trkpt>
      <trkpt lat="46.65672" lon="5.93624">
        <ele>792.7</ele>
        <time>2021-05-08T15:57:23Z</time>
      </trkpt>
      <trkpt lat="46.6567" lon="5.93631">
        <ele>790.9</ele>
        <time>2021-05-08T15:57:28Z</time>
      </trkpt>
      <trkpt lat="46.65667" lon="5.93639">
        <ele>789</ele>
        <time>2021-05-08T15:57:32Z</time>
      </trkpt>
      <trkpt lat="46.65663" lon="5.93651">
        <ele>785.4</ele>
        <time>2021-05-08T15:57:36Z</time>
      </trkpt>
      <trkpt lat="46.65661" lon="5.9366">
        <ele>781</ele>
        <time>2021-05-08T15:57:40Z</time>
      </trkpt>
      <trkpt lat="46.65661" lon="5.93667">
        <ele>776.5</ele>
        <time>2021-05-08T15:57:44Z</time>
      </trkpt>
      <trkpt lat="46.65662" lon="5.93675">
        <ele>770.1</ele>
        <time>2021-05-08T15:57:49Z</time>
      </trkpt>
      <trkpt lat="46.65663" lon="5.93682">
        <ele>764.3</ele>
        <time>2021-05-08T15:57:55Z</time>
      </trkpt>
      <trkpt lat="46.65664" lon="5.9369">
        <ele>759.4</ele>
        <time>2021-05-08T15:58:01Z</time>
      </trkpt>
      <trkpt lat="46.65664" lon="5.93698">
        <ele>756.7</ele>
        <time>2021-05-08T15:58:05Z</time>
      </trkpt>
      <trkpt lat="46.65664" lon="5.93705">
        <ele>754.6</ele>
        <time>2021-05-08T15:58:09Z</time>
      </trkpt>
      <trkpt lat="46.65665" lon="5.93711">
        <ele>752.9</ele>
        <time>2021-05-08T15:58:13Z</time>
      </trkpt>
      <trkpt lat="46.65666" lon="5.93718">
        <ele>751.8</ele>
        <time>2021-05-08T15:58:17Z</time>
      </trkpt>
      <trkpt lat="46.65667" lon="5.93726">
        <ele>751.3</ele>
        <time>2021-05-08T15:58:21Z</time>
      </trkpt>
      <trkpt lat="46.65669" lon="5.93734">
        <ele>751.4</ele>
        <time>2021-05-08T15:58:25Z</time>
      </trkpt>
      <trkpt lat="46.65669" lon="5.93741">
        <ele>752</ele>
        <time>2021-05-08T15:58:30Z</time>
      </trkpt>
      <trkpt lat="46.65669" lon="5.93749">
        <ele>753.2</ele>
        <time>2021-05-08T15:58:36Z</time>
      </trkpt>
      <trkpt lat="46.65668" lon="5.93756">
        <ele>754</ele>
        <time>2021-05-08T15:58:41Z</time>
      </trkpt>
      <trkpt lat="46.65666" lon="5.93762">
        <ele>754.5</ele>
        <time>2021-05-08T15:58:46Z</time>
      </trkpt>
      <trkpt lat="46.65665" lon="5.93769">
        <ele>754.3</ele>
        <time>2021-05-08T15:58:51Z</time>
      </trkpt>
      <trkpt lat="46.65665" lon="5.93776">
        <ele>754.2</ele>
        <time>2021-05-08T15:58:56Z</time>
      </trkpt>
      <trkpt lat="46.65664" lon="5.93783">
        <ele>754.2</ele>
        <time>2021-05-08T15:59:02Z</time>
      </trkpt>
      <trkpt lat="46.65663" lon="5.9379">
        <ele>754</ele>
        <time>2021-05-08T15:59:08Z</time>
      </trkpt>
      <trkpt lat="46.65663" lon="5.93797">
        <ele>754.9</ele>
        <time>2021-05-08T15:59:12Z</time>
      </trkpt>
      <trkpt lat="46.65662" lon="5.93805">
        <ele>756.7</ele>
        <time>2021-05-08T15:59:17Z</time>
      </trkpt>
      <trkpt lat="46.6566" lon="5.93811">
        <ele>758.9</ele>
        <time>2021-05-08T15:59:22Z</time>
      </trkpt>
      <trkpt lat="46.65658" lon="5.93817">
        <ele>760</ele>
        <time>2021-05-08T15:59:26Z</time>
      </trkpt>
      <trkpt lat="46.65656" lon="5.93823">
        <ele>760.3</ele>
        <time>2021-05-08T15:59:31Z</time>
      </trkpt>
      <trkpt lat="46.65653" lon="5.93829">
        <ele>759.4</ele>
        <time>2021-05-08T15:59:37Z</time>
      </trkpt>
      <trkpt lat="46.65652" lon="5.93836">
        <ele>757.5</ele>
        <time>2021-05-08T15:59:44Z</time>
      </trkpt>
      <trkpt lat="46.65649" lon="5.93843">
        <ele>757.2</ele>
        <time>2021-05-08T15:59:48Z</time>
      </trkpt>
      <trkpt lat="46.65644" lon="5.93855">
        <ele>761.6</ele>
        <time>2021-05-08T15:59:52Z</time>
      </trkpt>
      <trkpt lat="46.65642" lon="5.93861">
        <ele>764.6</ele>
        <time>2021-05-08T15:59:56Z</time>
      </trkpt>
      <trkpt lat="46.6564" lon="5.93867">
        <ele>766.8</ele>
        <time>2021-05-08T16:00:01Z</time>
      </trkpt>
      <trkpt lat="46.65637" lon="5.93874">
        <ele>768.2</ele>
        <time>2021-05-08T16:00:06Z</time>
      </trkpt>
      <trkpt lat="46.65634" lon="5.93879">
        <ele>769.1</ele>
        <time>2021-05-08T16:00:11Z</time>
      </trkpt>
      <trkpt lat="46.65633" lon="5.93886">
        <ele>769.3</ele>
        <time>2021-05-08T16:00:16Z</time>
      </trkpt>
      <trkpt lat="46.65633" lon="5.93893">
        <ele>768.4</ele>
        <time>2021-05-08T16:00:22Z</time>
      </trkpt>
      <trkpt lat="46.65633" lon="5.93901">
        <ele>766.6</ele>
        <time>2021-05-08T16:00:28Z</time>
      </trkpt>
      <trkpt lat="46.65633" lon="5.93909">
        <ele>765</ele>
        <time>2021-05-08T16:00:34Z</time>
      </trkpt>
      <trkpt lat="46.65633" lon="5.93916">
        <ele>764.1</ele>
        <time>2021-05-08T16:00:38Z</time>
      </trkpt>
      <trkpt lat="46.65633" lon="5.93923">
        <ele>763.2</ele>
        <time>2021-05-08T16:00:42Z</time>
      </trkpt>
      <trkpt lat="46.65634" lon="5.9393">
        <ele>762</ele>
        <time>2021-05-08T16:00:46Z</time>
      </trkpt>
      <trkpt lat="46.65634" lon="5.93936">
        <ele>760.1</ele>
        <time>2021-05-08T16:00:53Z</time>
      </trkpt>
      <trkpt lat="46.65631" lon="5.93942">
        <ele>757.8</ele>
        <time>2021-05-08T16:01:03Z</time>
      </trkpt>
      <trkpt lat="46.65635" lon="5.93946">
        <ele>752</ele>
        <time>2021-05-08T16:01:27Z</time>
      </trkpt>
      <trkpt lat="46.65639" lon="5.93949">
        <ele>750.3</ele>
        <time>2021-05-08T16:01:37Z</time>
      </trkpt>
      <trkpt lat="46.65635" lon="5.93944">
        <ele>750.3</ele>
        <time>2021-05-08T16:01:46Z</time>
      </trkpt>
      <trkpt lat="46.6563" lon="5.9394">
        <ele>750.3</ele>
        <time>2021-05-08T16:01:51Z</time>
      </trkpt>
      <trkpt lat="46.65626" lon="5.93936">
        <ele>749.9</ele>
        <time>2021-05-08T16:01:56Z</time>
      </trkpt>
      <trkpt lat="46.65622" lon="5.93932">
        <ele>749.6</ele>
        <time>2021-05-08T16:02:03Z</time>
      </trkpt>
      <trkpt lat="46.65618" lon="5.93926">
        <ele>749.4</ele>
        <time>2021-05-08T16:02:09Z</time>
      </trkpt>
      <trkpt lat="46.65613" lon="5.93924">
        <ele>749</ele>
        <time>2021-05-08T16:02:18Z</time>
      </trkpt>
      <trkpt lat="46.65608" lon="5.93922">
        <ele>748.5</ele>
        <time>2021-05-08T16:02:24Z</time>
      </trkpt>
      <trkpt lat="46.65603" lon="5.9392">
        <ele>747.7</ele>
        <time>2021-05-08T16:02:30Z</time>
      </trkpt>
      <trkpt lat="46.65598" lon="5.93919">
        <ele>747.2</ele>
        <time>2021-05-08T16:02:35Z</time>
      </trkpt>
      <trkpt lat="46.65593" lon="5.93919">
        <ele>746.6</ele>
        <time>2021-05-08T16:02:40Z</time>
      </trkpt>
      <trkpt lat="46.65588" lon="5.93919">
        <ele>746.2</ele>
        <time>2021-05-08T16:02:46Z</time>
      </trkpt>
      <trkpt lat="46.65583" lon="5.93918">
        <ele>745.7</ele>
        <time>2021-05-08T16:02:52Z</time>
      </trkpt>
      <trkpt lat="46.65579" lon="5.93921">
        <ele>745</ele>
        <time>2021-05-08T16:03:02Z</time>
      </trkpt>
      <trkpt lat="46.65574" lon="5.93926">
        <ele>743.7</ele>
        <time>2021-05-08T16:03:14Z</time>
      </trkpt>
      <trkpt lat="46.6557" lon="5.93932">
        <ele>742.1</ele>
        <time>2021-05-08T16:03:18Z</time>
      </trkpt>
      <trkpt lat="46.65565" lon="5.93933">
        <ele>738.7</ele>
        <time>2021-05-08T16:03:26Z</time>
      </trkpt>
      <trkpt lat="46.6556" lon="5.93932">
        <ele>736.6</ele>
        <time>2021-05-08T16:03:32Z</time>
      </trkpt>
      <trkpt lat="46.65556" lon="5.93935">
        <ele>735</ele>
        <time>2021-05-08T16:03:38Z</time>
      </trkpt>
      <trkpt lat="46.65551" lon="5.93936">
        <ele>734</ele>
        <time>2021-05-08T16:03:43Z</time>
      </trkpt>
      <trkpt lat="46.65546" lon="5.93938">
        <ele>732.9</ele>
        <time>2021-05-08T16:03:48Z</time>
      </trkpt>
      <trkpt lat="46.65542" lon="5.93942">
        <ele>732.2</ele>
        <time>2021-05-08T16:03:53Z</time>
      </trkpt>
      <trkpt lat="46.65538" lon="5.93945">
        <ele>732</ele>
        <time>2021-05-08T16:03:57Z</time>
      </trkpt>
      <trkpt lat="46.65533" lon="5.93948">
        <ele>731.5</ele>
        <time>2021-05-08T16:04:02Z</time>
      </trkpt>
      <trkpt lat="46.65528" lon="5.9395">
        <ele>731.1</ele>
        <time>2021-05-08T16:04:08Z</time>
      </trkpt>
      <trkpt lat="46.65523" lon="5.93952">
        <ele>730.2</ele>
        <time>2021-05-08T16:04:15Z</time>
      </trkpt>
      <trkpt lat="46.65518" lon="5.93951">
        <ele>729.3</ele>
        <time>2021-05-08T16:04:22Z</time>
      </trkpt>
      <trkpt lat="46.65513" lon="5.9395">
        <ele>728.5</ele>
        <time>2021-05-08T16:04:28Z</time>
      </trkpt>
      <trkpt lat="46.65508" lon="5.93949">
        <ele>727.6</ele>
        <time>2021-05-08T16:04:34Z</time>
      </trkpt>
      <trkpt lat="46.65503" lon="5.9395">
        <ele>726.8</ele>
        <time>2021-05-08T16:04:39Z</time>
      </trkpt>
      <trkpt lat="46.65498" lon="5.93952">
        <ele>726.1</ele>
        <time>2021-05-08T16:04:44Z</time>
      </trkpt>
      <trkpt lat="46.65494" lon="5.93955">
        <ele>725</ele>
        <time>2021-05-08T16:04:49Z</time>
      </trkpt>
      <trkpt lat="46.6549" lon="5.9396">
        <ele>723.9</ele>
        <time>2021-05-08T16:04:54Z</time>
      </trkpt>
      <trkpt lat="46.65486" lon="5.93962">
        <ele>722.7</ele>
        <time>2021-05-08T16:05:05Z</time>
      </trkpt>
      <trkpt lat="46.65481" lon="5.9396">
        <ele>722.6</ele>
        <time>2021-05-08T16:05:13Z</time>
      </trkpt>
      <trkpt lat="46.65477" lon="5.93957">
        <ele>722.3</ele>
        <time>2021-05-08T16:05:23Z</time>
      </trkpt>
      <trkpt lat="46.65472" lon="5.93955">
        <ele>721.7</ele>
        <time>2021-05-08T16:05:28Z</time>
      </trkpt>
      <trkpt lat="46.65468" lon="5.93951">
        <ele>721.2</ele>
        <time>2021-05-08T16:05:33Z</time>
      </trkpt>
      <trkpt lat="46.65464" lon="5.93953">
        <ele>720.6</ele>
        <time>2021-05-08T16:05:38Z</time>
      </trkpt>
      <trkpt lat="46.65458" lon="5.93962">
        <ele>721.7</ele>
        <time>2021-05-08T16:05:42Z</time>
      </trkpt>
      <trkpt lat="46.65453" lon="5.9397">
        <ele>723</ele>
        <time>2021-05-08T16:05:46Z</time>
      </trkpt>
      <trkpt lat="46.65449" lon="5.93976">
        <ele>723.9</ele>
        <time>2021-05-08T16:05:51Z</time>
      </trkpt>
      <trkpt lat="46.65448" lon="5.93983">
        <ele>724.1</ele>
        <time>2021-05-08T16:05:57Z</time>
      </trkpt>
      <trkpt lat="46.65449" lon="5.9399">
        <ele>723.7</ele>
        <time>2021-05-08T16:06:03Z</time>
      </trkpt>
      <trkpt lat="46.6545" lon="5.93997">
        <ele>722.9</ele>
        <time>2021-05-08T16:06:09Z</time>
      </trkpt>
      <trkpt lat="46.65451" lon="5.94003">
        <ele>722</ele>
        <time>2021-05-08T16:06:14Z</time>
      </trkpt>
      <trkpt lat="46.65448" lon="5.94008">
        <ele>720.5</ele>
        <time>2021-05-08T16:06:26Z</time>
      </trkpt>
      <trkpt lat="46.65444" lon="5.94011">
        <ele>719.9</ele>
        <time>2021-05-08T16:06:32Z</time>
      </trkpt>
      <trkpt lat="46.65439" lon="5.94016">
        <ele>719.4</ele>
        <time>2021-05-08T16:06:37Z</time>
      </trkpt>
      <trkpt lat="46.65438" lon="5.94022">
        <ele>718.9</ele>
        <time>2021-05-08T16:06:41Z</time>
      </trkpt>
      <trkpt lat="46.65438" lon="5.9403">
        <ele>718.2</ele>
        <time>2021-05-08T16:06:46Z</time>
      </trkpt>
      <trkpt lat="46.65438" lon="5.94037">
        <ele>717.7</ele>
        <time>2021-05-08T16:06:51Z</time>
      </trkpt>
      <trkpt lat="46.65437" lon="5.94044">
        <ele>717.2</ele>
        <time>2021-05-08T16:06:57Z</time>
      </trkpt>
      <trkpt lat="46.65434" lon="5.94049">
        <ele>716.7</ele>
        <time>2021-05-08T16:07:04Z</time>
      </trkpt>
      <trkpt lat="46.65438" lon="5.94051">
        <ele>720</ele>
        <time>2021-05-08T16:07:27Z</time>
      </trkpt>
      <trkpt lat="46.65438" lon="5.94058">
        <ele>720.8</ele>
        <time>2021-05-08T16:09:11Z</time>
      </trkpt>
    </trkseg>
  </trk>
</gpx>